GFSGBSN_sfc_thetae_000.txt.gz
Theta_e
320 319 319 319 320 319 319 319 318 317 316 316 315 315 315 316 317 316 315 314 314 313 312 312 312 313 311 310 307 314 327 329 324 316 310 308 307 303 298 297 297 294 295 297 298 300 297
319 319 319 319 319 318 319 318 317 316 315 315 314 314 315 315 317 316 315 314 313 313 311 311 312 313 308 302 314 312 317 318 313 311 311 310 307 306 301 299 296 297 297 296 297 298 298
319 318 319 318 318 318 317 317 316 315 315 314 315 315 315 315 317 316 314 314 313 312 310 311 311 311 311 310 314 311 311 310 311 312 309 309 310 304 302 299 300 298 293 294 294 297 296
319 319 318 318 317 317 316 316 315 315 314 314 314 315 316 316 315 313 313 313 312 310 310 310 311 310 306 316 312 309 308 308 311 311 310 310 309 306 301 300 299 296 294 289 295 298 299
318 318 318 318 316 317 316 315 315 315 314 313 315 316 316 315 314 313 312 311 310 310 310 310 307 309 302 317 307 310 308 307 310 311 309 310 307 300 300 293 290 292 287 290 293 299 297
318 318 318 317 316 316 315 315 315 314 314 315 315 315 315 314 313 312 311 310 313 311 311 313 313 306 311 309 307 307 308 309 308 307 306 303 300 295 294 291 285 288 289 288 291 294 296
318 318 317 316 317 316 315 315 315 314 315 315 315 316 315 315 314 313 310 307 304 303 309 301 304 307 306 307 307 305 308 307 307 304 297 301 295 291 293 295 296 296 292 291 291 296 295
317 317 316 315 317 317 315 315 316 314 315 315 315 315 315 314 314 313 308 312 311 310 300 310 311 308 309 306 303 304 309 303 303 297 299 296 292 297 299 300 298 297 294 293 295 298 295
316 316 315 315 316 316 315 315 314 313 314 314 314 315 314 313 313 309 308 312 319 317 300 303 306 305 306 308 302 302 306 304 300 297 296 293 296 301 300 297 296 296 294 293 293 295 294
315 314 313 315 316 315 314 314 314 313 313 313 313 314 312 312 309 312 310 316 317 313 291 296 301 304 307 307 302 306 307 304 302 297 297 296 301 300 298 296 296 293 298 297 295 291 286
314 313 312 314 314 313 312 312 312 313 313 313 313 313 311 312 309 314 317 323 320 312 279 298 302 310 306 303 304 303 307 306 299 297 298 296 297 297 296 296 298 296 299 296 295 291 289
313 312 312 313 313 312 312 312 311 311 312 312 313 313 311 311 311 316 324 320 308 292 281 297 302 301 299 302 303 303 304 307 305 300 299 298 301 298 297 300 300 300 298 297 295 292 283
312 311 313 313 312 312 312 311 310 311 312 313 313 313 311 321 316 323 322 306 291 283 300 294 297 301 299 298 301 301 299 297 295 291 292 297 297 299 301 297 300 297 293 286 284 281 281
312 311 312 312 312 311 311 310 310 310 311 312 314 312 313 321 328 323 312 300 285 296 295 299 299 300 297 299 299 300 297 293 297 297 293 291 288 296 300 296 293 294 292 284 280 278 285
311 312 311 311 311 311 310 309 309 310 311 312 313 314 321 322 326 317 305 288 292 296 299 298 299 296 296 299 299 297 294 294 295 296 292 291 291 298 298 298 298 295 288 293 287 284 282
312 312 310 310 310 310 306 308 309 310 311 313 313 312 311 323 321 311 300 294 300 302 302 300 294 297 293 295 296 296 295 298 298 298 298 295 289 295 298 301 300 294 296 288 285 278 277
311 311 310 310 310 308 307 308 308 309 311 312 313 301 309 324 311 302 292 296 302 303 305 299 297 295 297 295 296 295 296 298 301 300 298 297 292 291 297 294 292 294 292 292 290 284 278
310 310 309 310 309 308 308 308 308 308 310 311 309 298 316 308 293 297 296 304 302 302 305 303 303 301 297 298 297 296 296 298 303 301 293 296 290 282 291 296 297 294 293 291 281 284 281
309 309 309 309 306 306 307 307 308 308 309 311 304 306 317 306 286 285 302 303 303 301 301 302 301 302 302 298 294 298 298 302 301 299 296 295 288 281 287 294 295 293 294 295 290 283 282
309 309 309 307 304 304 307 307 308 308 308 312 307 295 302 305 301 300 299 299 299 304 303 303 302 303 300 298 300 296 297 302 300 298 300 300 293 286 283 287 289 286 290 293 290 280 282
308 308 308 304 304 304 307 307 307 308 308 310 308 298 299 288 293 301 302 301 299 298 303 303 300 301 298 292 295 295 298 298 300 300 299 296 287 289 290 292 291 290 289 289 288 288 283
308 308 308 304 304 306 307 307 307 307 307 309 306 302 301 294 299 300 300 299 299 300 300 299 298 301 300 294 296 294 297 296 295 298 297 295 285 284 284 292 291 287 289 290 290 290 289
308 307 308 306 307 309 308 307 307 308 309 311 313 309 304 297 295 296 295 300 301 302 301 303 301 298 295 299 300 300 300 301 300 297 291 288 283 281 281 285 285 280 287 291 291 292 290
307 308 308 309 309 309 308 306 306 308 310 319 316 310 299 290 294 297 303 302 301 301 300 303 302 298 303 305 299 297 295 299 300 296 295 286 285 280 276 277 272 290 295 294 293 294 294
307 308 309 309 308 307 307 307 306 307 308 314 313 311 300 287 296 300 301 302 302 302 301 302 304 303 304 298 287 286 284 286 288 296 297 292 281 279 275 276 281 288 293 291 289 290 295
307 308 309 308 307 306 306 306 306 307 308 312 312 314 304 296 296 306 301 301 294 294 295 299 307 308 300 285 283 280 278 283 284 291 294 292 284 280 280 272 270 284 294 297 295 284 296
307 308 308 307 307 306 306 306 307 307 308 314 312 315 311 300 304 304 300 299 302 296 293 297 298 298 298 281 281 283 282 290 284 282 280 280 277 277 276 271 280 289 295 297 282 284 296
307 307 307 308 307 306 306 306 306 307 307 314 312 315 311 302 305 309 308 303 302 299 292 299 296 294 288 282 279 284 283 285 284 288 285 282 279 276 276 273 276 294 295 287 291 294 295
307 307 307 308 307 306 306 306 306 306 307 311 311 316 316 308 307 310 310 310 308 306 303 299 296 297 293 288 288 290 284 286 279 280 292 284 286 283 285 285 292 295 295 296 298 295 295

GFSGBSN_sfc_thetae_003.txt.gz
Theta_e
322 322 321 320 320 320 320 319 318 318 317 317 316 316 316 316 316 317 316 315 315 314 313 312 311 311 309 307 306 312 329 329 315 310 305 305 303 301 297 297 296 292 293 294 296 297 295
320 320 320 319 319 319 319 319 318 317 316 316 315 314 315 315 315 316 316 314 313 312 312 311 310 311 306 298 311 311 316 314 313 309 307 306 304 305 300 297 294 296 294 293 295 296 295
321 320 319 318 319 319 319 317 317 316 315 315 314 314 315 314 315 316 315 314 313 312 310 310 310 310 310 304 311 310 313 312 311 309 306 309 309 304 299 296 297 296 292 293 292 294 294
320 320 319 318 318 318 317 316 316 316 315 315 314 314 314 314 314 314 313 312 312 311 310 310 310 309 303 313 312 310 305 306 308 311 310 307 307 304 299 298 297 293 291 288 293 295 295
320 319 319 319 318 317 316 316 316 315 315 314 313 313 315 315 314 312 312 311 310 309 309 310 305 307 301 314 306 307 306 305 307 308 307 308 305 298 298 292 289 289 285 288 291 296 294
319 319 319 318 318 317 317 317 315 315 314 313 314 315 315 315 313 311 310 310 310 310 309 311 311 302 307 303 305 306 306 306 306 306 304 303 299 294 293 289 283 286 287 286 289 292 294
319 319 319 318 317 317 317 316 315 314 314 315 315 316 315 314 313 311 308 306 302 301 306 298 301 305 306 311 305 304 306 306 305 302 295 298 294 289 290 292 293 292 289 289 289 294 294
318 318 319 318 317 317 318 316 315 315 315 315 315 315 315 314 313 312 306 309 308 309 302 307 308 307 309 305 300 302 307 301 300 295 297 295 290 294 298 298 296 294 291 290 293 296 295
317 317 318 317 316 317 317 316 315 314 314 314 314 315 314 313 313 309 305 308 316 313 300 300 306 304 304 306 300 300 304 302 298 295 295 292 294 299 298 296 295 294 291 291 291 295 296
316 315 316 316 316 317 316 315 314 314 313 313 314 314 312 312 307 309 308 313 315 308 290 294 299 301 305 305 300 304 305 302 300 295 296 295 300 298 296 294 294 291 296 295 293 291 287
315 315 314 314 314 314 313 313 313 313 313 313 313 313 312 312 308 313 316 321 317 308 278 295 300 307 303 302 301 301 306 304 296 296 297 294 295 296 295 294 297 295 297 294 294 288 288
314 314 313 312 313 313 312 312 312 311 312 313 313 313 311 310 308 313 321 312 306 290 280 295 300 298 298 300 300 301 303 306 303 298 297 296 298 297 295 298 297 298 296 295 293 290 282
313 313 312 312 312 312 312 311 310 310 311 312 313 312 311 316 316 322 316 304 288 283 297 293 295 298 297 296 299 299 297 295 294 290 290 294 295 297 298 295 297 295 292 284 283 280 280
312 312 311 312 312 312 311 310 310 310 310 312 312 311 311 313 323 318 308 296 285 294 294 297 297 297 295 297 297 298 295 292 295 295 291 289 286 294 297 294 291 292 291 284 279 277 282
312 311 311 312 311 311 311 309 309 309 310 312 311 309 315 321 323 313 303 286 291 295 296 296 297 294 294 297 296 295 292 292 294 295 291 289 289 296 296 296 296 292 286 291 284 283 281
312 311 311 311 310 310 308 308 309 310 311 312 313 309 309 320 313 308 298 293 299 301 300 298 292 295 291 293 294 294 293 297 296 296 296 294 287 293 296 298 297 293 295 286 283 277 276
311 311 311 310 310 308 305 308 308 310 311 313 308 298 304 316 305 298 289 294 302 302 303 297 295 294 295 293 294 293 294 297 299 299 297 295 289 289 295 292 290 292 290 289 288 282 277
310 310 309 309 309 307 308 308 308 309 310 311 304 292 312 304 293 293 293 301 303 299 303 302 301 298 295 297 295 295 295 296 301 299 292 294 289 282 289 295 296 292 290 288 279 282 279
310 309 309 309 306 307 307 308 308 309 311 310 302 306 316 303 286 283 296 303 301 299 299 300 299 300 300 297 293 296 296 300 298 297 294 294 287 281 287 292 293 290 292 291 287 282 282
309 308 309 307 305 305 307 307 308 308 309 311 302 295 301 302 296 293 295 297 297 302 301 301 300 301 298 297 298 295 296 299 297 297 300 298 290 285 282 286 288 285 289 290 288 279 281
308 308 306 305 304 304 306 307 308 308 308 310 304 295 299 290 293 300 300 299 297 296 300 301 298 299 297 291 293 293 296 296 297 299 298 294 286 287 288 289 289 288 288 289 288 287 283
307 307 304 304 304 305 307 307 307 308 308 307 304 298 298 292 297 298 297 299 298 298 299 297 297 299 298 293 295 293 295 293 292 297 295 292 285 283 284 289 289 285 287 287 288 288 288
307 307 304 304 306 308 307 307 307 307 308 305 307 307 301 293 293 295 294 299 299 300 301 301 300 297 293 297 298 298 298 298 297 296 289 286 282 280 278 283 283 278 285 289 288 290 289
307 308 307 308 308 308 307 306 307 308 310 311 311 306 298 288 290 293 301 300 300 299 299 301 301 297 300 301 298 297 295 297 298 296 293 285 282 277 276 276 272 285 291 292 290 291 291
307 308 309 308 308 307 306 306 306 307 309 316 312 307 299 287 295 298 300 300 301 301 299 300 302 302 302 294 288 287 284 286 287 294 293 290 281 279 274 275 280 285 291 291 289 289 293
307 308 308 307 306 306 306 306 306 306 308 314 312 309 302 298 295 303 299 299 292 293 294 297 305 304 298 284 283 279 279 284 284 289 292 288 282 279 277 271 270 282 292 295 293 283 295
307 307 307 307 307 306 306 306 306 306 309 313 311 312 307 298 302 302 298 298 299 295 292 296 297 296 295 280 276 281 282 288 283 281 279 280 275 274 271 270 279 287 293 295 283 284 295
306 306 306 306 307 306 306 306 306 306 307 312 312 312 308 301 303 306 306 302 300 298 292 298 295 293 286 282 279 280 279 284 283 286 285 283 279 277 278 272 277 292 293 287 291 292 295
306 306 306 306 305 307 305 306 306 307 307 311 310 314 312 306 304 308 308 308 306 304 301 297 297 295 292 286 285 286 283 285 280 280 289 282 284 282 284 284 291 293 294 295 295 295 294

GFSGBSN_sfc_thetae_006.txt.gz
Theta_e
324 323 321 321 320 320 319 319 317 317 317 317 317 316 316 316 316 316 316 316 315 314 314 312 312 311 308 305 304 314 330 328 316 307 304 303 300 299 296 298 295 293 293 295 296 296 294
323 321 320 320 320 319 319 319 318 316 316 316 315 314 315 314 315 316 315 315 314 313 312 311 310 311 303 299 309 316 319 312 310 306 304 304 303 303 300 296 295 296 292 292 295 293 292
322 321 320 319 319 318 319 318 318 316 316 315 315 314 314 315 315 314 315 314 313 312 311 310 310 309 306 304 309 310 314 309 310 308 304 306 305 301 299 295 297 295 291 293 293 293 292
322 321 320 319 318 317 317 317 317 316 315 315 315 314 314 314 313 314 314 313 312 312 310 310 311 308 303 312 312 311 305 304 309 309 307 308 308 304 299 298 295 291 290 287 291 293 293
321 321 320 319 318 317 317 316 316 315 315 314 314 313 313 313 313 313 312 311 311 310 310 310 305 304 301 312 306 305 305 304 306 306 307 308 305 298 296 291 288 288 284 286 289 294 293
321 320 320 319 318 317 317 317 316 315 314 314 314 313 313 314 314 312 311 310 309 310 309 310 309 300 304 301 306 304 305 305 304 305 303 301 297 294 293 289 284 284 285 285 287 291 294
321 320 320 319 318 318 318 317 315 314 313 313 314 315 315 314 314 311 308 305 300 300 304 297 298 300 304 306 305 302 304 304 304 302 295 297 293 288 289 291 291 290 288 286 287 293 294
319 319 319 319 318 318 318 317 315 314 315 315 314 314 315 314 313 311 308 304 305 307 300 307 307 306 308 306 299 300 306 300 299 294 295 294 290 293 296 296 294 292 289 288 291 295 294
318 318 318 318 318 318 317 317 316 315 314 314 314 314 314 314 313 310 305 306 314 310 300 300 305 304 303 305 299 299 303 300 297 294 293 291 293 297 296 295 294 292 289 289 290 295 294
317 316 317 317 317 317 316 317 316 315 313 313 313 313 312 312 307 306 305 310 315 308 289 294 297 300 303 303 298 302 303 301 298 293 294 294 297 296 294 293 293 289 294 293 292 290 286
316 315 315 316 316 314 314 315 314 314 313 313 312 313 312 311 306 311 314 320 314 304 277 294 298 305 301 300 299 299 305 302 295 295 295 293 294 294 293 293 295 293 295 293 290 287 287
315 315 315 314 314 313 313 313 312 312 312 312 312 312 312 310 306 311 318 309 303 289 280 292 298 296 297 299 298 300 302 304 300 297 296 294 297 295 294 296 295 297 295 293 291 288 281
314 314 314 313 312 312 312 312 312 311 311 312 312 312 311 313 314 320 312 301 288 282 295 291 293 296 295 295 297 297 295 294 292 289 289 293 293 295 296 293 295 294 290 283 282 279 280
314 313 313 313 312 312 312 312 311 310 310 311 311 311 310 312 314 314 304 294 283 292 292 295 295 295 293 295 295 295 293 291 294 293 289 287 284 292 296 293 291 289 290 283 279 276 281
314 313 312 311 311 311 311 311 310 309 310 311 310 309 308 318 314 309 299 283 288 292 295 294 295 292 292 295 295 294 291 291 292 293 290 287 287 293 294 295 294 290 285 290 284 282 280
313 312 311 311 311 311 311 310 309 309 310 311 309 309 309 316 310 306 294 290 297 301 298 296 290 293 290 292 292 292 291 295 294 296 295 293 286 291 294 296 296 292 293 284 282 277 275
312 311 311 310 310 310 310 308 309 309 311 311 304 298 303 315 303 297 287 292 300 303 301 295 293 293 292 292 293 292 292 295 297 297 296 292 289 288 292 290 288 290 288 287 286 281 276
311 310 310 310 310 310 308 306 309 309 310 310 298 292 308 303 293 291 290 299 302 298 301 300 298 296 293 295 293 293 293 295 298 298 291 292 288 282 287 293 294 291 288 286 278 280 278
310 309 309 309 309 308 306 307 308 309 312 308 299 305 313 302 285 283 293 299 301 297 298 298 297 298 298 295 291 294 295 298 296 295 293 293 286 281 285 289 291 289 290 288 285 282 281
309 309 309 309 308 306 308 308 308 309 311 308 303 296 301 298 294 292 292 294 296 300 299 299 298 299 297 295 296 294 294 297 296 296 299 296 288 284 281 284 286 285 289 288 286 278 280
308 308 308 307 306 306 307 308 308 308 309 309 299 296 300 289 292 293 294 296 295 295 299 299 297 297 295 290 291 291 294 294 296 299 296 292 285 285 286 288 287 286 286 288 286 285 282
308 307 306 305 305 304 305 307 308 308 308 306 302 296 294 293 298 298 294 296 296 296 297 295 295 297 296 292 294 292 294 291 290 296 292 290 283 283 284 287 287 285 286 286 287 286 286
307 305 304 304 304 305 308 307 307 308 308 303 304 304 298 290 292 294 292 298 298 299 298 299 298 295 292 296 297 296 296 295 295 294 287 284 282 280 277 282 281 278 284 286 286 287 287
306 304 304 304 307 308 307 307 307 307 308 308 307 305 296 285 287 293 298 299 298 297 297 298 299 295 297 300 298 296 294 295 296 293 291 282 280 277 275 276 271 284 288 289 288 290 291
306 306 307 308 308 307 306 306 307 307 308 310 309 305 297 284 290 295 298 298 299 299 298 299 301 299 300 293 288 287 284 286 286 292 289 287 280 277 275 274 280 284 290 289 288 287 292
307 307 307 307 306 306 306 306 306 307 309 310 310 306 302 294 293 300 298 298 291 291 291 296 303 300 295 283 282 280 280 284 283 288 291 287 281 279 272 271 271 283 288 293 291 283 293
306 307 307 306 306 306 305 305 305 307 309 312 309 309 305 298 301 301 297 297 297 293 290 295 296 294 293 279 276 278 280 286 282 281 279 280 278 273 270 270 278 286 292 293 283 284 293
306 306 306 305 305 305 305 305 305 307 309 313 311 311 307 300 301 305 304 299 299 297 292 297 294 292 285 282 279 279 277 283 282 285 284 283 278 276 275 270 276 290 291 287 291 289 293
305 305 306 307 304 304 303 303 304 306 309 314 311 315 310 304 303 306 307 306 305 303 299 295 296 294 292 285 278 284 283 285 279 280 288 283 284 281 282 282 289 291 291 293 293 292 293

GFSGBSN_sfc_thetae_009.txt.gz
Theta_e
325 324 323 323 321 320 320 320 319 317 316 317 317 316 316 316 316 316 315 314 315 315 314 313 312 311 308 305 306 318 329 327 320 308 307 305 303 303 300 301 299 298 298 298 298 299 305
324 323 323 321 320 320 321 320 319 318 316 316 316 315 315 315 315 315 314 314 314 314 313 311 310 311 304 300 312 322 321 317 312 308 306 306 304 305 303 300 300 301 298 297 298 297 298
324 323 322 320 319 319 319 319 318 318 317 316 316 315 315 314 314 314 314 314 314 313 311 310 309 308 305 305 312 318 316 313 311 309 306 307 308 305 304 299 300 298 296 297 298 298 298
324 323 322 320 318 318 317 317 317 317 317 316 316 314 313 313 313 313 313 313 313 312 310 310 310 307 304 315 316 312 311 310 312 311 309 310 309 306 303 301 299 296 296 293 297 299 298
323 322 321 320 318 318 317 317 317 317 316 315 314 313 313 312 312 312 313 312 311 310 309 310 306 305 304 314 309 310 309 307 308 309 310 309 309 304 300 297 295 294 291 292 295 299 298
323 322 321 320 319 318 317 317 316 316 315 315 314 313 313 313 313 312 311 310 309 309 309 310 309 303 306 304 309 306 310 309 308 306 305 304 301 299 296 295 289 291 291 292 293 296 300
323 322 321 320 319 319 318 318 317 315 315 314 314 313 314 314 314 311 308 306 303 302 304 302 303 302 304 309 307 306 308 309 308 306 300 301 297 295 296 296 294 293 293 292 293 298 299
318 321 321 320 319 319 319 318 316 315 314 314 314 314 315 314 313 310 309 304 305 310 305 307 307 307 308 309 303 304 311 306 304 299 300 299 295 298 299 299 296 296 293 293 296 298 299
315 319 320 320 319 318 318 318 316 314 314 314 314 314 314 313 311 308 306 306 314 315 305 302 307 305 306 308 302 302 308 306 301 298 297 296 297 300 299 297 297 295 294 292 294 298 299
313 315 318 319 318 318 317 317 316 315 314 313 313 313 313 312 306 307 305 312 312 314 294 296 299 303 305 305 302 306 307 305 301 296 298 299 300 298 297 297 297 294 296 297 296 295 292
313 313 317 317 317 316 315 315 315 315 314 313 312 313 312 311 307 308 315 322 313 308 283 297 300 308 304 302 302 304 308 305 299 298 299 297 298 297 297 297 299 296 299 297 295 293 293
312 311 315 316 315 315 314 313 313 313 313 312 312 312 312 310 309 311 317 314 308 293 284 295 300 299 300 301 301 303 305 306 303 299 300 298 301 299 299 299 299 300 298 297 295 294 289
311 311 311 315 314 314 313 312 312 312 312 312 312 312 311 312 311 320 315 305 292 286 297 293 296 299 298 298 299 299 298 298 297 294 293 296 296 299 301 298 299 299 296 290 288 288 287
310 310 310 315 314 313 312 312 312 311 311 311 311 311 311 312 314 312 306 297 287 292 293 297 297 297 296 298 298 297 296 295 298 296 293 291 290 296 299 298 296 295 296 291 283 284 288
310 310 310 313 313 312 311 311 311 311 310 310 311 309 309 314 315 311 301 287 288 293 297 295 297 294 296 298 297 297 295 294 296 297 294 292 291 297 298 299 299 294 292 295 288 285 286
309 310 310 313 312 311 311 311 311 310 310 310 308 306 309 318 316 307 296 290 296 301 300 298 292 295 293 295 295 295 295 298 297 300 299 296 290 295 297 300 299 297 296 290 289 282 280
308 309 309 312 311 310 310 310 310 310 310 311 307 304 308 314 307 300 291 292 301 305 302 297 295 295 295 295 296 295 295 298 300 299 300 296 295 293 296 294 294 294 292 290 290 287 283
307 308 309 312 310 310 310 310 309 310 310 309 301 295 310 305 296 294 293 298 302 302 303 303 300 298 296 297 296 295 295 298 301 302 297 296 294 290 291 296 298 296 293 292 287 284 284
307 308 308 311 310 309 309 309 307 309 311 307 298 306 315 305 289 288 295 300 303 300 300 301 300 301 302 298 294 297 297 301 299 299 297 297 292 288 290 293 296 294 293 291 289 288 285
306 306 308 310 309 309 308 306 307 309 311 309 305 299 304 299 296 294 294 296 297 301 301 301 300 302 300 298 298 296 297 300 300 299 299 299 291 290 287 289 291 290 292 291 291 287 286
305 306 309 309 309 308 306 307 307 309 310 307 301 298 303 293 292 294 296 296 297 297 301 301 300 300 298 294 295 294 297 297 299 299 298 296 290 290 289 290 291 290 291 290 289 290 289
306 308 308 308 308 307 307 308 308 308 309 306 299 297 295 296 297 295 294 297 297 299 300 299 298 300 300 295 297 295 296 295 295 298 295 293 288 288 288 289 289 289 290 290 290 290 289
306 308 307 306 306 306 306 307 307 308 310 305 305 303 300 290 295 294 293 296 298 301 300 301 300 298 296 299 300 298 298 297 298 296 291 289 287 286 283 285 285 284 288 290 290 291 293
307 307 306 306 305 305 305 307 307 309 309 308 307 303 296 287 291 293 298 300 299 300 299 301 301 299 300 303 300 299 297 297 296 293 293 286 285 282 284 281 281 290 293 292 291 292 293
306 305 305 305 304 307 307 307 307 308 309 311 310 305 297 286 292 294 298 299 300 301 300 301 301 301 303 298 293 290 289 289 290 291 290 290 286 281 284 282 284 288 289 292 291 292 296
305 305 305 307 307 306 306 306 307 307 309 311 311 307 302 293 292 298 299 299 294 295 296 298 302 302 297 289 288 286 286 288 287 291 292 289 286 287 281 282 280 288 290 297 296 289 296
306 307 307 306 306 305 305 306 306 307 308 312 311 309 307 299 302 302 299 298 299 297 295 297 298 298 297 287 285 286 287 288 286 284 283 285 283 283 277 283 285 290 294 296 288 291 295
306 306 306 305 305 305 305 305 306 307 308 312 311 312 309 302 304 307 304 300 300 300 296 299 298 297 290 288 288 286 287 288 287 288 287 287 284 282 278 280 282 292 295 292 297 297 297
305 305 305 304 304 302 303 305 306 307 308 311 312 313 312 306 305 308 308 309 308 305 301 299 300 297 296 290 287 286 286 286 284 287 290 286 289 288 287 288 294 294 297 298 297 297 298

GFSGBSN_sfc_thetae_012.txt.gz
Theta_e
326 326 325 324 323 322 322 321 320 319 318 317 317 317 318 316 316 316 315 315 315 316 315 314 312 312 313 310 309 323 327 326 319 314 311 309 307 306 301 304 305 303 304 304 305 309 313
325 325 324 323 323 322 322 321 320 319 318 317 316 316 316 316 315 315 315 315 314 314 313 312 311 310 311 304 316 324 323 318 315 312 312 312 308 309 305 305 304 305 303 302 303 307 307
320 324 323 322 321 321 320 319 319 318 318 318 315 316 316 315 315 315 315 314 314 313 312 310 310 311 309 309 317 324 320 317 316 314 312 314 311 307 308 304 305 304 300 302 302 307 305
320 321 324 322 320 319 318 318 318 318 318 317 316 316 315 314 313 314 313 314 313 311 311 310 310 311 308 318 321 318 318 316 317 316 314 314 314 309 308 305 302 300 302 297 301 304 303
319 320 324 322 320 318 318 317 317 318 317 317 315 315 314 313 312 313 313 312 311 310 309 311 312 310 307 318 313 314 317 310 314 314 314 312 312 307 305 302 298 299 295 297 298 304 303
317 319 322 322 320 319 318 318 317 316 316 316 315 314 313 313 312 313 311 311 310 310 311 313 314 309 313 308 314 311 315 313 310 311 308 308 307 304 303 300 293 294 295 297 297 302 303
316 319 320 322 320 319 319 319 317 316 315 315 314 314 314 313 313 311 310 312 309 308 310 308 307 307 307 313 314 310 313 312 311 308 303 305 301 298 300 301 300 299 298 297 300 304 303
314 317 319 322 321 320 320 319 317 316 315 315 314 314 314 314 313 311 312 310 312 317 307 312 311 310 312 312 307 309 315 308 308 302 304 301 298 302 304 302 301 299 298 298 300 303 304
313 315 317 319 321 320 319 319 317 315 315 314 314 314 314 313 311 310 311 311 321 320 311 307 311 308 309 311 306 306 311 308 304 302 302 300 302 304 303 301 300 300 299 299 298 302 304
312 313 315 316 320 319 318 318 317 315 314 313 314 313 313 311 308 314 310 316 318 319 301 300 304 308 309 310 304 310 312 309 305 301 303 303 304 303 303 300 301 298 301 301 300 299 295
311 312 313 314 317 317 316 316 316 315 314 314 313 313 311 311 316 311 320 328 325 318 288 302 303 312 309 306 306 307 313 310 302 302 304 300 301 302 301 301 303 300 303 303 301 300 299
310 311 313 312 315 316 315 315 314 314 314 314 312 313 311 310 317 320 324 326 321 301 287 298 304 303 304 305 305 308 309 311 309 304 305 303 306 305 303 304 304 304 303 302 301 300 293
308 310 311 312 314 315 315 314 313 313 313 313 312 313 312 317 315 324 329 319 300 292 300 297 299 302 303 301 302 305 304 303 301 298 298 301 301 304 306 302 304 304 301 293 291 291 291
308 309 310 312 312 314 314 313 312 312 312 312 311 312 312 318 323 324 319 305 291 295 297 301 301 302 300 302 301 302 302 301 303 302 299 296 294 300 303 303 300 302 301 294 285 288 291
307 308 309 310 311 314 314 313 311 311 311 311 311 311 310 319 320 321 310 299 295 298 302 299 300 298 299 301 301 302 301 301 302 303 297 296 294 302 302 304 303 299 297 301 294 293 292
306 307 308 309 310 313 312 312 311 311 310 310 311 309 314 325 325 317 307 297 299 305 304 302 295 299 296 299 298 299 300 302 301 304 306 301 294 300 301 304 303 301 302 295 297 286 284
306 306 306 308 309 311 312 311 311 310 310 311 314 308 320 329 322 311 302 300 303 310 308 301 299 298 299 299 300 298 299 302 304 303 305 303 300 297 301 299 299 298 297 296 297 294 287
305 305 306 307 309 310 312 311 310 310 310 310 313 304 321 319 306 306 302 302 304 307 307 305 304 302 301 302 300 300 299 302 306 305 301 302 301 296 297 301 303 301 299 297 292 289 292
305 305 306 307 309 309 311 310 309 309 310 311 307 312 319 313 300 304 303 303 307 305 304 305 303 305 306 303 299 302 302 303 303 304 303 303 299 293 294 298 300 299 299 298 297 296 290
304 305 306 307 308 308 310 309 309 309 310 317 310 305 312 309 308 304 301 301 301 306 305 306 305 307 305 302 304 301 302 302 303 304 299 302 300 297 293 295 299 296 298 298 297 292 291
304 305 305 307 307 309 310 309 308 309 310 315 312 307 310 302 302 304 304 302 300 301 306 307 304 305 305 300 301 301 303 301 303 300 303 303 297 296 295 295 295 296 297 297 295 296 292
304 305 305 306 306 308 308 308 307 308 310 313 308 307 308 306 304 302 299 300 300 303 304 303 304 305 306 303 303 301 303 302 301 303 303 300 297 295 293 294 294 293 296 298 297 297 296
304 305 305 306 305 309 308 307 307 308 311 312 316 312 311 298 303 301 300 301 301 307 305 306 308 306 304 305 307 308 306 305 304 303 301 299 295 292 290 291 292 290 294 296 297 299 298
304 305 305 306 307 308 307 307 307 308 313 319 319 315 308 300 302 301 301 302 305 307 305 305 308 307 305 309 309 308 306 304 303 300 300 294 294 292 292 287 285 294 297 297 298 298 300
304 305 307 308 307 307 306 306 306 308 310 321 321 315 309 295 304 301 302 302 305 307 306 306 306 307 310 306 303 298 299 298 298 298 297 298 296 289 291 289 292 293 294 294 295 295 301
305 306 307 306 305 305 305 306 307 308 309 323 323 320 316 305 302 305 303 306 305 306 305 302 306 309 305 305 301 295 293 294 293 295 298 295 295 296 289 289 287 294 295 301 300 292 301
306 306 305 304 304 305 306 306 307 308 309 322 321 320 318 308 309 309 305 305 309 308 306 304 303 304 304 301 298 298 296 295 292 290 289 293 292 291 290 290 292 296 298 301 290 293 302
304 304 305 306 305 305 305 306 306 307 309 319 321 322 321 314 310 312 311 308 307 310 306 306 305 304 303 300 301 298 296 296 294 295 293 293 292 291 288 288 287 297 299 295 302 304 303
305 305 305 305 305 305 305 305 306 307 309 314 320 320 322 316 312 315 314 314 314 315 311 309 309 306 309 304 300 299 292 289 294 294 296 292 297 297 295 296 299 301 304 305 304 304 304

GFSGBSN_sfc_thetae_015.txt.gz
Theta_e
321 321 326 325 324 323 323 323 321 320 319 319 318 317 318 317 317 317 316 315 316 316 316 314 313 313 314 313 313 326 326 326 318 317 313 309 308 307 303 305 306 305 307 307 311 313 312
318 320 321 324 324 324 324 322 321 320 319 319 318 317 317 317 317 316 316 315 315 315 314 313 312 311 313 307 319 325 320 318 317 316 312 312 309 310 306 306 305 307 307 306 309 310 311
317 319 320 322 323 322 322 321 320 319 319 318 318 316 316 317 316 315 315 315 315 314 312 312 311 313 312 312 320 325 319 316 316 315 311 314 314 309 310 306 309 306 302 305 307 308 308
316 317 319 320 322 321 321 320 319 319 319 318 318 316 315 315 314 314 314 314 313 312 311 310 310 315 310 321 322 320 322 318 319 318 316 317 316 312 309 309 306 302 303 299 305 308 309
315 316 316 319 320 321 320 319 318 319 318 318 317 316 315 314 314 313 313 312 311 311 310 311 314 314 310 317 315 317 320 314 316 317 316 314 314 309 309 303 300 301 295 298 300 307 307
314 315 316 317 319 321 320 319 318 318 317 317 317 315 314 314 313 313 312 311 311 310 312 316 316 312 316 309 315 314 318 316 314 313 311 310 309 305 305 302 292 295 297 299 299 304 304
312 314 315 317 319 321 321 320 318 317 316 317 316 315 314 314 314 312 310 314 311 311 313 311 310 310 309 315 317 313 315 313 314 312 305 307 302 298 301 303 302 301 299 298 301 304 302
312 313 314 315 318 321 322 321 318 316 316 316 315 314 314 314 314 312 314 312 315 320 311 313 312 311 314 314 308 310 316 308 308 303 307 303 298 304 305 303 301 300 298 299 302 304 304
311 312 313 314 316 318 321 320 318 316 316 315 314 314 314 314 312 311 314 314 323 323 312 310 312 310 311 314 307 308 312 310 306 303 302 300 302 305 303 301 299 300 298 300 299 303 305
310 310 311 313 315 316 319 319 318 316 315 314 314 314 313 311 308 317 313 319 321 320 304 303 306 310 312 312 306 312 313 310 305 302 303 301 306 302 301 300 302 298 304 302 300 300 295
308 309 310 312 313 314 315 317 317 316 315 314 313 313 311 311 321 313 324 328 324 323 290 304 306 315 311 307 307 309 314 310 302 303 303 302 303 303 301 302 305 302 305 303 303 301 300
308 309 310 311 312 313 314 315 315 315 314 313 313 313 311 312 315 323 327 333 326 304 289 300 306 304 305 307 305 309 308 312 310 304 306 302 309 306 305 306 306 306 304 303 303 301 294
307 308 309 310 311 312 312 315 314 314 314 313 313 313 312 318 315 327 331 324 302 293 302 298 300 303 303 302 303 305 303 303 299 296 298 302 303 306 307 303 306 305 301 293 291 292 291
305 307 308 309 310 311 312 314 313 313 313 313 312 311 313 319 323 329 328 311 294 298 299 303 301 302 300 302 302 303 302 299 304 304 298 296 295 303 307 305 301 302 301 293 286 288 291
303 304 306 307 309 310 311 313 313 312 312 312 311 313 313 317 322 324 316 300 298 298 303 300 301 298 299 301 301 302 302 301 303 305 298 297 296 305 305 306 305 301 298 303 297 297 293
302 303 306 307 308 310 310 313 312 312 311 310 314 309 313 322 324 320 309 299 302 305 305 303 296 300 297 300 298 300 301 304 304 307 309 302 295 302 304 306 306 304 305 296 296 287 286
302 302 305 306 307 308 310 312 312 311 311 311 315 308 319 325 323 312 302 302 304 309 308 302 300 299 300 300 300 299 300 305 307 306 308 304 300 300 303 301 300 301 299 299 299 297 289
302 302 304 305 306 307 309 311 311 311 310 310 313 303 324 328 306 309 304 305 304 308 311 306 306 303 301 302 301 300 299 302 309 308 302 305 302 298 299 304 306 305 302 301 294 291 294
301 301 303 305 305 306 308 310 311 310 310 313 309 311 325 323 303 307 307 305 306 307 307 306 303 305 305 302 298 301 302 307 309 308 304 306 300 295 296 301 303 299 301 301 299 299 292
300 302 304 305 304 305 308 309 310 310 310 317 311 304 313 314 314 308 304 303 303 309 307 308 305 308 306 304 306 303 304 305 307 308 300 304 302 298 294 297 301 298 299 301 299 294 294
299 303 304 305 305 305 308 308 310 309 310 314 311 307 311 303 307 308 307 304 301 302 308 310 307 305 304 301 303 303 306 304 306 301 305 306 299 300 301 300 299 299 299 299 297 298 295
301 303 303 305 306 306 307 306 309 309 310 311 309 308 312 310 309 307 303 303 302 304 306 305 305 305 306 303 305 302 306 306 304 307 306 306 300 299 297 300 299 297 299 298 299 299 298
302 303 304 305 306 306 306 305 309 309 310 311 318 317 314 306 309 305 305 303 304 308 309 309 308 307 306 308 312 312 312 311 309 307 305 304 301 296 291 296 296 291 297 298 299 301 300
303 303 304 305 306 306 305 305 308 309 311 317 319 316 307 304 307 304 304 305 304 308 307 309 311 309 311 314 313 312 309 307 306 305 308 301 300 297 293 289 284 296 301 300 299 301 302
302 303 305 305 305 305 304 305 307 308 309 317 324 318 311 301 306 304 304 304 307 310 310 310 310 313 315 312 305 300 301 300 300 301 301 303 300 293 292 290 294 295 297 296 296 296 301
303 304 305 305 305 304 303 306 307 307 309 316 324 326 317 309 305 306 304 305 307 308 308 306 312 315 312 311 305 296 294 297 296 299 301 299 300 297 292 289 286 296 299 303 302 293 302
303 304 304 304 305 304 305 306 306 307 309 315 325 328 315 306 309 309 305 304 309 310 309 308 307 307 310 306 299 299 297 300 294 293 292 295 296 293 293 292 295 300 300 303 291 295 303
303 304 304 305 305 305 305 306 306 307 308 313 326 330 317 309 312 313 311 309 309 310 308 310 307 308 308 302 303 302 300 300 298 299 296 295 294 293 295 289 287 301 301 296 304 305 305
302 304 304 304 304 305 305 305 305 306 307 310 324 327 329 317 316 320 319 319 317 317 315 312 310 310 311 308 306 308 297 293 300 294 301 295 300 299 297 298 303 304 303 306 307 305 306

GFSGBSN_sfc_thetae_018.txt.gz
Theta_e
318 319 320 321 324 325 325 324 322 321 320 320 319 319 318 317 317 317 315 315 316 316 316 315 314 313 313 312 313 324 330 325 316 315 313 310 306 305 302 305 305 303 306 308 312 312 312
316 316 318 319 321 324 325 324 322 321 320 320 319 318 317 317 317 315 316 315 315 315 316 314 313 312 312 307 320 324 321 317 313 313 313 310 308 309 306 304 303 306 307 307 309 310 312
316 316 316 317 320 320 324 322 322 321 320 319 319 318 317 317 317 316 315 314 315 315 314 313 312 312 311 310 321 323 318 314 316 315 310 312 313 309 309 305 308 307 302 305 307 308 309
315 315 316 316 317 319 320 321 321 321 320 319 319 318 316 315 315 315 314 314 315 314 313 312 311 313 308 321 323 320 321 317 317 316 314 316 316 311 308 311 306 302 303 297 304 307 309
314 314 315 315 316 317 319 320 320 320 319 319 318 318 316 315 314 314 314 314 313 313 312 312 312 314 310 320 315 317 319 316 316 316 316 315 313 308 308 302 299 300 294 297 300 307 306
313 313 314 315 315 316 318 320 320 319 318 318 318 317 316 315 314 313 313 313 313 311 312 315 315 309 316 310 315 314 318 317 313 313 311 310 308 304 304 300 292 294 295 297 298 302 305
312 313 313 313 315 315 318 319 320 318 317 317 317 317 315 314 314 313 310 312 310 309 312 308 310 309 310 314 317 313 316 314 314 310 304 307 301 298 301 303 302 300 298 297 300 304 302
311 313 313 313 313 315 316 319 320 317 317 317 317 316 315 314 314 313 313 312 316 320 310 313 309 312 314 315 308 311 315 308 308 303 306 302 298 303 305 304 302 300 298 297 300 302 301
310 311 312 312 313 314 315 317 319 317 316 316 316 315 314 314 313 312 313 313 321 320 310 311 309 309 311 313 307 307 311 309 305 302 302 299 302 306 303 302 299 299 298 298 298 300 301
309 309 311 312 313 313 314 315 317 317 316 315 315 314 313 312 308 317 313 317 318 322 302 304 305 309 311 312 305 312 313 309 306 302 302 302 306 303 301 299 300 297 303 301 300 298 293
308 308 309 309 311 311 312 313 315 317 316 315 314 313 312 311 318 313 322 321 325 322 290 305 306 315 312 306 306 308 314 310 303 302 304 300 301 301 299 301 304 299 304 302 301 298 298
306 307 307 308 309 310 311 312 313 315 315 314 313 313 312 312 314 318 324 330 324 303 289 300 306 304 304 305 305 308 308 310 309 303 305 302 307 306 304 305 305 306 303 303 301 299 290
304 305 307 307 308 309 310 312 313 314 315 314 313 313 312 318 313 324 325 324 301 292 302 299 300 303 302 301 302 303 303 301 299 295 297 300 301 305 307 301 305 303 298 291 289 289 290
303 304 306 307 308 309 310 311 312 313 314 313 312 312 312 317 322 326 325 310 292 297 299 302 302 302 299 302 301 301 301 298 302 301 297 295 294 302 305 302 299 301 298 293 282 284 291
301 303 305 306 308 309 309 310 311 312 312 312 311 313 313 316 320 323 313 298 297 300 302 301 300 297 298 301 301 300 299 298 301 303 296 294 295 305 306 306 304 298 297 302 295 293 292
301 303 304 304 305 308 308 309 310 312 312 311 312 309 310 320 322 316 307 299 302 306 304 303 296 299 296 299 298 299 299 302 301 305 305 300 292 303 304 305 305 302 304 296 297 287 285
301 302 303 303 304 305 307 309 310 312 312 311 312 305 316 323 321 310 300 302 305 308 307 302 299 298 299 299 299 298 299 303 305 306 307 303 300 299 303 300 297 300 297 298 297 298 291
301 302 302 303 303 304 307 308 310 312 311 309 311 299 320 324 302 303 303 305 305 306 308 306 305 302 300 302 299 299 298 302 309 307 301 304 300 298 298 304 305 303 301 299 296 292 296
301 301 301 302 303 304 306 307 309 311 311 310 305 308 322 320 296 300 306 305 306 305 306 306 303 305 305 302 298 301 301 309 310 306 303 305 299 293 295 301 304 300 300 301 301 300 294
300 301 301 302 303 303 306 306 308 310 310 311 307 300 310 314 307 304 304 302 302 308 306 307 305 306 303 301 303 300 302 306 309 308 302 308 301 296 293 296 301 298 299 299 298 295 294
300 300 301 302 303 304 306 307 308 310 310 309 310 304 309 301 304 306 307 304 301 301 307 308 304 303 303 300 301 301 304 305 307 302 305 305 297 299 299 300 300 300 299 299 297 298 293
300 300 301 301 302 304 305 306 308 309 309 306 305 306 310 306 307 306 305 304 302 303 305 304 304 304 305 302 303 301 304 306 304 306 305 306 300 301 299 300 300 297 299 299 298 298 298
300 301 301 301 303 304 304 304 306 308 309 305 311 315 311 305 305 305 305 306 304 306 308 308 307 306 304 308 311 312 313 312 309 307 305 305 303 298 293 296 295 290 297 298 299 300 299
300 300 301 303 304 305 304 304 306 307 308 311 314 317 306 302 304 305 307 306 305 306 307 309 311 308 311 315 314 312 310 308 309 307 310 303 301 298 294 290 285 295 302 301 299 300 301
300 300 302 303 304 304 305 305 304 305 307 311 319 315 309 300 307 306 308 307 307 308 309 309 312 315 317 313 305 300 302 299 301 303 303 306 302 296 291 290 293 295 298 297 296 296 301
301 302 303 303 304 304 304 304 304 305 305 310 315 319 317 308 307 309 306 308 305 309 309 308 314 319 316 314 307 296 294 296 296 298 302 300 304 300 293 290 286 298 300 303 302 292 301
301 302 303 303 303 304 304 304 303 304 305 309 310 318 316 308 312 310 306 306 310 312 308 309 308 308 313 307 296 301 299 300 295 294 291 295 297 291 293 291 295 300 301 303 291 295 304
301 302 303 303 303 304 304 304 303 304 306 308 309 317 315 310 312 314 314 309 310 312 307 311 308 309 312 303 302 304 300 303 300 299 296 295 294 291 296 288 286 302 300 296 305 308 306
302 302 303 303 303 303 303 303 305 306 307 308 305 315 323 319 315 322 320 320 318 316 314 314 311 310 312 308 307 309 294 293 298 295 303 296 301 300 297 297 306 305 304 307 308 307 306

GFSGBSN_sfc_thetae_021.txt.gz
Theta_e
317 316 318 319 319 321 323 325 323 321 321 320 320 319 319 318 318 317 315 314 314 315 315 316 315 314 309 307 310 323 327 327 315 311 308 307 305 301 297 298 299 298 300 309 309 310 310
316 316 316 317 318 320 321 323 323 321 320 320 319 319 318 318 317 317 315 314 313 315 315 316 314 313 305 304 320 324 318 313 310 308 309 310 305 304 301 300 298 302 301 309 310 309 309
315 316 316 316 316 317 320 320 322 322 321 320 319 318 318 317 317 316 315 314 313 315 315 314 313 310 306 305 315 315 317 310 309 309 307 309 308 305 304 301 307 303 299 301 306 309 308
315 315 316 315 315 316 317 319 320 322 321 320 319 318 317 316 315 315 314 314 314 314 315 314 313 307 304 319 315 314 312 310 311 311 311 312 311 307 303 306 303 298 297 293 301 307 308
315 315 315 315 315 315 316 316 318 321 321 320 319 318 317 315 314 314 313 313 314 314 314 313 306 306 307 321 314 316 315 313 312 311 310 313 308 303 304 298 294 296 289 294 298 304 304
313 314 314 314 314 315 315 316 317 319 320 319 318 317 316 315 314 313 312 313 314 312 311 311 310 303 309 310 314 313 313 314 311 310 308 306 301 297 297 294 288 291 292 293 295 299 301
312 313 313 314 314 314 314 316 317 318 319 319 318 317 316 315 314 313 310 308 303 304 305 304 305 306 309 312 314 309 312 310 310 306 299 301 295 292 296 299 299 298 294 293 295 300 298
311 312 311 313 313 313 313 314 314 317 318 318 317 317 316 314 313 313 308 305 309 309 304 311 308 308 310 312 306 309 311 305 305 299 303 297 294 300 303 302 299 297 296 294 297 299 295
310 311 311 311 313 313 313 314 314 316 317 317 317 316 315 313 313 310 307 308 314 312 303 309 312 308 307 311 305 305 307 304 302 300 300 295 300 305 303 300 298 298 295 295 294 295 293
309 309 309 311 311 313 312 313 314 315 317 316 315 314 313 312 307 310 307 313 313 311 296 302 307 306 308 309 303 309 309 305 303 300 300 299 304 302 301 299 299 293 301 299 298 294 287
307 307 308 309 310 310 311 311 313 314 316 316 314 313 311 312 309 309 315 319 314 311 284 302 305 312 309 305 304 304 310 306 300 301 300 297 300 299 299 299 300 297 300 299 299 294 295
307 307 307 308 309 309 310 311 311 312 314 315 314 313 312 310 310 310 314 316 318 298 285 300 304 302 301 304 304 304 304 307 308 302 301 299 304 302 301 303 301 304 300 299 297 293 284
306 306 306 307 307 308 308 309 310 312 313 314 313 313 311 314 308 316 314 313 294 285 301 298 298 301 300 299 300 300 300 297 294 292 293 298 300 302 305 299 301 301 293 286 284 283 282
305 305 305 305 305 306 307 308 310 310 312 314 312 311 312 312 316 316 316 304 289 296 297 302 300 300 297 299 298 299 297 294 297 296 294 293 289 299 303 298 298 297 295 286 281 281 287
304 304 304 304 304 305 307 307 308 310 312 312 311 310 310 311 313 314 309 294 291 298 299 300 299 295 295 298 298 297 295 295 297 297 293 292 294 303 305 305 301 296 292 298 291 292 287
303 304 303 303 304 305 306 307 308 310 311 311 309 307 307 313 314 311 303 295 299 304 305 302 295 296 292 295 296 295 294 298 298 300 303 299 292 300 303 305 302 298 299 290 290 282 280
303 303 303 302 303 303 305 307 308 310 311 311 309 302 308 314 314 307 293 296 302 307 306 302 298 295 296 295 296 294 296 299 301 303 304 300 297 296 301 298 294 295 293 294 293 288 282
302 302 302 302 303 302 304 305 307 309 310 309 307 296 310 315 298 298 294 300 302 305 308 305 303 299 296 299 296 295 295 304 305 304 300 301 296 288 296 301 302 298 297 297 284 285 285
301 301 301 302 302 303 304 304 307 308 310 306 302 303 313 309 291 292 297 301 304 304 304 303 302 302 303 298 296 296 301 307 307 303 299 301 292 283 288 295 300 295 297 296 297 290 285
300 301 301 301 302 301 303 303 306 307 310 308 303 295 305 306 300 296 294 297 299 306 305 306 304 304 300 298 300 298 300 306 306 304 301 303 297 290 284 290 296 293 296 296 293 283 284
299 300 300 300 301 302 303 303 304 307 309 307 303 297 304 297 298 296 298 299 299 299 305 306 302 301 299 293 296 296 302 302 305 302 302 300 291 293 296 298 298 296 297 297 293 293 287
299 299 300 300 301 302 303 303 303 306 308 303 300 298 304 299 302 299 297 298 300 301 302 300 301 301 300 296 299 296 302 301 299 301 299 301 292 292 290 297 296 293 295 295 295 295 293
299 300 300 301 301 302 303 302 302 306 308 301 303 307 305 300 299 297 296 300 301 303 304 304 304 302 299 304 305 306 306 307 306 301 297 297 290 287 285 291 290 283 290 294 295 296 294
300 300 301 301 302 302 303 303 304 306 307 304 304 307 302 295 299 297 300 303 302 303 302 305 306 302 307 311 308 306 304 306 306 305 305 294 292 286 282 283 275 291 298 296 295 295 295
300 300 300 301 302 302 302 303 305 306 308 303 305 307 305 289 300 299 301 303 306 307 304 307 310 310 311 307 297 293 288 288 294 300 302 302 290 285 281 281 287 291 295 294 292 291 296
300 300 301 301 301 302 302 303 304 305 307 304 302 306 307 301 299 303 301 305 301 300 302 307 310 311 311 300 289 286 284 290 289 294 300 297 293 285 282 279 275 289 296 299 297 285 298
300 300 299 301 303 302 303 304 304 305 305 304 303 308 304 304 306 305 301 303 307 303 300 304 303 302 308 288 288 284 285 297 288 287 285 284 284 281 278 277 285 298 298 299 283 286 299
300 299 299 301 302 303 303 304 304 304 304 303 301 306 307 306 306 310 309 307 308 305 297 306 300 300 294 291 288 287 284 288 288 295 290 286 284 281 283 282 281 300 297 289 296 298 299
300 301 301 301 302 303 303 304 304 304 304 304 299 307 312 305 308 314 314 315 314 313 307 306 303 303 303 295 293 290 286 288 287 283 298 287 292 287 289 287 298 298 298 302 300 298 298

GFSGBSN_sfc_thetae_024.txt.gz
Theta_e
316 316 317 317 318 319 320 321 323 322 321 320 320 319 319 320 319 318 316 315 314 314 315 316 316 315 308 305 308 321 327 327 315 310 305 304 303 302 296 297 297 295 301 306 308 310 309
316 317 316 316 316 318 317 320 320 322 321 320 319 318 318 319 318 317 316 315 314 314 315 315 315 313 305 299 318 321 316 312 309 306 307 306 305 304 299 298 296 300 305 305 308 308 308
316 316 316 316 316 316 316 318 319 320 322 321 320 318 318 318 317 316 316 315 314 314 315 315 314 309 304 300 316 316 313 308 306 307 304 308 307 303 303 300 304 301 300 305 307 306 305
315 316 316 316 316 315 315 316 317 318 320 321 320 318 317 316 316 315 314 313 313 314 315 314 313 306 300 315 313 312 311 309 309 308 308 309 309 305 303 303 301 296 298 294 303 306 306
314 314 315 315 315 315 315 315 315 317 319 320 320 318 316 315 314 314 313 313 313 314 315 314 305 305 303 318 313 316 312 308 308 308 308 311 306 302 301 296 292 293 287 291 298 306 304
314 314 314 315 314 314 315 315 315 316 317 319 319 318 316 315 314 313 312 313 313 312 311 311 309 299 306 306 313 312 311 312 308 307 306 304 299 296 295 292 286 289 289 289 293 297 301
313 311 314 313 314 314 315 315 315 315 316 318 319 318 316 315 313 312 310 306 303 304 303 300 299 301 305 310 312 308 310 309 308 304 297 300 293 290 293 296 299 297 294 290 292 298 296
312 312 313 311 311 313 314 314 313 314 315 317 318 317 316 315 313 313 308 303 306 306 300 309 308 307 309 310 303 307 310 303 303 297 300 296 292 298 302 302 298 297 294 293 295 297 295
311 311 312 310 311 312 313 314 312 313 314 316 317 317 315 313 312 309 305 306 313 310 300 306 311 309 310 307 303 304 306 303 301 298 297 292 297 303 302 300 297 296 294 294 293 293 294
310 309 310 311 311 312 312 313 312 313 313 314 316 315 313 312 306 308 306 312 312 310 294 299 305 309 306 306 301 308 307 303 300 298 297 296 301 300 299 298 298 291 298 297 296 291 286
309 309 309 309 310 309 310 311 312 312 313 314 315 314 311 312 307 308 312 313 310 309 278 299 305 311 305 302 302 302 308 304 298 299 297 295 297 297 297 297 299 295 299 297 296 292 290
306 308 308 308 308 308 309 309 310 311 312 313 314 313 311 310 308 307 312 313 313 292 282 299 303 300 299 301 302 302 302 305 305 300 299 297 300 300 299 302 300 301 298 297 295 291 283
305 307 308 308 307 307 307 308 309 310 311 312 314 313 312 312 305 312 315 312 293 287 298 297 297 299 298 297 299 299 297 295 294 290 291 295 297 300 303 297 299 299 291 284 283 281 281
305 307 308 307 307 306 306 308 308 308 310 311 313 312 312 312 311 312 315 304 287 293 296 301 299 298 295 297 297 297 295 292 294 294 291 290 288 298 303 299 295 295 292 284 280 279 285
305 305 307 307 306 306 306 307 307 307 309 310 312 310 310 311 311 312 307 293 289 296 299 297 297 294 293 297 296 295 293 293 295 295 290 290 291 301 302 303 301 295 290 295 289 289 285
304 305 305 305 305 305 305 306 306 307 308 310 307 307 308 311 312 309 301 293 296 303 303 299 293 295 290 293 293 292 292 296 296 298 300 296 290 298 302 303 301 298 298 289 288 282 280
303 304 304 304 304 304 304 305 306 306 307 309 305 300 309 313 311 301 293 294 299 304 305 301 297 295 294 293 294 292 293 296 298 300 302 299 293 294 300 297 295 294 291 292 292 286 281
303 303 303 304 304 304 303 304 305 306 307 306 302 294 310 313 295 296 295 298 299 302 305 304 303 299 294 295 294 293 294 297 302 302 297 299 295 286 294 300 300 297 294 293 283 284 283
302 302 302 303 303 303 303 303 305 305 307 302 297 300 310 308 289 290 297 299 300 299 302 302 300 302 300 296 292 295 297 304 304 302 299 299 291 283 287 292 297 294 295 296 293 286 284
302 302 302 303 303 302 303 303 304 305 307 303 299 293 301 302 300 292 293 295 295 301 300 303 302 303 299 296 298 296 298 303 305 303 302 301 293 288 283 287 292 290 294 295 292 282 284
301 301 302 302 302 302 302 302 303 304 306 303 299 295 298 291 294 294 294 296 294 294 302 303 300 301 298 292 294 294 300 300 303 301 301 298 290 291 292 295 295 293 293 294 292 291 285
301 301 301 301 301 301 302 303 302 304 306 299 296 298 300 296 297 294 294 293 293 296 299 298 299 300 299 294 296 294 300 298 297 299 297 298 290 290 289 293 293 291 293 293 293 293 292
301 300 300 300 301 302 302 302 302 303 303 298 300 303 302 296 296 293 292 294 294 297 300 301 301 300 297 299 302 302 304 304 302 298 295 294 289 285 284 288 288 283 289 291 293 293 293
300 300 300 300 301 302 302 302 303 303 302 303 302 302 299 292 297 295 296 296 295 298 297 302 302 300 303 307 304 302 301 303 304 302 302 291 288 284 281 281 276 291 295 295 292 292 294
300 300 300 300 301 301 302 302 302 303 303 300 305 301 300 289 298 299 298 296 298 300 301 302 305 306 309 303 294 291 287 290 294 299 300 301 289 284 280 280 286 290 293 291 290 289 294
299 300 300 300 301 301 301 302 302 302 303 302 302 304 301 295 296 302 299 298 295 297 298 303 308 309 308 295 288 285 283 287 287 292 297 295 290 286 281 278 275 287 294 297 295 284 296
299 300 300 300 300 301 301 301 302 302 303 303 301 304 300 296 304 304 298 297 300 300 298 302 303 302 303 288 285 283 284 293 286 285 284 283 282 280 275 276 282 293 297 296 283 284 297
300 300 300 300 300 301 301 302 301 303 305 304 302 306 301 299 302 308 304 300 302 303 297 301 300 300 293 289 288 285 282 288 287 291 288 285 282 278 283 278 279 298 295 288 291 296 297
299 300 300 300 301 301 301 301 301 303 305 305 299 306 307 300 302 309 308 309 308 308 305 302 301 302 303 295 291 289 285 284 285 283 295 286 289 285 287 286 295 296 297 300 298 297 297

GFSGBSN_sfc_thetae_027.txt.gz
Theta_e
316 316 317 317 317 318 318 320 320 321 322 321 320 320 320 320 320 319 317 316 316 315 315 314 316 315 307 300 302 318 327 326 319 308 304 302 301 299 295 295 295 294 296 298 307 308 307
314 316 316 317 316 316 315 318 319 318 320 321 320 319 319 319 319 318 316 315 315 314 314 314 315 314 303 292 313 319 317 312 308 304 303 303 303 303 299 296 295 298 301 304 306 306 308
314 315 316 316 316 316 316 315 316 318 318 321 321 319 318 318 318 317 316 315 314 314 314 314 314 309 302 296 314 313 313 308 305 305 304 306 306 302 301 298 303 301 301 304 304 305 304
315 315 315 315 315 315 315 315 315 316 318 319 321 320 317 317 316 315 314 314 313 314 314 314 312 304 300 310 311 311 309 308 307 306 305 306 306 303 300 301 300 295 296 293 300 305 306
314 315 315 314 315 315 315 315 315 315 316 317 319 319 317 315 315 314 313 313 313 314 314 314 303 303 301 314 310 315 311 307 307 306 306 309 304 300 299 294 290 291 287 290 298 306 303
314 314 314 314 313 314 315 315 314 315 315 316 317 318 318 315 314 313 312 313 313 311 310 311 308 296 301 303 310 311 310 309 306 305 304 302 297 294 293 291 285 288 289 288 291 299 301
314 314 313 314 314 314 314 314 314 314 315 315 316 318 318 316 314 312 309 305 302 303 304 297 296 296 301 308 309 307 309 308 306 302 295 298 293 289 292 294 295 294 292 291 292 296 298
310 312 313 313 313 314 312 313 313 313 314 314 315 316 317 315 314 312 307 301 304 306 298 306 306 304 307 309 304 304 308 302 301 296 298 294 291 296 299 298 298 297 293 292 295 295 295
309 310 312 312 312 312 312 311 312 312 312 312 313 316 316 314 312 309 303 305 312 310 296 302 308 307 308 309 304 301 305 302 298 296 296 291 295 300 299 297 295 294 292 292 293 291 293
308 309 309 311 312 312 312 311 311 312 312 312 312 314 314 312 306 307 306 312 312 309 292 296 304 307 309 305 300 307 305 303 299 296 296 294 299 298 297 296 296 291 296 295 294 289 285
307 307 308 309 310 310 309 310 311 311 311 312 312 313 312 312 306 307 311 312 310 307 277 295 303 311 304 300 300 302 305 302 296 297 296 294 296 295 295 296 297 293 297 295 294 290 288
306 306 306 308 308 309 309 309 309 309 311 311 312 313 312 310 307 308 310 314 311 289 279 294 303 298 297 299 299 300 301 303 301 298 297 295 299 298 297 300 299 298 296 294 292 289 282
305 305 305 306 307 309 309 308 309 308 309 310 311 313 311 312 304 311 313 312 293 282 295 295 296 297 295 295 296 298 295 295 293 289 289 293 295 298 301 296 297 296 290 283 282 281 280
306 305 305 305 306 307 308 307 307 308 308 309 310 312 312 312 311 310 315 303 287 292 293 301 297 296 293 296 295 296 293 291 293 292 289 288 286 296 300 296 293 293 290 283 279 278 283
307 306 305 305 305 306 307 307 307 307 308 309 309 309 310 312 312 309 307 292 288 293 299 294 295 292 291 295 294 294 292 291 293 295 289 288 289 299 301 302 299 295 289 293 287 285 283
307 306 305 305 304 306 307 306 306 307 307 308 301 302 306 314 312 306 299 293 296 300 302 300 291 293 289 292 292 291 291 294 294 296 297 294 288 296 300 300 300 296 297 287 287 281 280
307 306 305 304 304 306 307 306 306 306 306 307 300 297 306 313 311 299 290 293 298 303 303 299 296 293 293 291 292 290 291 294 296 295 298 296 291 290 297 294 293 293 290 290 290 285 280
306 306 305 304 304 306 306 306 305 305 306 304 298 290 308 312 297 295 290 295 299 300 302 302 302 299 294 293 292 291 291 295 298 300 295 297 291 284 291 297 298 295 293 291 282 283 281
306 306 305 304 304 305 305 305 305 305 305 299 293 297 308 307 291 290 294 296 299 298 298 299 299 300 298 293 289 293 294 300 301 299 296 297 290 282 287 292 294 292 293 294 290 285 283
305 305 304 304 304 304 304 304 304 304 305 300 295 290 299 301 299 294 291 293 295 301 299 300 299 301 298 294 295 293 295 301 302 300 301 299 291 288 284 288 291 288 292 293 291 282 283
305 305 304 303 303 303 304 304 303 303 304 299 295 292 295 291 292 295 294 293 293 294 299 298 295 298 297 291 292 292 297 298 300 300 298 297 290 289 290 291 293 292 292 292 290 289 285
305 304 303 303 303 302 303 303 303 303 304 295 291 294 299 293 296 294 294 292 292 296 296 294 293 298 297 294 294 292 297 296 296 297 295 296 287 289 288 291 291 289 292 292 291 291 290
305 304 303 302 302 303 303 303 302 303 303 294 298 300 299 294 293 292 291 292 293 298 298 299 299 298 296 298 300 298 300 300 300 297 293 292 288 285 283 286 286 283 287 290 291 292 292
305 303 302 302 302 303 302 302 302 303 302 300 299 299 296 289 293 292 293 295 294 296 294 298 298 297 300 305 302 301 299 299 302 299 298 289 287 283 281 282 276 290 293 293 291 290 291
303 303 302 302 302 302 301 301 302 302 302 296 301 298 297 287 294 295 294 294 296 297 296 296 300 301 305 300 293 291 286 290 292 296 298 296 286 282 281 280 285 289 291 291 289 288 292
302 302 302 301 301 301 301 301 302 302 302 297 297 302 298 294 292 299 295 296 292 292 293 298 301 306 303 293 287 285 284 288 286 291 295 292 290 286 279 278 277 287 292 295 294 284 294
301 301 301 301 300 300 300 301 301 302 303 300 297 301 299 293 301 301 296 295 298 294 292 297 302 301 302 285 282 283 282 292 285 285 284 283 282 281 276 277 282 290 295 294 283 285 295
300 299 300 300 300 300 300 301 301 302 303 300 297 304 299 294 297 304 303 299 299 297 292 297 300 299 289 289 287 283 282 287 285 289 287 286 282 278 278 276 279 294 294 287 290 294 296
299 299 299 299 299 300 300 301 301 301 302 302 296 305 306 298 298 304 303 304 304 303 301 300 300 300 299 293 290 287 283 281 285 283 292 285 288 285 286 285 293 295 293 295 297 296 295

GFSGBSN_sfc_thetae_030.txt.gz
Theta_e
315 314 316 317 317 316 316 316 318 319 319 320 321 321 321 321 320 319 317 316 316 315 315 315 315 315 307 297 297 317 327 326 316 308 303 300 299 297 293 293 293 292 294 298 304 307 307
315 314 315 315 316 315 315 316 316 317 317 318 319 320 320 320 319 318 317 316 315 315 314 314 315 314 303 291 308 317 316 309 308 304 301 301 301 301 298 296 293 296 297 301 305 306 307
313 315 315 315 315 316 315 315 315 315 315 317 318 319 319 319 318 317 317 315 314 314 314 314 314 309 302 296 311 310 311 307 306 304 302 304 305 300 299 296 300 300 299 302 303 303 303
314 314 314 314 314 313 314 315 315 315 315 315 317 318 318 318 317 316 315 314 314 314 314 314 313 305 299 308 309 311 308 307 305 305 303 304 304 301 298 299 297 293 295 290 302 304 304
314 312 313 313 314 314 314 312 314 315 315 315 315 315 316 317 316 315 314 314 313 314 314 314 304 304 296 310 306 311 310 306 305 304 304 307 303 298 297 293 289 290 285 289 296 305 302
311 312 313 313 312 314 313 314 312 314 314 314 314 315 315 316 315 314 312 313 312 311 311 311 308 296 297 300 307 309 309 308 305 303 302 300 296 293 292 290 284 287 287 287 290 299 300
309 311 311 314 313 313 313 313 313 313 313 314 314 315 315 316 316 313 308 304 299 300 303 299 295 294 297 306 309 305 308 307 304 301 294 297 292 288 291 293 293 293 291 289 291 295 299
310 309 310 311 313 312 313 313 312 312 312 313 314 313 314 316 315 312 306 300 303 304 298 304 304 302 304 309 304 305 308 301 299 294 296 294 290 295 296 296 295 294 291 291 293 294 296
308 309 309 310 310 311 313 312 312 311 312 312 312 312 312 315 313 309 302 303 311 309 297 300 305 304 305 308 303 303 303 300 297 294 294 291 293 298 297 295 294 292 291 291 291 291 290
307 308 308 309 310 311 312 311 311 311 311 311 311 311 311 313 307 304 302 310 312 309 291 294 301 305 307 307 300 306 304 302 297 295 295 293 297 297 295 294 295 289 295 293 292 288 284
307 307 307 307 308 308 309 310 310 310 310 310 310 311 311 312 304 304 309 310 309 305 276 295 301 310 306 300 299 301 304 301 295 296 295 293 294 294 293 294 296 293 295 293 293 289 287
307 307 307 307 307 307 308 309 309 309 309 309 309 310 311 311 309 306 310 311 309 290 277 291 301 299 297 298 298 298 299 301 299 296 295 294 297 296 295 297 297 297 294 292 291 288 282
307 307 307 307 306 307 307 308 309 308 309 309 309 310 311 313 306 308 312 308 294 283 293 291 296 296 294 293 295 295 294 294 291 288 288 291 293 296 298 293 296 293 288 282 281 281 281
307 307 307 307 306 306 306 307 308 308 309 308 308 309 310 312 312 307 312 300 285 290 291 298 297 294 291 293 293 294 292 290 291 291 288 287 285 295 298 295 292 291 290 282 278 277 281
307 307 307 307 306 306 305 306 307 308 308 307 308 303 305 309 312 310 304 289 287 291 297 294 294 290 290 293 293 292 291 290 292 294 288 286 287 296 298 299 295 292 287 291 285 284 282
307 307 307 307 306 306 305 305 306 307 307 307 301 300 299 312 313 307 297 290 294 297 301 300 289 292 287 290 290 291 289 293 292 296 296 293 286 294 297 298 297 293 295 287 285 281 279
307 307 307 307 306 305 305 305 306 307 306 307 300 294 298 312 311 300 289 291 295 302 302 298 296 293 291 290 291 289 290 292 295 293 295 293 289 288 295 293 291 291 289 288 289 284 280
306 306 306 306 306 305 305 305 305 306 306 303 297 287 305 310 295 295 291 293 297 300 303 300 300 298 295 292 290 290 290 293 296 297 293 295 289 282 290 294 296 293 291 290 282 283 281
305 306 306 306 306 305 305 304 305 306 305 298 291 293 306 304 287 290 294 295 296 297 298 298 297 299 297 292 288 291 292 296 298 296 294 296 288 281 285 289 292 291 292 291 288 284 282
304 305 306 306 306 305 304 304 305 305 305 299 292 285 296 299 297 292 291 292 291 300 298 299 297 299 296 294 293 290 292 298 299 297 300 299 290 287 284 286 290 288 291 291 290 282 283
303 304 305 305 306 305 304 304 305 305 304 299 293 288 295 289 290 292 293 292 291 291 298 299 295 296 295 291 290 291 295 296 298 300 296 295 288 288 289 290 291 291 291 290 289 288 285
303 303 304 305 305 304 304 304 305 304 304 296 289 290 296 294 292 292 293 291 291 293 295 294 293 295 296 293 293 290 295 294 294 296 294 294 288 287 287 290 290 289 290 290 290 289 288
302 303 304 305 305 304 304 305 304 303 303 293 294 295 295 292 291 289 290 291 292 296 297 298 297 295 293 296 300 298 298 298 297 295 292 291 287 285 284 286 286 283 287 290 289 290 291
303 303 304 304 305 304 304 304 302 302 302 293 293 297 293 288 291 289 291 293 293 295 294 298 299 295 297 304 301 299 297 298 299 297 295 287 286 284 280 281 276 289 292 291 290 290 290
303 303 304 304 304 303 303 303 302 302 302 295 296 295 293 287 291 293 292 291 295 296 296 297 299 300 304 301 294 291 287 288 290 294 294 293 286 282 281 280 284 288 290 289 289 288 291
303 303 304 304 303 303 302 303 303 303 302 297 294 298 296 290 290 295 294 293 290 291 292 295 301 303 302 295 287 285 285 288 286 289 293 290 288 286 278 278 277 287 292 293 292 284 292
302 302 304 303 302 302 302 302 302 302 303 298 296 299 295 289 296 296 293 292 295 293 289 293 298 298 300 284 283 283 285 291 285 286 284 283 282 281 275 276 283 290 292 293 283 286 293
302 303 302 302 301 301 301 302 302 302 302 298 295 300 295 293 295 299 300 295 296 295 290 294 298 296 287 288 286 286 282 287 285 288 288 287 283 279 279 276 280 292 292 287 291 291 293
302 301 301 301 301 301 301 301 301 302 302 299 292 298 300 296 297 302 301 301 300 300 297 296 294 297 297 292 288 286 283 280 285 283 291 286 289 286 287 286 293 293 292 294 294 294 294

GFSGBSN_sfc_thetae_033.txt.gz
Theta_e
314 315 315 314 313 314 315 315 316 315 317 317 318 319 321 323 321 320 318 317 316 316 315 315 316 316 310 300 297 321 327 325 319 311 305 303 303 302 299 299 298 297 299 300 301 309 309
314 314 314 315 314 313 313 315 315 315 315 315 316 317 319 321 321 319 318 317 316 315 315 315 315 314 305 294 313 320 318 313 312 308 305 306 305 305 302 300 298 300 300 305 308 309 309
315 314 314 314 314 314 312 312 314 315 315 315 315 316 317 319 320 319 318 316 315 315 315 315 315 309 303 298 313 317 313 310 310 307 304 306 308 305 304 301 303 303 302 305 306 308 306
311 312 314 314 313 313 314 312 311 313 314 315 315 314 315 315 317 317 316 315 315 315 315 315 313 307 299 309 312 312 312 311 309 309 307 308 309 305 303 304 301 298 299 295 303 306 306
310 310 313 313 313 313 313 314 313 310 314 314 314 314 313 314 315 316 315 314 314 314 314 314 307 306 297 310 305 311 312 309 306 306 307 308 307 303 302 298 296 296 292 293 299 307 305
309 310 310 312 312 313 313 313 313 312 310 313 313 314 313 314 314 315 313 313 313 311 312 311 308 299 299 301 308 312 312 310 307 306 305 304 302 299 298 297 290 292 293 295 295 303 304
308 308 308 310 310 313 314 313 313 313 312 313 313 313 314 313 315 314 310 307 301 301 305 302 300 296 297 306 311 307 311 309 308 305 300 301 298 294 296 297 297 297 295 294 297 299 302
310 309 308 308 310 311 311 313 312 312 312 312 312 312 312 312 314 313 309 302 303 306 299 305 305 302 304 309 304 308 311 305 304 299 300 298 295 298 298 298 297 297 295 294 296 297 300
309 309 310 309 308 309 311 311 312 311 311 311 311 311 311 310 313 311 306 305 311 311 300 302 304 304 305 308 303 304 308 303 301 297 298 296 297 299 298 297 296 296 295 294 294 295 296
308 308 309 309 309 309 309 310 310 311 310 310 309 311 310 311 309 308 304 310 312 311 291 293 299 304 307 308 301 308 307 305 301 298 298 298 300 298 298 296 297 294 298 296 295 293 289
308 308 308 308 308 308 308 308 309 311 310 310 309 310 309 311 306 304 309 311 311 307 280 295 301 310 307 302 301 302 306 304 299 298 299 297 297 297 297 297 299 297 299 297 296 293 293
308 308 308 308 308 308 307 307 307 308 310 309 309 309 309 309 309 309 311 314 310 291 280 291 301 300 300 300 300 300 302 305 303 299 298 298 301 300 300 300 300 300 298 295 294 293 288
308 308 308 308 307 307 307 307 307 307 308 309 309 309 308 310 305 312 313 308 292 284 294 291 296 297 297 295 296 297 298 297 295 292 292 295 297 300 302 298 300 298 294 289 286 287 286
308 308 308 308 308 307 307 307 306 307 308 309 308 307 307 308 314 311 312 298 284 290 291 297 297 296 294 295 296 296 295 294 296 295 291 291 289 297 301 299 297 296 295 289 282 283 286
308 308 308 308 308 307 307 307 306 306 307 308 307 304 304 306 310 310 303 288 288 292 296 294 295 292 291 294 295 295 294 295 296 297 292 290 290 299 301 302 300 295 293 295 289 288 288
308 308 308 307 307 307 307 306 306 306 306 307 301 299 298 307 310 306 296 289 293 298 300 300 289 293 290 291 292 293 292 295 295 297 300 296 290 297 300 302 301 298 299 292 291 284 282
307 307 307 307 307 307 307 306 306 306 306 307 299 292 300 307 308 299 287 290 294 300 301 298 297 294 293 291 293 291 293 295 297 295 298 297 295 292 298 297 295 295 294 293 293 290 286
306 307 307 307 307 307 307 306 306 305 306 303 296 286 301 305 290 294 289 293 297 297 302 300 301 299 297 294 292 292 292 296 298 298 295 299 295 289 293 297 299 297 296 295 291 287 287
305 306 306 307 306 306 306 306 305 305 306 299 289 292 301 301 285 287 292 293 296 296 297 298 298 300 301 296 290 293 294 298 298 298 297 298 292 287 289 293 297 296 296 294 292 290 287
304 305 305 306 306 306 306 306 305 305 306 300 292 285 293 295 294 291 290 290 291 298 297 300 299 300 298 296 297 293 293 298 299 299 300 300 293 291 287 291 294 292 293 294 295 289 290
303 303 303 303 305 306 306 306 305 305 305 298 292 288 292 285 288 291 292 291 290 291 296 299 296 297 296 292 293 292 296 299 300 300 299 300 292 292 292 292 294 294 294 293 292 294 292
303 303 303 302 303 304 306 305 304 304 304 295 288 289 292 291 291 289 291 290 290 292 294 293 293 296 297 295 295 293 298 297 297 298 297 297 292 291 290 292 292 292 294 294 293 292 293
303 302 302 303 303 304 305 305 304 304 303 294 295 295 293 291 290 288 286 290 291 295 296 297 298 296 295 297 301 301 301 302 301 299 295 295 291 289 287 289 291 287 291 293 294 295 295
302 302 302 303 304 304 303 304 304 304 303 298 295 295 290 285 290 289 290 290 292 294 293 296 299 296 299 304 304 303 300 300 300 298 299 292 291 289 286 286 283 294 296 296 295 295 296
302 302 302 303 303 304 303 304 303 303 304 297 296 295 292 285 290 291 291 290 293 296 295 296 299 302 305 302 295 291 291 292 293 295 296 296 291 286 286 286 289 291 293 294 293 295 297
303 303 303 303 303 303 303 304 303 303 304 297 295 298 296 289 288 294 292 292 289 291 293 296 302 304 302 295 290 286 286 290 290 292 294 292 292 293 284 285 283 293 296 297 297 290 297
302 303 302 303 302 302 303 303 303 304 303 297 295 299 296 290 293 296 292 292 295 294 292 295 297 298 301 289 287 287 288 294 289 288 288 288 288 288 283 287 289 295 296 297 289 293 298
302 302 302 302 302 302 303 302 303 303 303 298 295 299 294 291 294 297 298 295 295 295 290 294 295 296 292 288 289 289 287 291 290 292 290 290 288 287 285 286 286 296 294 293 299 297 299
302 302 302 302 302 303 302 302 302 302 303 300 294 300 299 293 293 300 301 302 300 301 297 298 296 295 296 293 291 289 288 287 290 288 293 291 294 291 293 294 300 297 300 299 298 299 298

GFSGBSN_sfc_thetae_036.txt.gz
Theta_e
315 315 314 314 314 314 313 314 316 315 316 316 315 316 317 319 321 321 319 318 318 317 317 316 316 316 314 306 304 322 329 324 320 314 311 309 307 307 303 304 305 302 305 306 308 307 312
312 314 315 315 314 314 314 314 314 315 315 315 315 315 316 317 319 320 319 318 317 317 316 316 316 315 310 300 315 323 321 318 316 313 310 311 309 310 306 305 304 305 306 309 309 311 313
311 311 313 314 315 314 313 314 313 313 314 314 315 315 315 315 316 317 318 318 316 316 316 316 315 313 307 305 316 322 317 315 315 313 309 311 312 309 308 305 307 306 305 307 309 311 310
310 311 311 311 313 314 313 313 313 313 312 313 314 314 314 313 314 315 316 316 316 316 316 315 314 312 304 312 316 317 318 315 315 315 312 312 312 310 308 309 306 303 305 298 306 309 310
309 309 310 311 311 312 313 313 312 313 313 312 313 313 313 313 313 314 315 316 315 315 314 314 312 310 303 312 309 313 318 313 314 313 312 311 311 309 307 302 301 302 297 297 302 309 309
310 309 310 310 311 311 312 312 313 312 312 312 311 311 312 313 313 313 314 313 315 312 314 314 311 304 306 302 309 315 316 315 311 310 308 308 309 304 303 301 294 296 297 299 301 307 308
309 310 310 310 310 311 310 311 312 313 312 312 311 311 311 312 312 313 315 318 311 308 310 307 306 304 301 309 315 313 316 312 313 310 304 307 302 298 300 302 302 300 298 297 301 305 304
310 310 309 310 311 311 308 310 310 311 312 312 312 310 311 312 311 313 317 311 310 311 302 309 308 308 310 308 305 311 316 309 308 303 306 303 299 302 302 303 302 301 298 298 301 302 302
309 310 310 310 310 311 310 310 309 310 311 312 311 310 310 310 311 313 315 314 317 315 305 305 309 307 307 309 304 307 312 310 306 303 303 301 302 304 302 302 300 301 299 298 298 300 302
309 309 309 309 310 310 310 310 309 309 309 310 310 310 310 309 308 314 311 316 317 316 298 296 301 306 308 309 304 311 312 309 305 302 304 303 305 302 302 300 302 297 302 300 299 298 294
309 309 309 309 309 309 308 309 309 309 309 310 310 309 309 309 307 310 313 318 317 314 283 298 302 312 309 304 304 305 313 309 303 302 303 300 302 301 300 301 303 299 303 301 300 299 297
308 309 309 309 309 308 308 308 308 308 308 309 310 309 309 309 308 313 316 319 315 296 283 294 303 302 302 304 303 305 306 309 309 304 304 303 306 305 303 304 304 305 302 301 301 299 292
308 308 309 309 308 308 308 308 308 308 307 308 309 309 308 308 304 316 318 313 295 287 295 293 298 302 300 299 300 302 301 301 299 296 297 301 301 304 305 302 304 303 300 292 290 290 289
308 308 308 308 308 308 308 308 307 307 307 307 308 308 308 307 310 312 311 301 286 290 292 299 300 300 297 298 299 300 299 298 302 301 297 294 292 300 304 303 300 300 300 293 284 286 290
309 308 308 308 308 308 308 307 307 307 307 307 308 304 307 307 310 308 301 288 287 291 297 295 297 296 296 297 298 299 298 298 301 302 296 295 294 302 304 305 304 300 296 301 294 295 292
308 308 308 308 308 308 307 307 307 307 307 307 303 299 301 310 311 303 293 290 292 297 299 299 292 296 294 296 294 297 296 300 300 303 305 300 293 301 303 306 305 302 304 295 297 287 285
308 308 308 308 307 307 307 307 307 307 307 307 301 292 301 310 309 294 286 292 295 299 302 299 297 295 296 297 296 296 296 298 303 302 305 302 299 298 302 300 299 300 298 299 298 296 289
307 306 307 307 307 307 307 307 307 307 306 304 297 286 305 306 290 291 288 295 297 297 303 302 303 301 297 297 297 296 295 298 304 305 299 303 300 294 297 302 304 303 300 300 294 291 294
305 305 305 306 307 307 307 307 307 306 306 302 292 292 304 301 285 287 293 294 297 296 297 300 300 303 304 300 295 297 297 304 304 303 301 303 297 291 293 297 301 298 300 300 299 298 293
303 304 304 303 306 307 307 306 306 306 306 302 291 285 293 295 296 292 291 291 291 298 298 300 301 303 302 300 300 296 296 300 303 304 302 303 299 295 290 294 298 296 298 300 299 294 294
303 303 303 304 304 305 306 306 306 306 305 300 292 289 293 284 289 292 294 292 289 290 297 300 299 300 300 296 297 297 297 300 300 300 303 304 295 297 297 298 298 297 297 298 297 298 295
303 303 303 303 304 305 306 306 306 306 305 296 289 292 295 293 292 290 291 292 291 292 295 294 296 300 301 297 298 296 299 300 299 302 302 303 296 298 295 298 297 295 298 298 299 299 299
302 302 303 303 303 304 305 305 306 305 304 294 299 299 297 292 292 290 288 292 292 294 296 298 298 298 298 299 303 303 303 302 302 302 301 300 299 295 291 296 295 291 296 298 299 301 301
303 303 303 303 303 303 304 304 305 305 303 301 299 299 294 289 292 290 290 293 293 295 294 297 300 298 302 307 305 304 303 302 303 304 305 300 298 298 293 291 286 297 303 303 300 302 303
302 303 303 303 303 303 303 304 305 304 303 301 302 299 295 289 292 292 291 291 293 296 296 297 300 304 307 302 296 292 295 297 299 303 302 304 300 294 292 290 295 296 298 299 299 299 305
302 302 303 303 303 302 302 303 304 304 303 301 300 304 300 293 291 295 293 292 290 293 295 297 303 310 306 300 295 288 285 290 293 296 299 299 300 299 291 289 288 298 303 305 304 295 305
301 302 302 302 301 301 300 302 304 304 303 300 302 307 300 293 296 296 293 292 296 294 294 297 300 301 304 296 293 291 289 294 289 292 291 293 294 293 293 293 296 302 303 304 294 298 306
302 302 301 301 301 301 302 301 304 303 303 301 299 305 302 296 297 299 299 296 296 297 294 299 299 300 299 293 294 294 293 295 294 296 295 294 293 292 295 292 290 303 300 298 306 308 308
301 301 301 301 302 302 301 302 303 302 303 302 296 304 306 299 297 301 301 301 301 303 301 303 299 299 299 296 298 299 295 293 296 291 299 294 299 297 298 298 307 305 307 308 310 308 306

GFSGBSN_sfc_thetae_039.txt.gz
Theta_e
312 313 314 316 315 314 314 315 315 315 315 315 315 315 314 314 316 319 319 319 319 319 318 318 317 317 317 310 309 326 329 324 318 317 312 309 308 308 305 305 307 305 306 308 310 310 311
311 312 312 313 313 315 314 315 315 314 313 314 315 315 315 314 315 316 317 318 318 318 318 318 317 315 314 304 315 323 322 317 317 314 313 313 312 312 309 307 306 307 307 309 310 311 314
310 311 311 312 313 312 312 314 314 313 313 313 313 314 314 314 314 315 315 316 317 317 317 317 317 316 309 308 316 322 320 317 317 316 312 314 315 311 311 306 310 308 305 308 309 311 311
310 310 310 312 312 312 312 313 314 313 313 313 313 313 313 313 313 314 314 315 315 317 317 316 316 315 306 316 317 318 320 315 316 317 315 316 316 313 310 311 308 304 306 301 306 309 311
310 310 310 311 311 312 312 312 313 313 313 313 313 312 312 312 313 313 313 315 316 317 315 314 313 311 305 314 309 315 321 314 314 315 316 314 313 310 310 304 301 303 297 301 302 309 309
309 311 312 312 311 311 312 312 312 313 313 312 312 312 311 312 312 312 311 314 317 313 315 318 315 308 310 306 310 311 321 318 313 312 309 309 309 305 305 302 294 297 298 300 301 306 308
309 309 310 311 311 312 310 311 311 311 311 313 312 312 311 311 312 311 313 318 312 312 313 307 308 305 305 310 315 312 315 315 313 310 303 309 303 300 302 304 303 303 300 299 302 308 305
310 309 309 310 311 311 310 311 310 310 311 312 312 312 311 311 311 311 315 310 311 313 303 309 309 310 312 310 307 309 316 309 308 303 306 305 301 305 306 304 302 302 300 299 302 304 304
310 310 310 310 311 311 311 311 311 310 310 311 311 312 311 310 311 310 313 313 320 318 303 304 309 308 308 311 305 307 313 310 306 304 304 302 304 306 303 301 300 301 299 300 299 303 305
309 309 310 310 310 310 311 310 310 310 310 310 309 310 310 310 306 310 311 317 319 320 298 298 304 307 310 309 304 311 314 310 307 303 304 304 307 303 301 300 302 297 303 302 300 299 295
309 309 309 310 310 309 309 309 310 310 309 309 310 308 310 308 308 310 316 321 321 318 284 300 303 313 309 304 304 306 314 310 304 303 305 302 303 302 300 301 304 300 305 302 302 300 299
309 309 309 309 309 309 309 309 309 309 309 309 310 310 309 308 309 310 314 320 318 296 284 296 304 302 303 304 303 307 307 311 310 305 305 304 308 306 304 305 305 306 303 303 303 300 293
309 309 309 309 309 309 309 309 308 308 309 309 308 309 308 309 304 313 312 311 293 286 296 294 297 302 302 300 301 303 301 302 299 296 298 301 303 306 307 302 305 304 300 292 291 291 291
309 309 309 309 309 309 309 309 308 308 308 308 307 308 308 307 311 312 305 298 285 290 292 300 299 302 298 300 300 301 300 298 303 302 299 295 294 302 306 303 301 301 300 294 284 289 291
309 309 309 309 309 308 308 308 308 308 307 307 307 307 305 308 312 311 295 286 289 292 296 296 299 297 298 299 299 299 299 298 301 302 296 296 296 305 305 306 305 301 297 303 296 298 293
308 308 308 308 308 308 308 308 308 308 307 307 304 302 302 309 311 304 291 287 293 296 297 298 293 298 295 298 296 298 298 301 300 304 305 301 295 302 304 306 306 303 306 296 297 288 287
307 308 308 308 308 308 308 308 308 308 307 307 302 294 303 308 310 295 284 291 296 299 299 295 295 295 297 298 299 297 298 301 303 303 304 302 299 299 303 301 299 300 300 301 300 297 290
306 306 307 307 308 308 308 308 308 307 307 304 298 289 305 308 290 292 286 294 296 298 300 298 301 299 297 298 298 297 297 301 305 305 299 303 300 295 298 304 305 303 301 301 295 293 296
306 306 307 307 307 307 308 307 307 307 307 301 292 293 308 305 284 289 292 292 295 295 297 297 297 301 303 299 296 300 300 304 305 304 302 304 299 293 294 300 303 301 303 303 302 301 295
304 304 304 306 306 306 307 307 307 307 307 302 292 286 294 296 297 293 290 291 290 296 296 299 297 300 299 299 302 298 300 303 306 305 304 305 300 296 292 295 300 297 299 301 300 296 295
304 304 304 304 305 305 305 306 307 307 306 301 293 291 293 285 290 294 294 292 290 290 297 299 297 296 297 295 296 298 301 302 303 302 304 304 297 298 299 299 299 299 299 299 298 299 295
303 303 303 303 303 304 304 304 305 307 306 298 288 293 296 293 293 292 292 291 290 292 294 295 295 297 299 296 298 297 300 301 299 302 301 305 297 299 296 299 298 296 299 299 299 299 299
302 302 302 303 303 304 304 304 304 306 305 296 296 301 296 293 291 291 292 292 291 294 296 298 297 297 297 300 303 305 306 304 304 302 301 301 299 296 292 297 297 293 297 298 299 301 300
302 302 302 303 303 303 304 304 304 305 305 298 299 299 295 289 292 292 292 294 293 294 294 297 299 298 302 308 307 305 301 302 302 302 304 300 299 299 294 295 287 297 303 303 300 301 303
303 304 304 304 303 303 303 303 303 304 306 299 302 300 296 291 293 292 293 293 295 295 295 296 298 302 306 304 297 292 293 295 298 301 301 303 301 296 292 292 295 297 301 301 300 299 305
303 303 303 304 303 302 302 303 303 303 305 301 303 306 300 294 292 296 293 295 292 293 295 297 303 306 306 300 295 287 285 290 289 293 299 301 304 299 295 290 287 297 303 307 306 296 306
303 302 302 303 303 303 302 303 303 303 304 301 302 307 302 295 297 298 294 294 297 295 294 298 299 302 306 298 292 289 288 294 287 291 290 294 295 294 294 293 296 302 305 308 295 297 307
301 302 302 303 301 302 302 302 302 300 303 301 301 308 303 297 298 299 301 298 297 298 294 299 297 300 298 295 294 292 294 294 292 294 295 291 293 294 296 293 290 306 305 300 306 311 310
302 301 302 302 302 301 302 302 302 303 302 303 298 308 308 301 298 305 306 306 305 302 300 301 299 300 301 297 298 297 298 298 295 290 298 292 297 297 299 299 308 309 308 310 311 310 311

GFSGBSN_sfc_thetae_042.txt.gz
Theta_e
312 313 313 313 313 314 316 315 316 315 314 313 314 314 315 314 315 315 315 316 317 319 320 320 320 319 316 310 310 324 327 324 316 313 312 308 306 305 303 306 306 303 305 307 308 309 308
311 311 311 312 312 312 313 313 314 315 314 314 312 313 314 315 315 315 314 314 315 317 318 319 319 317 313 302 318 324 323 317 315 312 311 311 309 311 307 307 305 307 307 306 309 308 310
311 311 312 312 313 313 312 313 313 314 314 313 313 313 313 314 314 314 314 314 314 315 317 318 318 316 310 307 318 317 321 316 315 314 311 314 314 310 309 306 309 307 302 305 308 309 309
311 311 311 312 312 312 312 312 312 313 314 314 313 313 312 312 312 313 313 313 313 315 317 318 317 314 306 317 319 316 318 317 316 316 315 316 315 311 309 310 307 303 303 298 307 309 309
310 311 311 312 312 311 311 312 312 312 313 313 313 312 312 311 310 311 312 312 311 314 317 317 313 312 303 316 311 314 316 314 313 314 315 315 312 308 308 302 299 301 295 299 302 308 308
310 310 311 312 311 312 312 312 312 312 312 312 313 313 312 311 311 311 311 310 313 316 317 318 315 306 309 305 310 312 315 317 311 311 309 309 306 302 303 300 292 296 297 299 300 305 306
309 309 309 311 311 311 310 311 311 311 312 312 312 312 313 312 311 311 310 311 309 312 314 308 308 304 309 313 313 309 312 315 313 308 301 305 299 296 300 303 302 300 299 299 304 307 305
310 309 309 309 311 311 310 311 310 311 311 311 312 312 312 312 311 311 309 306 307 313 303 308 306 307 311 313 305 309 312 309 307 301 304 301 298 304 305 305 302 300 298 298 302 306 303
310 310 309 310 310 311 311 311 311 310 311 310 310 311 311 311 311 308 306 307 315 316 302 301 304 304 306 309 305 306 309 308 304 301 302 298 302 307 304 302 299 299 297 298 299 303 304
309 309 310 309 310 310 310 310 310 310 310 310 310 310 309 310 305 308 305 313 316 317 295 293 298 306 307 308 302 309 311 307 304 300 302 302 306 304 303 300 300 295 302 301 300 298 293
309 309 309 310 310 310 310 310 310 310 310 310 310 310 308 308 307 307 313 316 320 317 279 297 302 313 310 304 305 305 311 308 301 301 303 300 302 301 300 300 302 298 304 302 301 298 298
308 309 309 310 309 309 309 309 309 309 309 309 309 310 309 306 307 309 314 314 316 292 281 294 304 302 302 304 304 306 305 309 308 303 304 302 307 305 304 304 304 305 303 303 301 298 291
307 308 309 309 309 309 309 309 309 309 309 309 309 309 308 306 302 311 313 308 292 283 294 291 297 302 300 300 300 302 300 299 298 294 296 300 301 305 306 301 304 303 299 291 289 290 289
307 308 308 309 309 309 309 309 309 309 309 308 308 308 308 305 308 310 309 297 282 287 290 299 298 299 298 300 300 300 299 297 302 300 296 294 292 301 305 302 300 300 298 292 284 285 290
307 307 308 308 309 309 309 309 309 308 308 308 308 306 305 307 310 308 297 285 286 289 294 292 296 294 296 300 299 298 298 298 300 301 295 294 295 304 305 305 304 300 296 302 294 294 290
307 307 307 307 308 308 309 309 308 308 308 308 304 300 301 307 311 303 291 285 290 294 295 295 290 293 293 297 296 297 296 300 300 303 304 300 294 302 303 305 304 301 304 296 297 287 286
306 306 307 307 307 308 308 308 308 308 308 308 301 293 302 307 308 294 284 288 292 296 296 293 292 291 293 295 298 296 296 300 303 302 303 302 299 298 302 299 297 299 297 300 300 297 289
305 305 306 306 307 307 308 308 308 308 308 305 297 287 304 307 290 290 287 290 295 295 297 296 297 295 294 296 296 297 297 300 305 304 299 302 300 294 297 303 304 302 299 299 294 292 296
304 305 305 306 306 306 307 308 308 308 307 302 292 292 304 303 283 284 291 291 292 293 294 294 294 297 298 296 294 298 300 306 306 304 301 303 297 291 293 299 302 299 300 301 301 300 295
304 304 305 306 306 306 306 307 307 307 308 302 292 285 293 296 296 289 288 290 289 295 294 295 295 298 296 295 299 298 299 304 308 305 303 305 299 295 290 294 300 297 298 301 300 294 294
304 304 305 305 304 304 305 307 307 307 307 302 293 288 293 285 288 292 292 291 289 289 294 296 294 295 295 293 295 295 298 301 304 304 305 305 296 298 299 299 299 299 298 298 298 299 295
303 304 303 304 304 304 305 305 307 307 307 299 287 291 295 293 293 291 291 290 289 291 292 290 292 294 296 294 296 293 298 299 299 303 302 305 296 299 296 299 298 296 299 299 299 298 298
303 303 303 303 303 304 304 304 304 306 306 298 296 299 296 291 291 289 290 292 292 294 295 295 295 294 294 297 301 305 304 302 300 298 300 300 298 296 291 298 296 290 296 298 299 301 299
302 302 303 303 303 303 303 304 304 304 305 297 295 299 292 288 291 290 292 292 292 294 293 295 297 295 300 307 307 305 302 300 300 299 304 299 298 297 292 293 284 296 303 302 299 300 301
302 303 303 303 303 303 303 303 303 304 305 301 298 298 293 288 292 292 292 292 294 296 294 295 298 300 305 304 298 293 291 290 293 298 300 302 299 293 290 289 294 296 299 299 298 297 303
303 303 304 304 303 303 302 302 303 303 304 301 298 302 298 291 291 295 292 294 291 293 294 297 301 305 304 297 290 286 283 288 287 291 299 297 298 293 293 287 285 296 302 305 304 293 305
303 303 303 303 303 303 303 302 302 303 304 302 298 303 299 293 297 298 293 293 297 295 294 295 298 298 304 294 290 287 287 292 286 287 290 291 292 289 292 290 295 302 303 305 292 296 308
302 303 302 303 303 303 303 302 302 303 303 301 298 304 300 295 297 299 300 298 297 297 293 297 295 298 297 289 291 291 290 291 289 292 293 291 289 290 293 290 287 305 304 297 305 307 311
302 301 302 302 302 302 303 302 302 302 303 302 297 305 307 301 298 304 304 305 301 302 299 299 298 297 298 295 293 296 293 295 293 287 297 291 295 292 295 295 300 303 305 309 312 310 312

GFSGBSN_sfc_thetae_045.txt.gz
Theta_e
311 312 312 312 312 313 313 314 315 315 315 314 312 313 314 314 315 315 314 314 314 315 316 317 319 320 313 307 308 321 326 324 315 311 308 306 302 300 296 299 301 298 300 302 303 304 303
311 311 312 312 312 312 312 312 314 313 313 314 314 312 312 314 314 313 314 313 314 314 315 317 319 318 310 300 314 323 319 314 311 308 306 307 303 304 303 302 300 302 301 302 303 303 306
311 312 312 313 312 312 312 313 313 313 313 313 314 313 313 312 313 312 312 312 312 313 313 316 318 316 308 304 315 314 316 314 311 310 306 309 308 304 304 301 306 305 298 300 301 306 306
310 311 311 312 312 312 312 312 312 313 313 313 314 314 313 312 312 311 311 311 311 312 313 315 318 311 302 314 314 314 314 312 314 311 310 310 310 306 304 305 303 298 297 291 299 305 306
310 310 310 312 312 311 312 312 312 312 313 312 313 313 312 312 312 311 311 311 311 312 313 314 309 306 302 315 309 313 312 310 313 312 309 313 309 302 302 296 293 294 290 292 298 305 305
310 310 310 311 311 311 311 312 312 312 312 312 312 313 311 311 311 311 310 310 310 312 314 317 314 303 308 303 310 311 311 311 311 307 305 304 300 296 294 292 286 291 291 291 295 301 303
309 309 309 310 311 311 310 311 311 311 312 312 312 312 312 311 311 311 308 304 303 304 309 306 305 302 306 311 314 308 310 307 310 303 296 300 293 291 292 296 298 297 295 293 297 303 301
309 309 309 310 310 310 310 311 311 311 311 311 311 311 311 312 312 311 306 299 303 303 298 309 311 311 312 312 304 306 308 301 304 298 299 297 293 297 300 299 299 298 294 292 299 305 300
309 309 309 310 310 310 310 311 311 311 311 311 311 310 311 310 311 306 301 301 307 304 297 300 305 302 302 303 299 301 304 302 302 299 298 294 297 302 300 299 298 297 293 293 295 299 300
309 309 309 309 309 310 310 310 310 310 310 310 310 310 309 308 303 302 299 311 312 309 291 292 295 300 302 302 298 306 308 302 302 298 299 297 302 300 299 298 298 292 298 299 298 294 289
308 308 309 309 310 309 309 310 310 310 310 310 310 310 309 308 302 299 305 308 309 310 272 292 296 305 303 298 301 302 308 302 297 298 298 295 298 298 297 299 301 296 301 299 299 294 291
307 307 308 308 309 309 309 309 309 310 310 310 309 309 309 304 302 303 307 308 307 288 279 291 302 300 300 299 300 302 301 303 303 299 299 298 303 301 300 303 302 301 301 299 297 293 284
306 307 307 308 308 309 309 309 309 309 309 309 309 309 307 304 296 305 308 303 287 280 290 288 296 300 298 297 298 298 297 295 292 291 291 297 297 302 303 298 301 298 294 286 284 283 282
306 306 307 307 307 308 308 309 309 309 309 309 308 308 307 305 303 306 304 293 280 285 286 294 294 295 295 297 297 298 296 293 296 295 292 290 288 298 302 299 296 295 294 286 280 280 287
306 306 306 306 307 308 308 309 309 309 309 308 308 304 302 304 304 305 296 284 282 286 290 288 289 287 293 297 297 297 294 294 296 297 291 290 291 300 302 302 300 297 292 297 292 292 286
305 305 306 306 307 307 307 308 308 309 309 308 302 300 299 305 304 301 290 285 287 293 292 290 285 290 288 293 294 294 294 297 296 299 300 296 290 299 301 302 301 298 301 292 293 283 281
304 305 305 305 306 306 307 307 308 308 309 308 301 293 300 304 304 293 283 285 288 294 295 290 287 287 288 288 290 292 295 298 299 299 301 298 294 294 300 296 294 295 294 295 297 294 284
304 304 304 305 305 306 306 307 308 308 308 305 298 287 300 303 289 289 284 288 293 291 295 292 293 291 289 290 289 290 294 298 302 301 296 299 295 289 293 300 302 299 295 295 288 288 290
303 303 304 305 305 305 306 306 307 308 308 302 293 292 301 299 283 283 287 288 289 289 291 292 290 292 293 290 287 294 298 303 304 302 297 298 293 286 291 295 299 296 297 297 296 294 289
303 303 303 304 305 305 305 306 306 307 308 303 291 285 293 295 291 287 284 285 286 292 291 292 291 293 290 288 292 293 296 302 303 303 302 301 295 291 286 291 296 293 296 297 295 287 288
302 303 303 303 304 304 305 305 306 307 307 303 291 287 291 285 286 288 288 287 286 285 291 292 289 289 289 286 289 289 297 298 300 301 302 300 292 294 294 297 297 297 297 296 294 295 292
302 302 303 304 304 304 305 305 305 306 307 300 285 289 292 289 291 288 288 285 285 288 289 288 287 290 290 287 288 288 294 297 296 300 298 300 291 294 291 295 296 294 296 296 296 296 297
302 303 303 304 304 305 305 305 304 305 305 298 296 295 293 289 288 287 285 286 287 290 291 293 291 289 288 291 294 297 300 301 300 297 295 294 292 290 287 293 293 287 293 295 296 298 297
302 303 303 303 303 304 304 304 304 304 304 300 298 296 289 286 287 287 288 289 288 291 288 293 294 290 293 298 303 301 299 299 299 298 299 293 292 291 284 289 282 293 300 299 296 298 298
302 302 303 303 303 303 303 303 303 304 304 300 297 296 291 285 288 289 289 289 291 292 292 292 295 297 297 294 293 289 284 289 292 296 297 297 292 287 285 286 290 294 296 295 294 294 299
302 302 303 303 303 303 303 303 303 303 304 300 295 300 296 288 287 292 290 291 287 288 288 291 297 298 295 290 287 281 280 286 286 289 297 295 292 287 285 283 282 292 299 302 300 289 300
303 303 303 303 303 302 303 303 303 303 304 301 297 298 296 289 293 294 289 289 293 291 288 291 293 293 295 286 283 284 281 291 284 284 286 286 285 284 283 284 287 298 301 302 289 289 301
302 303 303 303 303 303 303 303 303 303 303 301 298 300 295 287 293 298 298 293 293 293 288 291 291 292 288 284 284 283 280 287 287 289 290 287 285 285 287 284 282 300 301 294 297 302 304
302 302 302 302 302 302 302 302 302 303 303 302 295 300 299 294 295 302 303 303 301 300 296 295 292 292 292 287 286 287 281 286 287 283 293 286 291 288 291 289 299 300 302 303 303 302 306

GFSGBSN_sfc_thetae_048.txt.gz
Theta_e
312 312 312 312 312 312 312 312 314 314 314 313 313 315 314 314 314 314 313 313 313 313 313 313 315 318 313 305 306 317 325 323 314 309 305 304 301 297 294 296 298 297 298 300 301 304 308
311 312 312 312 312 312 312 312 312 313 313 313 314 314 314 314 313 313 313 312 312 312 313 313 314 317 308 298 309 314 318 313 309 305 304 305 303 301 298 299 298 301 301 300 301 300 308
311 311 311 312 313 312 311 312 313 313 313 313 313 314 314 314 314 313 313 312 312 312 312 312 313 314 305 302 311 310 312 310 308 307 303 306 306 301 302 299 304 302 296 298 299 298 304
311 310 311 312 312 312 312 312 312 312 312 313 313 313 313 313 312 312 312 311 312 312 312 313 313 311 300 313 312 311 312 310 312 310 308 308 307 304 301 302 300 296 295 290 297 299 304
310 310 310 312 311 312 311 312 312 312 312 312 312 312 312 312 311 311 311 311 311 312 312 314 310 305 299 316 309 312 310 307 309 311 308 311 305 301 300 294 290 292 288 290 294 300 303
309 309 309 310 311 311 311 312 311 312 311 312 312 312 312 311 311 310 310 311 310 311 310 315 313 302 305 301 307 308 309 309 306 308 306 302 299 295 293 290 284 288 289 288 291 298 302
308 309 309 309 310 310 310 311 311 311 311 312 312 312 311 311 311 311 308 302 298 301 305 304 304 303 302 309 314 307 309 307 305 302 295 299 293 290 291 293 295 294 292 291 294 300 301
307 307 309 309 310 310 311 311 311 311 312 312 311 311 311 311 310 310 305 297 299 298 292 301 305 308 310 311 306 308 306 299 299 295 297 294 291 296 298 297 295 294 292 292 294 300 300
306 307 307 308 309 310 310 311 311 311 311 311 311 311 311 310 309 305 301 300 305 305 293 298 302 303 305 308 304 304 302 299 299 297 295 292 295 300 297 296 294 294 292 293 292 297 296
306 307 307 307 308 309 310 310 310 310 310 310 310 310 309 308 302 301 299 306 305 306 289 291 296 298 302 301 295 304 302 299 297 297 297 295 299 297 296 295 296 291 298 296 296 292 287
305 306 307 306 307 308 309 310 310 310 310 310 310 310 309 308 299 297 303 305 308 302 270 289 295 304 302 296 297 298 303 300 294 298 297 294 296 296 295 296 298 295 299 297 296 292 289
305 305 305 306 307 308 308 309 309 309 309 310 310 310 309 304 301 301 304 305 304 288 276 290 297 295 294 295 297 300 298 302 300 296 298 296 300 297 296 300 300 301 298 297 295 291 284
305 305 304 305 306 307 308 308 308 309 309 309 309 309 307 305 294 301 303 302 286 277 289 286 294 298 295 291 294 296 294 293 290 288 288 294 295 299 300 296 299 296 292 285 283 282 282
304 304 304 305 306 306 307 308 307 308 308 309 308 308 307 305 301 301 301 293 280 284 285 292 291 291 293 295 294 295 293 289 293 292 289 287 285 295 299 297 294 293 292 285 279 280 284
302 304 304 305 305 306 307 307 307 307 308 308 308 304 302 302 302 301 293 283 283 286 289 287 289 285 285 295 295 295 292 292 293 294 289 288 288 298 299 299 298 293 289 295 289 290 284
302 304 304 304 305 305 305 306 307 307 308 308 302 300 299 302 302 299 288 284 287 291 292 291 284 287 285 286 289 291 292 295 295 297 297 293 287 296 298 299 298 296 298 290 290 282 280
303 303 304 304 304 304 305 306 306 307 308 308 301 293 301 303 303 291 281 284 288 293 293 290 288 286 286 286 289 288 290 296 297 297 297 295 291 292 296 294 293 293 292 294 294 289 282
303 303 303 303 304 305 305 305 306 307 307 305 298 287 300 303 287 288 282 287 292 290 293 291 291 290 288 289 288 288 289 294 303 301 293 296 292 287 290 297 299 296 294 294 288 287 287
302 302 303 303 304 304 304 305 306 307 307 302 293 291 300 298 282 283 287 286 289 289 289 290 289 290 291 288 284 289 292 299 301 301 296 298 290 283 287 292 296 294 295 295 294 291 287
301 302 303 303 304 304 304 305 305 306 307 302 289 285 292 293 290 286 284 284 284 291 289 290 289 290 288 287 290 287 289 296 302 302 302 301 294 289 285 289 293 291 295 295 293 284 286
301 302 302 303 303 303 304 304 305 305 306 302 289 286 291 284 285 287 287 287 284 284 290 291 288 287 287 283 285 285 289 295 300 302 302 300 290 292 293 294 295 294 295 295 292 292 288
301 302 302 302 303 303 304 304 304 305 306 298 285 288 291 287 290 287 286 285 284 286 287 286 285 289 288 285 286 284 288 289 294 300 298 299 290 292 289 294 294 292 295 296 296 294 293
301 302 302 302 302 303 304 304 304 305 305 296 297 294 293 289 288 286 285 285 286 288 290 290 289 288 287 289 292 293 293 295 298 298 295 295 292 288 284 291 291 286 292 294 294 295 296
301 302 302 303 303 303 304 304 304 305 304 300 298 296 289 285 286 286 288 289 287 289 286 290 291 288 292 296 299 298 296 297 297 298 299 292 290 290 283 286 282 292 297 297 295 296 296
302 302 303 303 303 303 303 303 303 304 305 301 300 296 291 285 287 287 288 288 289 290 289 290 292 294 296 292 287 286 282 286 290 295 297 297 290 285 283 284 289 292 295 294 293 294 298
302 302 302 302 302 302 302 302 303 303 304 301 299 300 295 288 287 291 288 289 286 286 287 289 295 296 293 289 285 279 278 283 284 288 297 293 293 287 284 281 280 290 296 301 298 287 297
302 302 303 303 303 302 302 302 302 303 304 301 297 299 295 287 290 293 287 288 291 288 286 288 290 290 293 283 280 278 279 289 282 282 285 285 285 283 283 282 287 296 299 300 288 288 300
302 303 303 303 303 303 303 303 303 303 303 301 297 298 293 286 290 295 296 290 291 291 285 289 289 288 286 282 281 280 277 285 284 288 286 284 283 282 285 283 281 300 298 292 296 299 301
302 302 302 302 302 303 302 302 303 303 303 302 295 298 299 292 291 300 301 300 298 297 293 292 290 290 291 286 284 284 280 279 283 280 290 285 289 286 289 287 299 301 299 303 302 300 302

GFSGBSN_sfc_thetae_051.txt.gz
Theta_e
312 312 312 313 313 312 312 312 312 313 313 312 313 313 313 313 313 315 313 313 313 313 312 312 313 314 312 303 304 312 324 323 313 306 303 302 299 296 293 294 295 293 296 299 299 301 304
310 311 311 311 312 312 312 312 311 312 312 313 313 313 313 313 313 314 313 313 313 313 313 312 312 313 307 296 306 312 316 312 306 304 303 302 300 300 296 295 296 299 299 299 298 304 308
310 310 311 311 311 311 311 312 311 311 312 312 312 312 313 313 313 313 312 312 312 312 313 312 312 309 304 298 309 308 308 307 306 305 301 303 304 300 300 297 301 300 295 296 297 299 303
309 310 310 311 311 312 312 312 312 312 312 311 311 312 312 312 312 312 311 311 311 312 312 313 312 309 300 311 309 310 309 308 310 309 307 306 305 301 299 300 298 294 293 288 295 298 302
308 309 309 309 311 311 311 312 312 311 312 312 312 312 312 311 311 311 310 311 311 312 313 312 307 306 298 313 308 311 309 305 307 309 306 309 303 299 298 293 290 290 285 288 292 297 300
309 309 308 309 310 310 311 311 312 312 312 312 312 311 312 311 311 310 309 310 311 310 309 311 312 300 303 301 306 308 310 307 304 305 304 302 298 293 291 290 284 285 287 286 288 294 298
308 308 308 308 309 309 310 311 312 311 311 312 312 312 311 311 311 310 307 303 294 297 299 301 302 302 304 308 313 307 307 305 303 301 295 296 291 289 292 292 293 291 290 288 290 295 296
307 307 307 307 307 308 309 310 311 311 311 311 311 311 311 311 310 310 305 297 297 299 293 301 300 301 307 309 303 305 307 299 298 292 296 293 290 295 296 295 293 292 289 289 293 296 297
305 306 306 306 308 308 309 309 310 310 310 311 311 311 311 310 310 303 299 300 306 305 294 298 300 298 298 306 301 302 305 298 295 293 293 291 294 298 296 293 292 291 289 290 290 294 296
305 306 306 306 306 307 307 308 308 310 310 310 310 310 309 309 300 299 297 303 303 306 286 289 295 296 300 302 297 305 306 299 296 293 295 293 298 295 294 293 293 288 295 294 293 290 286
304 305 304 305 305 306 307 307 308 309 310 310 309 310 309 309 297 296 300 302 304 301 271 288 294 302 301 295 295 297 303 298 293 296 296 293 294 293 292 294 295 292 297 295 294 290 288
304 304 304 305 305 306 306 307 308 308 309 309 309 309 309 304 301 301 302 302 302 287 275 287 295 294 293 294 294 297 296 300 298 294 295 296 298 296 295 297 297 298 295 293 292 289 283
303 303 304 303 304 305 305 307 307 308 308 309 309 309 307 303 294 299 300 298 289 278 288 284 289 294 293 291 292 295 292 292 290 287 287 292 294 296 298 293 296 294 289 283 281 281 282
303 302 302 302 304 305 305 306 306 307 308 308 308 308 307 304 302 301 296 290 281 285 284 290 289 289 292 291 292 293 291 287 291 291 287 286 284 292 297 295 292 291 291 283 278 279 283
302 302 302 303 304 304 305 305 306 307 307 307 307 304 303 300 300 299 289 280 283 286 289 288 288 285 286 291 294 292 291 290 291 292 288 285 286 295 297 297 296 291 288 293 286 287 283
302 301 302 303 304 303 304 305 306 306 307 307 301 301 299 301 301 297 286 282 287 292 291 290 283 286 283 286 288 288 291 294 293 294 295 291 286 294 296 296 296 294 296 288 287 281 280
300 301 301 302 303 303 304 305 305 305 306 307 300 294 301 302 302 291 280 282 286 291 291 288 287 286 286 285 287 287 288 294 297 297 295 292 289 289 294 291 291 291 289 291 291 287 281
301 301 301 302 302 303 304 304 304 305 305 303 297 287 300 302 287 288 282 285 290 289 292 290 290 289 287 286 286 287 287 292 301 300 293 294 290 286 289 295 296 293 292 292 286 285 286
301 301 301 302 302 303 303 304 304 305 305 300 292 290 300 298 282 283 287 286 287 288 288 289 288 289 290 286 283 287 289 296 298 300 296 297 289 282 287 290 293 290 293 293 293 290 286
300 301 301 302 302 303 303 303 304 305 305 300 287 284 291 293 289 286 284 285 284 289 288 289 288 289 287 285 289 286 288 293 295 302 302 300 293 287 282 286 290 288 292 293 292 285 286
300 300 300 301 301 302 303 304 304 304 305 300 289 285 290 283 285 287 287 286 284 283 288 290 286 286 285 282 283 284 289 291 296 302 301 298 289 292 292 294 294 292 292 293 291 291 287
300 300 300 300 301 302 303 303 303 303 304 297 285 288 292 287 290 287 287 284 284 286 287 285 284 287 287 283 284 282 286 287 288 295 294 298 290 291 289 293 293 290 292 293 293 293 292
302 301 301 301 301 302 303 303 303 303 302 294 295 294 293 289 287 285 284 285 286 288 289 289 288 286 285 287 289 290 291 291 291 291 292 293 289 285 283 289 289 285 290 292 293 295 295
303 302 301 302 302 302 303 303 303 303 303 297 296 295 289 284 286 286 287 288 287 288 286 289 290 287 290 294 293 294 294 295 296 296 296 291 289 287 283 284 280 289 294 295 294 295 296
301 301 301 302 302 302 302 303 303 303 303 299 298 295 291 284 288 287 288 288 288 289 288 288 290 293 295 291 286 283 281 285 288 294 294 294 288 283 278 281 286 288 294 292 291 291 297
301 302 302 302 302 302 303 303 303 303 304 301 299 301 294 288 286 291 288 289 285 285 285 288 294 296 292 287 284 280 277 282 282 288 295 292 290 283 284 280 277 285 294 298 299 288 298
301 302 302 302 302 302 302 302 302 303 303 301 299 301 295 289 292 293 288 287 289 287 284 287 289 289 291 282 280 278 279 285 280 282 284 284 285 283 282 281 284 292 296 300 287 287 299
302 302 302 302 302 302 302 302 302 302 303 299 297 300 293 288 290 295 295 290 290 289 284 288 288 287 284 280 280 280 276 282 283 286 285 283 283 283 285 281 278 299 297 290 294 298 300
302 302 302 302 302 302 302 302 302 302 303 301 294 299 299 292 292 297 296 298 296 295 292 292 290 290 289 284 282 282 277 277 282 278 289 282 286 283 286 285 294 299 297 300 300 300 301

GFSGBSN_sfc_thetae_054.txt.gz
Theta_e
310 310 311 312 311 312 312 312 312 312 311 311 312 312 312 311 311 312 313 313 312 312 312 312 313 313 309 301 302 310 324 325 314 305 302 301 298 295 291 292 293 291 294 296 298 299 300
310 310 310 310 311 311 311 311 311 312 311 311 312 312 313 312 311 312 312 312 311 311 312 312 313 312 303 292 305 310 308 311 305 302 302 301 298 299 294 294 294 297 297 297 297 299 302
308 309 310 310 310 310 310 310 311 311 312 312 312 312 312 311 312 312 312 311 310 310 311 312 312 308 300 297 307 307 308 305 305 302 300 302 301 298 297 295 299 298 293 294 295 295 301
308 308 308 309 309 310 310 310 310 311 311 312 312 312 312 312 312 311 311 311 310 310 311 312 312 306 296 310 308 309 307 306 308 307 305 305 302 299 297 298 296 292 291 287 293 299 299
307 307 308 308 309 310 310 311 311 311 311 312 312 312 312 311 311 311 311 310 310 310 312 313 305 302 295 312 307 310 309 302 304 306 305 308 302 297 296 292 289 289 284 286 290 295 298
307 308 307 308 307 308 310 310 311 311 312 312 312 312 312 311 311 310 310 309 308 310 309 309 309 295 299 295 305 308 310 307 302 303 302 300 296 292 290 288 283 285 285 285 287 291 296
307 307 307 307 307 307 308 308 310 310 311 311 311 311 311 311 311 310 306 300 295 294 297 297 298 297 301 309 311 306 307 304 301 300 294 296 291 289 291 292 291 290 288 287 289 292 291
306 306 305 306 306 306 308 309 309 310 310 311 311 311 311 311 311 310 302 296 298 298 291 299 299 298 302 306 299 302 308 298 296 292 295 291 290 294 296 294 292 291 288 287 290 294 292
305 305 305 306 305 305 306 307 307 309 309 310 310 310 310 310 309 301 299 299 304 301 293 295 298 297 298 300 296 297 304 298 294 291 294 291 292 296 295 292 291 289 287 287 288 291 292
305 305 305 305 304 305 306 306 306 307 309 309 310 310 309 309 300 298 295 303 303 303 287 287 294 296 298 301 295 302 304 299 295 292 292 292 297 294 292 291 292 287 292 292 291 288 284
305 304 304 305 304 304 305 305 306 307 307 308 309 309 309 309 297 295 298 302 302 302 272 288 294 301 301 293 293 297 304 298 292 293 294 291 293 293 291 292 293 291 294 292 291 288 285
304 304 304 303 303 304 304 304 305 306 307 308 308 308 309 303 302 300 301 299 301 287 276 286 292 293 294 295 294 296 296 298 297 294 294 294 297 295 295 296 295 296 293 291 290 287 281
303 303 304 303 303 303 303 304 305 306 307 307 308 308 306 304 297 298 298 295 285 279 289 283 286 291 291 291 291 292 290 290 287 285 285 290 293 296 296 292 294 293 288 282 280 280 280
302 303 303 302 302 302 303 304 305 305 306 307 307 306 304 305 301 300 295 287 277 284 284 290 288 288 287 290 290 291 287 284 289 290 287 285 283 293 296 294 291 290 289 282 278 278 281
302 302 302 302 302 302 303 303 304 305 306 306 306 298 299 300 302 300 290 278 280 285 288 287 287 284 286 288 290 291 288 286 288 293 287 285 286 294 295 297 296 290 286 291 285 285 282
301 302 302 302 302 302 302 303 303 304 306 306 295 295 296 303 304 298 287 280 284 292 289 288 282 286 283 285 286 286 289 294 292 293 295 291 285 293 295 295 294 293 294 286 285 280 279
300 301 301 301 301 301 301 302 302 303 305 305 293 291 300 304 302 292 281 282 284 288 289 287 285 284 285 285 286 285 287 293 295 297 294 290 288 288 292 290 289 289 288 289 289 285 280
300 300 301 301 301 301 300 301 302 304 304 301 294 285 300 302 287 287 283 286 290 287 290 290 289 287 286 286 284 286 287 291 293 298 292 295 289 284 287 293 294 292 290 291 284 283 284
299 300 300 300 300 301 301 301 302 303 303 297 290 290 300 299 283 283 287 286 287 286 287 288 287 288 288 285 281 286 289 295 294 297 295 296 289 281 285 289 291 288 290 291 291 287 283
300 300 300 300 300 301 301 301 301 303 303 298 288 283 291 293 291 286 285 284 283 288 286 288 287 288 286 284 286 284 287 292 295 298 301 299 292 288 282 286 291 288 291 290 290 283 283
299 300 300 300 300 301 301 301 302 303 303 298 289 284 289 283 285 286 287 286 283 283 287 288 285 286 284 281 282 282 287 289 291 296 299 296 287 291 292 293 293 290 290 290 288 288 286
300 300 300 301 301 301 301 301 302 302 303 294 284 286 291 289 289 287 286 284 284 285 286 284 283 286 285 282 283 282 285 285 286 292 293 295 287 288 287 292 289 287 291 290 290 290 290
300 301 301 302 302 302 301 301 301 302 301 293 293 293 292 288 287 285 285 286 285 288 288 288 287 285 283 286 288 289 289 289 289 288 287 291 288 284 282 287 287 283 286 287 290 292 292
300 301 301 302 302 303 302 301 301 302 302 296 295 294 288 283 286 286 287 288 287 287 285 289 289 286 289 293 292 290 288 288 289 290 293 290 288 284 281 282 276 287 293 294 290 291 291
301 301 301 302 302 302 302 301 301 302 302 297 297 294 289 283 287 287 288 287 288 289 288 288 290 293 294 289 286 282 280 284 287 290 291 293 288 280 277 278 284 286 292 292 289 288 292
301 301 302 302 301 301 301 301 302 302 302 299 297 299 294 287 285 291 288 289 285 285 286 288 293 294 292 287 285 279 277 281 282 287 292 290 289 284 282 275 274 282 290 297 296 284 297
301 301 301 301 301 301 301 301 302 302 302 299 297 299 295 287 291 292 288 288 290 287 284 287 289 287 290 284 282 280 280 284 279 282 283 283 285 284 282 280 282 289 295 299 284 282 295
300 301 301 301 302 301 302 301 301 302 302 300 296 300 295 286 291 294 295 291 291 289 284 287 288 286 283 281 280 280 276 281 281 284 284 282 281 279 283 281 276 295 295 289 292 295 297
301 301 302 302 302 302 302 302 302 302 302 302 294 300 300 292 292 297 299 299 297 295 291 292 288 286 286 282 280 281 277 277 281 278 287 281 284 282 284 283 291 296 294 298 299 297 299

GFSGBSN_sfc_thetae_057.txt.gz
Theta_e
309 310 310 310 310 311 311 311 311 311 311 311 311 311 311 311 311 312 312 312 312 311 311 311 312 313 308 300 297 310 318 325 320 309 304 303 302 300 297 297 297 296 298 298 300 300 301
308 309 309 310 311 311 311 310 310 311 311 311 312 311 311 311 311 311 312 311 311 312 312 311 312 311 304 292 304 311 308 311 309 305 304 304 302 302 299 298 298 300 299 301 302 302 303
309 308 308 309 309 309 309 309 310 310 311 311 312 312 312 311 311 312 312 311 311 311 312 310 311 308 299 295 306 308 308 307 309 305 304 305 305 302 301 299 301 301 298 299 300 300 303
308 308 308 308 309 309 309 310 309 310 311 311 311 312 312 312 312 312 311 311 310 311 311 312 312 306 294 307 311 309 309 306 308 308 306 307 306 303 301 303 300 298 296 293 298 302 302
308 307 308 308 308 308 309 310 310 310 310 311 311 312 311 311 311 311 311 310 310 310 312 312 306 302 294 309 307 310 309 304 305 307 308 309 306 301 301 297 295 294 291 291 294 300 302
307 307 308 308 307 308 307 308 309 310 311 310 310 311 311 311 311 310 310 310 308 310 309 309 306 295 298 294 306 308 311 308 302 304 303 303 300 297 296 295 287 290 290 291 293 299 301
307 307 307 306 306 307 306 307 309 309 309 309 309 310 311 310 310 310 307 301 297 296 298 297 297 296 298 307 311 309 309 306 304 301 296 300 296 292 294 297 295 294 292 291 293 296 296
305 306 305 305 305 306 306 306 307 308 307 308 309 310 310 310 310 309 302 298 297 297 290 298 297 297 301 304 297 303 308 301 298 293 297 295 292 297 297 296 295 294 292 292 295 296 295
305 305 305 306 305 306 305 306 306 306 306 307 308 309 309 309 309 301 299 299 304 302 291 295 298 296 297 300 295 296 304 301 296 293 295 293 295 298 296 294 293 294 292 292 292 294 296
305 304 305 305 303 305 304 303 305 305 306 307 308 308 309 308 300 299 297 303 304 302 287 288 293 297 299 299 293 301 301 301 297 293 295 294 298 295 294 293 294 290 295 294 292 291 288
305 304 304 305 305 304 304 304 305 304 305 306 307 308 308 308 301 297 300 304 303 301 274 289 293 302 300 293 294 297 303 298 295 294 295 292 294 294 292 294 296 293 297 295 294 292 291
304 304 304 304 305 304 304 304 303 304 305 306 307 307 308 303 303 302 302 300 301 285 275 287 293 293 293 295 294 298 297 301 300 296 297 294 300 298 296 297 297 298 295 295 294 292 286
302 303 303 303 304 303 303 303 303 304 304 305 306 307 305 306 298 301 301 296 284 277 289 285 287 290 289 289 292 293 292 292 290 287 289 293 294 297 298 295 296 296 293 286 285 285 285
302 302 303 303 303 303 302 302 303 304 304 304 305 305 303 304 304 304 298 288 277 283 286 291 289 289 286 291 291 291 289 288 292 291 288 287 285 295 298 296 293 293 293 287 282 283 286
301 302 302 303 302 302 303 302 302 303 304 304 305 298 299 301 305 302 291 279 280 284 288 286 288 285 286 289 289 291 289 287 289 292 288 287 287 295 297 298 298 292 289 295 288 289 287
301 301 301 301 302 302 302 302 302 302 302 303 296 295 295 302 304 299 287 282 283 290 288 288 283 287 283 285 286 288 290 290 291 293 297 293 287 294 295 298 298 296 297 289 289 282 281
300 300 300 300 302 302 301 301 301 301 302 303 295 290 296 303 303 292 281 283 285 289 289 286 285 284 285 284 285 285 289 291 292 294 295 294 291 290 295 292 292 293 292 293 293 289 285
299 300 300 300 300 301 301 301 301 301 302 299 294 283 299 303 287 288 284 286 289 287 289 289 289 287 286 286 284 285 286 291 294 297 294 296 290 286 289 295 297 296 293 294 288 286 288
299 299 299 300 300 300 301 301 300 300 301 297 289 289 299 299 281 282 287 287 288 286 288 287 287 288 289 286 282 286 288 294 294 293 296 298 291 285 287 292 294 292 292 294 293 291 287
299 299 299 299 299 300 300 300 300 301 301 297 289 282 289 292 290 285 285 285 284 288 287 288 287 289 287 285 288 285 287 291 294 293 301 300 294 289 285 288 293 291 293 294 292 287 288
298 298 299 299 299 299 300 300 300 301 301 296 289 284 289 282 284 286 287 286 283 283 287 288 285 286 285 282 283 283 287 289 291 295 298 298 289 291 293 293 293 291 291 292 290 291 288
298 299 299 299 300 300 301 301 300 301 301 292 285 286 289 287 288 286 287 285 284 285 286 284 284 287 287 283 285 283 286 286 285 291 290 292 289 291 288 292 291 288 291 290 292 292 292
298 299 299 300 300 300 301 301 301 301 300 291 292 293 290 287 285 285 284 286 285 288 289 289 288 286 285 286 290 290 291 290 290 287 286 288 289 286 283 288 288 284 290 290 291 293 293
299 299 299 300 300 300 301 302 302 301 301 294 294 293 286 281 285 285 287 287 287 288 286 289 290 287 290 295 294 293 290 289 289 289 291 287 288 286 283 285 277 288 295 294 294 294 294
299 299 299 300 301 301 301 302 302 302 302 296 295 293 289 282 285 287 287 287 289 290 288 288 291 293 295 291 286 284 284 286 287 289 290 292 289 284 282 282 285 288 291 292 292 290 296
299 299 300 301 301 301 301 301 302 302 302 298 295 297 292 285 283 288 288 289 286 286 287 288 294 296 294 288 285 279 279 282 282 287 293 291 292 288 283 280 277 286 292 298 296 286 297
300 300 301 301 301 301 301 302 301 302 302 298 295 298 293 286 291 290 287 288 291 289 286 288 289 289 293 286 282 280 281 285 281 282 282 285 286 284 283 282 285 292 295 298 284 287 298
300 301 301 301 301 301 301 301 301 302 302 299 296 299 293 286 291 294 295 291 291 290 285 289 288 287 287 283 283 283 282 285 284 287 286 283 282 283 285 281 279 294 297 291 295 299 299
300 300 301 301 301 301 301 301 301 301 301 301 293 299 298 291 291 297 298 299 297 296 292 291 289 288 288 285 285 285 282 283 285 281 289 285 288 286 288 287 294 298 297 297 298 297 299

GFSGBSN_sfc_thetae_060.txt.gz
Theta_e
308 309 309 310 311 311 311 311 311 311 311 312 311 311 312 312 312 312 313 312 312 311 311 311 312 312 311 300 296 306 319 322 321 317 310 309 307 305 301 303 304 302 303 305 307 306 306
309 308 309 309 309 309 309 309 309 310 311 311 312 312 312 312 312 312 313 312 312 312 311 311 311 311 307 295 303 309 311 312 313 314 311 310 307 308 304 303 302 304 304 304 306 306 307
308 308 309 309 309 309 309 309 309 309 310 311 312 312 313 312 312 311 312 312 312 312 312 312 311 309 303 300 305 307 306 306 309 312 309 312 312 306 305 302 306 304 301 303 305 306 305
309 308 308 308 309 309 308 308 309 310 310 310 311 312 312 312 312 312 311 311 311 311 312 312 312 309 298 308 309 307 308 306 307 310 311 311 312 307 305 306 303 300 301 297 303 304 305
307 308 307 308 308 308 308 308 308 308 309 310 310 311 311 311 311 311 311 310 311 311 312 312 308 305 297 309 305 308 311 303 305 306 310 311 309 305 305 300 298 300 295 297 299 305 305
307 307 307 307 307 306 307 307 308 309 309 309 309 310 310 311 310 310 310 310 310 310 311 311 308 299 302 296 303 310 313 309 303 303 306 306 305 300 301 298 291 295 295 297 297 302 303
307 307 307 306 306 305 306 307 307 308 308 308 308 309 309 310 310 310 308 308 301 301 300 295 298 299 301 307 311 304 311 308 305 302 298 303 298 294 297 300 300 299 297 296 299 301 300
306 306 307 306 306 306 306 306 306 307 306 307 307 308 308 309 310 309 308 301 297 299 291 300 299 299 301 303 298 302 310 300 301 295 300 300 295 299 301 301 299 297 295 296 299 301 299
306 306 306 304 305 306 305 305 305 305 306 306 307 307 308 309 309 308 304 302 306 304 293 296 301 299 300 301 295 298 305 303 299 297 295 296 297 301 300 298 296 297 295 296 296 298 300
304 305 306 305 306 306 303 304 303 305 305 305 307 307 308 308 304 306 303 306 308 306 288 290 295 299 300 299 293 301 302 301 297 295 297 295 299 297 299 297 298 293 299 298 297 296 291
304 304 305 305 304 305 305 303 303 304 304 304 307 306 307 307 305 302 304 308 308 303 279 292 295 305 301 296 295 297 302 298 291 293 297 294 295 294 295 297 299 296 300 298 298 296 295
304 303 304 304 304 304 305 304 304 303 303 304 305 306 307 305 307 306 308 308 305 288 278 288 294 293 294 296 294 299 297 300 299 294 298 297 301 299 298 299 300 301 298 298 298 296 289
302 302 303 303 304 304 304 303 303 303 303 304 304 305 305 306 301 308 308 302 288 281 290 288 289 293 292 291 293 294 294 291 290 286 289 295 296 300 301 296 300 299 295 289 287 288 287
302 303 302 302 303 304 304 303 303 303 303 304 304 305 305 304 308 308 302 293 280 284 286 293 291 292 289 293 293 293 292 289 294 292 290 287 286 295 300 298 295 296 296 290 283 286 290
302 302 302 302 302 302 303 303 303 303 303 303 303 303 302 305 308 307 293 283 283 285 290 289 291 287 288 291 291 292 292 291 292 295 288 288 289 298 299 301 299 296 292 298 292 294 291
301 301 301 301 301 302 303 303 303 302 302 302 300 299 298 306 310 301 288 283 286 291 291 290 285 288 285 288 288 291 291 293 293 296 297 294 288 295 298 301 301 299 301 291 293 285 284
300 300 300 300 301 301 301 302 302 301 301 301 298 292 301 307 307 292 282 284 288 292 292 289 287 287 288 287 288 288 291 293 294 294 298 294 294 293 297 295 295 296 295 296 296 293 287
299 299 299 300 300 300 301 301 301 301 301 299 295 285 303 306 288 288 283 287 291 290 293 291 291 290 288 289 287 287 287 292 295 296 293 295 293 289 293 297 300 299 296 297 291 290 293
299 299 299 300 300 300 300 301 301 301 301 299 290 289 301 302 282 283 288 288 290 289 290 289 289 291 292 288 285 288 289 294 295 293 296 299 291 284 287 293 296 295 296 297 298 297 292
299 299 299 299 299 300 300 301 300 301 301 299 290 284 291 294 292 287 286 286 286 292 291 291 290 292 290 288 291 288 289 292 295 296 298 301 296 290 285 289 295 293 295 297 296 291 291
298 298 299 299 299 299 300 300 300 301 301 298 289 286 290 284 285 286 287 288 286 286 291 291 289 289 288 284 287 286 290 291 293 295 297 297 289 293 294 294 295 294 294 295 294 295 291
298 298 298 299 299 299 299 299 300 300 301 294 285 285 290 289 290 286 285 285 286 288 288 287 287 289 290 286 288 286 289 289 289 292 291 295 289 291 289 292 293 290 293 294 294 296 296
298 298 298 298 298 299 299 300 300 300 300 292 293 295 289 287 287 286 286 287 287 290 290 291 290 288 288 290 293 294 294 294 293 291 289 290 292 289 284 290 290 286 291 293 296 298 297
297 297 298 298 298 299 299 300 300 301 301 297 295 293 286 281 286 286 287 288 288 289 289 291 292 289 293 297 297 296 295 293 293 293 294 289 291 291 285 287 279 291 298 298 297 298 299
299 298 298 299 300 300 300 300 300 301 302 297 297 295 288 282 286 286 288 288 290 292 290 291 292 295 296 293 288 286 287 288 290 292 293 293 291 288 284 284 287 290 293 294 295 293 298
299 299 299 300 300 300 300 301 301 301 302 298 298 299 293 287 286 289 288 289 287 288 289 291 294 296 294 290 287 281 280 284 284 286 293 292 293 289 287 282 280 290 296 300 298 288 299
300 300 300 300 300 300 300 301 301 302 302 300 294 301 295 286 290 291 288 288 291 290 288 290 290 289 292 288 284 283 283 288 283 284 284 285 288 285 285 284 287 295 297 301 286 290 300
300 301 300 300 301 301 301 301 301 302 302 300 296 299 296 288 290 294 295 291 292 291 287 291 289 289 287 285 285 285 285 288 287 289 287 286 285 285 286 283 281 298 297 291 298 302 302
301 301 301 301 301 301 301 301 301 302 302 301 292 300 301 292 290 298 298 299 297 296 293 293 291 292 292 288 289 289 287 290 288 284 293 287 290 288 290 289 299 302 300 301 302 300 300

GFSGBSN_sfc_thetae_063.txt.gz
Theta_e
310 309 309 310 310 310 309 310 310 310 310 311 311 312 312 312 312 312 313 313 313 313 312 312 313 312 309 304 305 314 320 320 322 317 313 310 308 308 304 305 305 304 305 307 308 307 307
309 309 310 309 309 309 308 309 309 310 310 311 312 312 312 312 312 311 312 312 312 312 312 312 312 311 306 296 313 314 309 307 307 314 313 312 309 310 306 305 305 306 306 306 307 307 308
309 309 308 309 309 309 310 309 309 310 311 311 311 311 311 311 311 311 312 312 312 312 312 312 312 311 303 300 312 312 309 306 305 304 307 314 314 309 309 305 308 306 302 304 305 306 305
308 308 308 308 308 310 308 309 308 308 309 310 310 310 311 311 311 311 311 311 311 311 312 312 312 311 300 309 313 311 312 308 308 307 306 312 314 311 307 308 305 302 302 298 304 306 307
309 308 307 308 308 308 308 308 308 308 309 309 309 310 310 310 311 310 310 311 310 312 311 312 311 308 299 310 305 308 309 305 307 307 307 308 311 306 307 301 299 301 296 298 301 307 306
307 308 308 308 308 307 307 307 308 308 308 308 308 309 309 310 310 310 310 309 311 311 311 313 310 302 305 300 304 310 314 311 306 305 303 302 304 301 300 298 290 295 297 299 299 304 304
308 307 307 307 308 306 307 307 307 308 307 307 307 308 308 309 309 309 309 310 304 304 305 298 300 302 301 307 310 308 312 310 307 302 295 299 296 296 298 299 299 300 300 299 302 305 303
306 307 307 306 306 306 306 307 307 306 305 306 306 307 308 308 309 309 310 303 302 302 294 301 302 302 304 304 298 303 311 303 301 296 298 295 294 299 301 300 299 299 298 298 302 303 301
305 305 305 306 307 304 306 306 306 305 305 306 305 306 307 308 308 308 306 305 310 307 295 298 302 301 302 303 297 299 305 304 299 296 297 292 297 301 299 298 297 299 298 298 298 302 302
305 305 304 306 306 306 305 306 305 304 305 305 305 306 307 307 304 306 303 308 311 308 290 294 297 301 303 300 294 302 306 303 300 296 297 297 299 298 298 297 299 295 301 300 299 298 294
305 305 305 305 304 305 305 305 305 303 304 304 305 305 307 306 304 301 305 311 311 304 282 293 298 307 303 297 298 298 303 302 296 296 295 296 297 295 295 297 300 298 302 300 299 297 297
304 304 304 304 304 304 305 305 305 303 304 304 304 305 306 305 307 307 310 311 307 289 282 291 296 295 296 298 298 298 298 301 300 294 295 294 300 300 298 299 300 302 300 299 299 298 291
303 303 303 303 303 304 304 305 305 303 303 303 304 305 304 304 299 309 310 303 290 284 292 290 291 294 294 294 296 296 295 293 289 285 288 293 293 299 302 296 299 299 296 290 289 289 288
302 302 302 303 303 303 304 303 304 304 303 302 303 304 304 305 305 310 306 294 283 287 288 294 293 293 290 294 295 296 294 290 293 294 290 287 285 295 300 298 295 297 296 291 285 287 291
301 301 302 302 302 302 303 303 303 303 303 303 303 301 302 305 308 307 297 286 286 288 291 290 291 288 289 293 293 294 294 293 294 294 289 289 288 297 299 301 299 296 293 298 292 296 292
301 301 301 301 302 302 302 302 302 302 302 302 299 299 299 307 309 303 290 285 289 292 293 292 285 289 286 290 291 293 293 296 294 296 297 294 288 295 298 300 301 297 301 292 294 285 285
300 300 300 301 301 301 301 301 301 302 302 301 297 291 302 308 307 294 285 287 290 293 294 290 289 288 289 289 290 291 292 295 296 295 299 296 294 292 297 295 295 295 295 297 296 294 287
299 299 300 300 300 300 300 300 301 301 301 298 295 286 304 306 291 292 286 289 292 292 294 292 293 291 290 291 289 290 289 293 297 296 297 297 293 288 292 298 301 299 297 298 292 290 294
299 299 299 299 299 300 300 300 301 301 300 298 289 291 304 303 284 286 290 289 291 290 291 291 290 292 293 290 287 291 291 296 296 294 294 298 291 286 288 295 298 296 299 299 298 297 292
299 299 299 299 300 300 300 300 300 301 301 299 291 285 292 296 294 289 287 287 287 292 291 293 291 293 291 290 292 289 291 294 296 294 297 298 296 290 285 290 295 292 296 297 296 291 293
298 298 298 299 299 299 299 299 300 301 301 298 292 287 291 285 288 289 289 289 286 286 292 292 290 290 289 287 288 288 292 293 295 295 295 295 290 294 294 296 297 295 294 295 294 295 291
298 298 298 298 299 299 299 299 300 300 300 293 288 288 292 290 291 288 288 286 286 289 290 288 288 290 291 288 289 287 291 292 291 294 293 296 288 291 291 294 295 293 296 297 297 297 297
298 298 298 298 299 299 299 299 300 300 299 292 295 295 292 288 288 287 287 287 287 290 292 293 291 290 289 291 294 296 297 296 295 292 291 292 290 288 284 291 290 287 293 294 295 298 298
298 298 298 298 298 299 299 299 300 300 300 296 295 293 287 284 286 287 288 289 289 290 289 291 293 291 294 300 299 297 295 294 294 294 295 290 290 289 286 288 279 292 298 299 297 299 300
299 299 299 299 299 299 299 299 299 300 300 301 298 294 289 283 286 287 288 289 291 292 291 292 294 297 300 295 288 286 287 288 290 293 294 295 291 288 284 285 289 291 294 296 296 295 300
300 300 300 300 299 300 300 300 300 300 301 301 301 300 293 286 285 289 288 289 288 289 290 292 297 300 296 290 288 282 281 285 285 288 294 294 294 290 288 282 280 291 298 300 301 291 300
300 301 301 301 301 300 300 300 300 300 301 300 296 303 294 286 291 292 288 288 292 291 290 292 291 290 292 287 285 284 284 289 284 284 285 287 288 285 286 285 289 296 298 301 288 291 301
300 301 301 301 301 301 300 300 300 301 301 299 296 299 294 289 291 294 295 293 293 293 288 291 290 290 288 285 285 286 286 288 288 290 288 286 285 285 287 284 281 299 297 293 299 303 302
300 301 301 301 301 301 301 301 301 301 301 301 294 298 299 291 293 298 298 299 298 297 293 291 291 291 293 290 290 290 287 290 289 285 294 286 290 289 289 289 300 303 302 304 304 302 302

GFSGBSN_sfc_thetae_066.txt.gz
Theta_e
309 310 310 309 309 309 309 309 310 310 310 311 311 312 312 312 312 312 312 312 313 312 312 312 312 313 309 299 301 312 321 321 318 318 311 308 305 305 301 304 305 302 303 305 307 307 306
310 310 309 309 309 309 309 309 309 310 309 310 311 311 311 311 311 311 312 312 312 312 312 312 312 312 305 294 308 312 313 309 307 309 313 311 307 308 304 304 303 305 304 304 306 306 307
309 309 309 309 308 309 309 308 309 309 309 309 310 310 310 311 310 310 311 311 311 311 312 312 312 310 303 299 308 308 308 306 307 305 302 310 313 308 307 303 307 305 301 303 304 305 304
310 310 308 308 309 309 309 308 308 308 308 309 310 309 310 310 310 310 310 310 310 311 312 312 313 310 299 310 311 308 310 308 311 309 305 305 309 308 306 308 305 301 301 295 302 304 305
309 309 309 308 308 308 308 307 307 307 308 307 308 308 309 310 310 309 309 309 309 311 312 313 309 307 300 313 306 308 309 305 307 308 307 306 304 303 304 300 297 298 292 295 297 305 304
308 309 308 308 308 308 307 307 308 308 308 308 307 307 308 309 309 308 308 308 310 312 312 312 311 302 306 301 307 309 313 310 304 305 304 302 299 296 299 296 289 292 293 296 297 302 304
307 307 308 308 307 307 308 307 308 308 306 306 306 307 307 308 308 308 306 307 302 303 307 301 301 301 302 306 307 305 310 309 307 304 297 300 293 289 296 298 299 297 295 295 299 304 303
306 306 306 307 307 307 307 306 308 307 306 305 306 306 306 308 308 308 307 304 302 303 294 301 301 301 303 305 298 301 309 302 302 296 299 296 290 296 298 299 298 296 294 295 300 304 302
306 306 306 306 305 306 307 306 306 307 305 305 305 305 305 307 308 306 307 304 310 308 294 298 302 301 302 303 298 298 303 303 299 296 296 293 294 297 296 297 296 296 294 295 296 301 302
306 306 305 306 305 305 306 306 305 305 305 305 305 305 306 307 302 306 302 308 310 309 288 296 298 302 304 301 296 303 303 301 299 295 297 295 300 296 295 296 297 292 298 298 298 297 292
305 305 305 305 305 304 304 305 305 304 305 304 304 304 306 305 301 299 305 309 310 305 281 295 298 308 304 298 299 299 303 300 296 296 296 293 296 293 292 295 299 295 301 299 298 296 295
303 303 304 304 304 304 304 304 305 304 304 304 304 304 305 302 303 305 309 309 306 287 281 291 297 297 297 299 299 299 297 301 302 297 297 295 299 297 296 298 300 301 298 298 298 296 288
302 302 302 303 303 303 304 304 304 304 304 303 303 303 303 303 297 306 308 302 288 282 293 290 292 294 294 293 296 297 294 291 289 287 287 292 293 298 298 294 298 297 293 286 286 287 286
301 301 302 302 303 303 303 303 304 303 303 303 304 304 302 302 304 307 303 292 281 288 291 295 293 293 289 292 295 296 293 290 292 291 288 286 285 294 298 295 293 293 292 288 282 285 288
300 301 301 302 302 302 303 303 303 303 303 302 303 300 300 303 307 306 293 283 284 288 292 291 292 287 288 292 293 294 294 293 295 293 286 287 287 297 298 299 298 293 289 296 291 292 288
300 299 300 301 301 302 301 302 302 302 302 302 298 296 296 307 309 301 288 284 289 294 293 293 286 288 287 290 290 292 293 296 294 297 297 292 285 294 296 299 298 297 298 289 291 283 283
299 300 300 300 300 301 301 301 301 302 301 301 296 290 299 307 304 293 281 285 290 295 294 290 289 287 289 289 290 290 292 296 297 295 297 295 291 290 296 293 293 294 292 294 294 291 287
298 299 300 300 300 300 300 301 301 301 301 298 294 285 302 307 290 289 284 289 293 292 295 292 292 291 290 290 289 289 290 293 297 296 293 297 293 287 290 298 299 297 294 295 288 288 292
299 299 299 300 299 299 300 300 300 301 301 297 290 290 300 302 283 286 289 289 291 290 291 290 290 291 293 290 286 290 292 296 296 294 291 292 290 284 286 293 297 294 296 296 296 294 289
299 299 299 299 300 300 300 300 300 301 301 298 289 284 290 296 294 288 286 287 287 292 290 292 291 292 290 288 291 288 290 295 296 296 296 295 291 289 284 287 293 292 294 296 296 290 291
299 299 299 298 298 299 299 300 300 301 300 297 289 286 290 284 287 288 289 289 286 286 292 292 289 290 289 286 288 288 291 292 294 296 295 293 288 291 292 295 295 292 293 295 293 294 290
298 298 298 298 299 299 299 300 300 300 300 292 286 287 290 286 289 288 288 286 286 288 289 288 288 290 290 287 288 286 290 290 290 295 293 294 288 290 288 294 295 292 294 295 296 296 295
298 298 298 298 298 298 299 299 300 300 299 291 293 293 291 287 287 286 287 287 287 289 291 293 291 290 289 291 294 295 296 295 294 292 291 290 289 287 284 290 290 288 293 294 295 297 297
298 298 298 299 299 298 299 299 300 300 299 297 294 293 287 282 284 285 287 288 288 289 287 291 293 290 294 299 299 297 295 294 294 293 294 290 288 287 284 286 279 292 299 298 296 296 298
298 298 299 299 300 299 299 299 300 300 300 299 297 291 289 283 285 286 287 288 290 291 289 291 293 296 300 296 289 285 286 287 289 292 292 294 289 285 284 284 288 290 294 294 295 294 299
298 298 299 300 300 300 299 299 299 299 299 300 298 300 292 286 284 288 286 288 286 288 289 292 296 300 298 292 286 279 279 284 283 287 293 293 294 287 286 281 279 291 297 300 300 290 299
299 299 300 300 301 301 300 299 300 300 299 299 296 301 293 287 290 290 287 287 290 289 288 291 292 291 295 287 282 281 281 287 282 284 285 286 287 284 284 283 287 295 298 300 288 290 301
299 299 300 300 301 301 301 300 300 300 300 299 296 301 293 288 289 292 293 289 290 292 287 291 290 290 287 283 284 285 285 287 286 288 287 285 284 284 285 283 281 299 297 292 298 301 301
299 299 300 300 300 301 301 301 300 300 301 300 293 301 301 291 290 297 297 298 296 296 292 293 290 291 291 288 289 290 286 290 288 283 292 285 290 287 288 287 300 302 301 303 303 301 301

GFSGBSN_sfc_thetae_069.txt.gz
Theta_e
310 310 310 310 310 309 309 309 310 311 310 309 310 311 311 311 311 311 311 311 311 311 311 312 312 312 306 297 297 306 320 322 319 316 310 307 300 297 295 298 301 299 300 302 303 303 303
309 309 310 310 309 309 309 310 309 310 309 309 310 311 310 310 310 310 310 310 311 311 310 311 312 311 302 290 303 305 305 304 306 302 306 306 305 302 300 300 298 302 302 302 303 302 302
309 310 309 309 309 309 308 309 309 308 308 308 309 309 309 309 309 309 309 310 309 310 310 311 312 308 300 296 305 305 305 303 303 301 298 301 300 301 303 299 303 302 297 300 301 300 300
309 309 310 309 310 310 310 308 308 307 308 308 308 308 309 309 309 309 309 309 309 309 310 311 312 307 296 308 307 307 305 303 305 304 303 303 302 299 301 304 302 298 297 291 298 301 302
309 309 309 308 310 310 310 308 308 308 307 308 308 308 308 308 308 309 309 308 308 309 311 313 306 303 297 313 305 308 306 302 303 305 304 307 300 296 299 295 292 295 288 291 295 301 300
307 307 308 309 309 308 308 308 309 309 308 307 306 307 308 308 307 307 307 307 308 310 310 310 308 300 304 302 304 305 306 309 302 300 301 298 295 291 293 291 284 288 290 290 292 297 299
307 307 306 306 307 308 308 308 308 308 308 306 305 306 306 307 307 307 304 299 297 297 299 298 300 300 302 305 304 301 303 307 305 297 292 296 290 286 290 294 296 295 294 292 294 299 297
306 306 306 306 306 306 306 308 308 308 307 305 305 305 305 306 307 307 302 297 300 299 291 299 299 299 301 301 296 300 302 296 299 292 295 293 288 294 297 297 293 295 292 291 296 300 298
306 307 306 306 306 305 306 306 307 307 307 306 306 305 305 306 306 302 300 301 308 303 290 294 299 298 299 302 296 297 298 299 296 293 294 292 294 298 296 293 291 293 292 292 293 297 298
306 305 306 307 306 306 305 305 305 306 305 306 305 305 305 306 299 298 296 306 307 305 286 290 296 299 302 301 294 301 300 297 295 293 296 295 299 296 293 291 293 289 298 297 295 293 287
305 304 304 305 305 305 304 304 304 305 305 305 305 305 305 305 296 293 299 306 306 300 274 297 297 306 303 296 297 296 300 297 291 295 295 292 295 295 293 293 295 293 299 296 295 292 291
303 303 302 303 304 304 304 304 304 304 305 304 305 305 305 299 297 298 302 303 302 286 276 290 297 295 295 296 297 296 295 297 298 296 296 295 299 297 296 297 298 299 296 296 295 292 284
302 302 301 302 302 303 303 304 304 304 304 304 305 304 301 300 292 300 300 298 283 277 292 289 291 295 294 292 294 294 290 288 287 284 286 292 293 296 298 293 297 296 291 285 284 282 281
302 301 301 302 302 302 303 303 304 304 303 303 304 304 301 299 298 299 297 290 277 286 288 295 293 292 288 291 291 293 289 284 288 288 284 284 283 292 296 293 291 292 291 285 280 281 285
301 301 300 300 301 302 302 302 302 303 303 303 303 295 294 297 299 297 291 279 280 285 290 290 291 287 286 289 291 292 290 289 289 289 283 284 286 295 298 298 296 292 288 294 286 288 284
300 300 300 300 301 301 301 302 302 302 302 302 292 291 292 298 300 294 286 280 284 290 291 291 285 288 284 288 289 288 290 295 294 294 293 290 284 293 296 298 298 295 297 286 286 281 280
300 300 299 300 300 300 301 301 301 301 302 301 291 286 293 298 300 290 279 281 285 290 291 289 288 287 287 287 288 287 292 295 295 293 295 292 289 288 294 292 291 292 290 291 291 289 283
298 298 299 299 300 300 300 300 300 301 301 297 290 282 294 302 285 286 280 285 290 288 292 290 290 289 287 288 287 288 288 293 296 294 290 292 289 285 288 295 298 296 293 292 286 286 289
298 299 299 300 300 300 300 300 300 300 300 293 287 285 294 296 280 281 285 285 287 286 287 289 288 290 290 286 284 288 290 296 295 293 290 291 287 283 285 291 295 292 294 295 294 292 288
299 299 299 299 299 299 300 300 300 301 301 294 287 280 285 288 287 285 284 283 285 290 289 290 288 290 288 286 289 286 288 294 295 294 297 295 289 286 282 287 292 288 292 295 293 287 288
299 299 299 299 299 299 299 299 300 300 300 294 287 280 285 275 279 283 285 286 285 284 290 290 286 287 286 283 286 285 289 290 293 297 294 293 285 289 289 290 292 293 290 293 291 292 289
298 298 298 298 298 299 299 299 299 300 300 291 284 280 285 283 286 283 283 283 284 285 287 287 286 288 288 285 285 284 289 289 289 293 291 293 285 288 286 291 292 291 293 293 294 295 294
298 298 298 299 298 299 299 299 299 300 299 287 288 291 286 282 284 282 283 285 285 287 289 290 290 288 287 290 291 292 292 292 292 290 288 289 287 285 281 288 288 284 291 293 295 297 295
298 298 298 299 299 299 299 299 300 300 299 291 289 291 282 277 281 282 284 285 286 287 286 290 290 289 293 297 295 293 292 292 291 290 292 288 287 286 281 285 278 291 296 298 295 297 297
297 298 299 299 299 299 300 300 300 300 300 293 292 290 285 279 282 283 284 284 287 288 287 288 291 295 297 295 287 283 281 283 286 289 289 290 286 280 278 281 286 290 293 292 293 292 298
298 298 298 298 299 300 300 300 299 299 299 294 293 293 290 282 280 286 284 285 282 284 286 289 294 296 295 289 281 277 276 281 281 285 290 289 288 282 280 278 279 290 296 299 300 287 298
297 298 298 298 299 300 300 301 301 298 299 295 291 295 289 284 285 286 282 283 289 286 284 287 289 289 292 281 279 276 276 285 278 281 283 282 282 281 279 279 284 294 297 299 286 289 300
298 299 299 299 300 300 301 301 301 299 299 296 291 295 289 282 286 288 289 285 287 287 284 289 288 289 286 276 279 279 277 283 282 286 286 283 280 280 282 278 277 298 298 291 295 299 298
299 299 299 299 299 300 301 301 301 300 300 299 288 295 295 289 286 293 293 294 292 292 289 290 289 288 289 283 282 283 280 282 284 280 291 283 285 282 284 283 296 299 298 301 300 297 296

GFSGBSN_sfc_thetae_072.txt.gz
Theta_e
309 309 310 310 309 309 309 310 310 310 309 309 309 310 310 310 310 310 310 310 310 309 309 309 310 312 306 296 296 304 317 313 318 315 311 308 302 295 291 294 296 297 299 302 303 302 301
309 309 310 309 310 309 309 309 309 309 308 308 308 309 309 309 309 308 309 309 309 309 308 309 310 311 301 289 300 303 303 304 305 305 302 306 303 300 295 296 294 298 300 301 302 300 301
309 310 310 310 309 308 309 309 308 308 308 307 308 308 308 308 307 307 308 308 308 309 308 309 310 307 298 293 302 300 303 302 301 300 296 299 299 294 297 297 302 300 295 297 298 298 298
309 309 309 309 310 310 309 309 309 308 308 308 308 308 308 308 308 308 308 307 307 308 308 309 310 305 295 306 304 304 303 302 304 303 300 301 301 296 295 300 299 296 295 290 297 298 300
308 308 308 309 309 310 309 309 309 308 308 308 307 307 308 308 308 307 307 307 307 309 310 310 306 301 294 312 305 307 305 302 302 303 301 305 299 293 295 292 290 292 287 289 292 298 298
307 307 307 307 307 308 308 309 309 309 308 307 307 306 307 307 307 306 306 306 307 310 309 310 307 299 302 300 304 302 302 303 302 299 299 296 293 288 288 288 283 287 288 287 288 295 297
306 307 307 307 306 307 307 307 308 308 307 306 306 305 306 307 307 306 303 298 297 295 298 297 298 299 301 305 304 299 302 299 303 295 290 294 287 284 287 289 292 292 290 289 292 298 295
307 307 307 306 306 306 306 306 307 307 306 306 306 305 305 306 306 306 302 297 299 299 290 298 298 298 301 301 295 299 301 293 296 291 292 291 286 291 294 294 293 292 289 288 294 298 295
305 305 306 306 307 306 306 306 305 306 306 305 306 305 305 306 306 301 295 299 305 303 289 293 296 296 297 298 293 294 298 294 294 292 292 288 292 296 294 293 291 290 289 290 291 296 295
305 305 305 305 306 306 306 305 304 304 305 305 306 306 305 305 297 296 295 301 302 303 284 288 293 298 299 299 293 300 299 295 294 291 294 293 297 295 292 291 293 287 294 295 294 292 285
304 303 303 303 304 304 305 305 304 304 304 305 305 306 305 304 295 292 298 300 301 299 273 293 295 304 301 295 295 295 298 295 290 294 294 290 293 293 292 292 294 290 296 295 295 290 288
302 303 303 302 302 303 303 304 304 304 304 304 304 305 304 297 293 296 298 298 298 283 274 289 296 294 294 295 296 294 293 295 295 295 295 293 298 296 294 298 298 296 295 295 294 290 282
302 302 302 301 302 302 302 303 304 304 304 304 304 304 301 299 289 296 297 294 280 276 289 288 290 294 293 292 293 291 288 287 286 283 285 289 292 294 298 292 296 295 291 284 283 282 280
301 302 301 300 301 302 302 302 303 303 303 303 303 303 300 298 296 294 293 286 275 283 285 291 290 292 289 291 291 290 286 283 287 287 282 281 280 291 296 293 291 292 291 285 278 279 283
300 301 301 300 300 300 301 302 302 302 302 302 302 293 292 294 296 294 289 277 278 283 288 286 288 286 286 289 289 290 286 285 286 288 282 281 284 293 295 296 294 290 287 294 286 287 283
299 301 300 300 300 300 301 301 301 301 301 302 290 288 289 296 295 294 285 277 281 287 288 286 282 288 283 286 286 288 288 293 291 290 290 287 282 290 295 298 297 294 296 286 287 280 279
300 299 300 299 299 300 300 300 300 301 301 301 288 283 290 294 295 289 277 279 284 288 289 286 284 284 285 285 285 286 290 294 293 292 294 290 287 286 293 291 290 292 290 291 290 288 283
298 298 298 299 299 300 300 300 300 300 300 295 286 278 291 299 283 285 280 283 288 285 289 287 288 287 285 287 285 286 288 292 295 294 289 290 287 283 287 295 297 295 292 291 287 285 287
298 298 299 299 299 300 300 300 300 300 299 289 286 285 291 292 279 279 283 284 286 285 285 285 286 288 288 285 282 287 290 295 294 291 288 290 286 280 284 290 293 291 293 293 292 291 287
298 299 299 299 299 300 299 300 300 300 300 292 286 276 281 285 283 280 282 282 282 289 287 287 287 289 286 285 287 284 288 294 295 293 297 293 287 284 280 286 290 289 291 293 292 286 286
298 298 299 299 299 299 299 299 299 300 299 293 287 279 281 273 282 283 282 282 281 281 288 290 286 287 285 282 283 283 289 290 294 296 293 290 282 286 289 289 289 291 291 292 290 291 287
298 298 298 298 298 298 299 299 299 299 299 291 282 278 282 281 283 281 281 280 279 283 286 285 285 287 288 284 285 283 288 288 288 292 290 291 283 285 284 290 290 287 291 293 291 293 292
298 298 298 298 299 299 299 299 299 299 298 289 289 287 283 281 279 276 281 282 282 284 288 288 287 286 285 288 291 290 291 291 291 288 287 287 285 282 279 286 286 283 289 292 292 295 294
298 299 298 298 298 299 299 299 300 299 298 292 287 285 281 276 279 279 281 283 282 284 284 288 290 287 292 297 295 293 291 291 290 290 290 286 285 283 279 282 276 288 292 294 294 296 298
298 298 298 298 298 299 299 299 300 299 299 291 290 289 285 277 280 281 283 283 285 286 285 287 290 294 297 292 285 282 280 282 285 288 288 289 284 278 277 277 283 286 293 293 293 292 298
298 298 298 298 298 299 299 299 300 300 300 295 292 291 289 280 278 284 282 284 282 283 285 288 293 294 293 286 283 277 276 280 280 284 289 287 286 280 280 276 275 288 294 299 299 287 298
297 297 297 297 298 299 299 299 300 300 300 295 292 292 289 283 285 286 282 283 288 285 283 287 287 288 289 283 278 277 276 283 277 280 280 280 281 279 278 276 281 291 297 299 286 288 300
297 297 297 298 298 299 299 299 300 301 301 296 292 293 289 284 285 287 287 283 283 284 280 286 285 288 285 277 278 278 276 281 281 283 283 281 280 277 278 276 275 294 297 289 295 298 299
297 297 298 299 299 299 299 300 300 300 301 298 290 293 293 288 283 291 291 291 289 289 286 288 286 286 289 284 281 281 277 277 282 278 290 281 286 282 282 281 293 297 297 299 298 294 295

GFSGBSN_sfc_thetae_075.txt.gz
Theta_e
309 308 309 309 309 308 309 309 309 309 309 308 308 308 309 309 309 309 309 309 308 308 308 308 309 309 305 295 294 302 315 310 307 314 310 308 301 295 289 291 293 294 297 300 300 300 298
309 309 310 309 308 308 308 308 309 308 308 308 308 309 309 309 308 307 308 309 309 308 307 308 308 309 300 288 300 301 301 301 301 308 306 306 302 300 295 293 291 295 296 297 299 299 299
309 308 309 309 309 308 308 309 308 308 308 308 308 308 308 307 307 307 307 308 308 308 307 308 309 306 298 294 302 301 302 300 300 299 295 297 298 293 294 292 298 298 294 296 296 296 295
308 308 309 309 309 309 309 308 309 308 308 308 308 308 308 307 307 307 308 307 307 308 309 309 309 304 294 306 304 303 302 301 303 302 299 299 299 295 292 295 297 294 293 288 295 296 297
308 307 307 307 307 308 309 308 308 308 307 307 307 307 307 307 307 307 306 306 308 309 311 309 305 301 293 309 305 307 304 301 301 301 300 303 298 293 292 288 287 289 286 288 291 297 295
307 306 306 306 306 306 307 307 308 308 307 307 307 307 307 307 307 306 306 307 308 308 309 309 307 297 300 298 304 304 302 303 299 298 298 295 291 287 286 286 281 284 286 285 287 291 294
307 306 306 306 306 306 306 306 307 307 307 306 306 306 306 307 306 306 303 300 298 296 298 296 298 298 300 304 304 299 301 298 300 294 288 292 286 283 285 287 290 290 288 286 288 294 293
305 306 306 306 306 306 306 306 305 305 306 306 306 305 305 306 306 306 298 296 295 296 290 298 297 297 302 303 295 298 301 294 293 290 290 288 285 290 291 290 290 290 287 287 291 295 295
304 304 305 305 305 306 307 306 305 304 305 305 305 305 305 305 305 297 293 296 300 297 289 292 296 295 296 298 293 294 297 294 292 290 289 286 289 295 292 290 289 289 287 288 289 294 295
303 304 304 303 304 305 305 305 305 304 304 304 305 305 306 305 294 294 292 298 297 297 282 286 292 295 297 297 291 297 298 294 292 290 291 290 294 294 291 290 291 286 292 292 292 290 284
301 303 302 301 302 302 303 303 304 304 304 305 304 304 305 303 292 290 295 297 298 297 272 289 295 303 299 294 294 295 298 294 290 293 293 289 292 291 290 291 293 289 295 293 293 290 289
300 301 302 301 301 301 302 302 303 304 304 304 304 304 305 296 292 293 295 296 295 280 272 286 295 294 293 295 295 293 293 295 294 293 293 291 296 295 293 295 295 296 294 293 292 290 283
300 301 301 300 300 301 302 302 302 303 303 303 303 303 301 299 288 293 294 291 278 275 286 286 287 290 292 291 292 290 288 287 285 283 283 288 290 293 296 290 294 295 290 282 281 281 280
299 300 301 299 299 300 301 301 302 302 302 302 302 302 298 297 294 293 290 284 273 280 283 289 288 287 287 291 291 289 286 283 286 286 282 280 278 290 295 291 290 291 289 283 277 278 280
299 299 300 300 299 300 300 301 301 301 301 302 300 291 290 292 294 292 287 273 276 281 286 283 286 286 286 288 287 287 285 284 285 287 282 280 281 291 294 295 294 291 286 292 286 287 281
298 299 300 299 299 299 300 300 300 300 301 301 289 287 287 293 294 294 283 276 279 286 286 285 281 285 281 284 284 284 285 290 288 288 288 285 280 288 292 295 295 293 296 285 287 279 277
300 299 297 298 299 299 299 300 300 300 300 300 287 281 288 293 294 288 277 277 282 287 286 283 282 282 283 283 285 284 287 292 292 291 290 289 284 284 292 289 289 291 290 290 290 287 282
299 298 297 298 298 299 299 299 300 300 299 293 284 273 288 293 284 280 276 282 287 285 287 285 286 285 284 284 284 285 286 291 296 294 289 290 287 282 285 292 295 294 291 291 285 283 285
298 297 297 298 299 299 299 299 300 300 298 288 282 281 291 294 274 277 281 282 285 283 284 285 283 285 288 284 281 286 289 295 294 291 289 291 285 279 282 288 292 290 292 293 292 290 285
297 297 298 299 299 299 299 299 299 299 299 291 285 270 278 283 282 277 275 278 280 287 285 286 285 287 285 283 286 284 285 291 295 293 297 293 285 282 277 283 289 286 290 293 291 286 286
297 297 298 298 299 298 298 299 299 299 298 292 287 277 280 270 281 282 283 282 278 279 285 287 284 285 284 281 283 282 288 290 293 295 292 288 281 285 287 288 288 287 287 290 288 290 287
296 297 298 298 299 298 298 298 299 299 299 291 283 280 283 280 282 279 281 279 279 282 282 282 283 285 286 284 285 282 287 287 287 290 288 289 282 284 282 287 287 284 287 288 290 292 291
298 297 298 298 298 298 299 298 298 299 296 287 290 290 283 280 279 274 273 280 280 283 285 287 286 285 283 285 290 290 289 290 288 286 286 286 284 281 277 282 282 280 286 286 289 294 292
297 297 298 298 299 298 298 299 299 300 296 289 285 285 281 274 278 278 280 281 280 282 281 285 287 285 289 294 294 292 290 289 288 288 290 285 284 282 277 280 273 285 289 294 291 294 296
298 298 298 298 298 298 299 299 299 299 299 293 292 289 282 275 280 280 280 282 282 285 283 285 288 292 296 291 283 282 281 282 284 286 287 288 283 278 275 276 280 283 291 292 291 292 298
298 298 298 298 298 299 299 299 299 299 299 295 291 293 288 280 277 283 280 282 280 282 283 286 291 294 294 286 283 277 276 280 279 282 287 286 285 280 278 274 272 284 290 297 296 287 298
298 298 298 297 297 299 299 299 299 299 300 297 293 295 290 283 283 285 281 281 285 284 282 285 285 288 289 282 278 277 277 283 277 279 280 280 280 278 276 275 279 287 291 295 282 288 299
297 297 297 297 297 298 298 299 299 299 299 298 289 295 289 283 282 287 288 283 284 283 281 285 284 285 285 279 279 279 277 280 280 282 282 281 279 275 277 277 274 293 294 287 291 297 296
296 296 297 298 298 298 298 298 299 299 300 299 290 295 294 285 282 289 290 291 289 288 285 286 284 286 285 282 283 283 276 276 280 276 287 275 283 282 281 281 291 292 293 294 296 294 293

GFSGBSN_sfc_thetae_078.txt.gz
Theta_e
309 309 309 309 310 309 309 309 309 308 308 308 308 308 309 309 308 307 307 308 307 307 307 308 308 308 303 293 292 300 310 306 308 311 306 306 299 295 289 290 290 291 293 297 298 298 297
309 308 309 310 309 309 309 309 309 309 308 308 308 308 308 308 307 306 306 308 308 307 307 308 308 308 299 288 300 299 301 301 299 308 306 306 301 300 295 292 290 292 292 293 295 296 298
310 308 308 308 308 309 309 309 308 309 308 308 308 308 308 307 306 306 306 307 307 308 308 309 309 305 298 293 303 302 303 300 298 298 297 298 300 294 292 289 294 295 292 294 294 294 295
309 308 307 308 308 309 309 308 308 308 308 308 307 307 307 307 306 307 307 307 307 309 310 311 309 303 294 306 305 303 302 301 302 301 299 299 297 294 291 293 293 291 290 286 292 294 295
307 307 306 306 307 306 307 308 307 308 308 307 307 307 307 307 307 307 306 306 308 310 310 310 303 300 293 309 303 307 304 300 301 299 298 302 297 292 291 286 283 286 282 286 289 296 294
307 306 306 306 306 306 306 306 306 307 307 307 307 306 306 307 307 306 305 306 307 308 308 308 306 296 299 297 305 304 303 303 299 298 297 294 290 286 286 284 277 281 284 284 284 290 291
307 306 306 306 306 305 306 306 306 305 306 306 306 305 305 306 306 305 302 299 293 292 295 292 295 297 298 303 305 300 301 299 299 295 288 291 285 283 284 287 287 288 286 285 286 292 291
305 305 305 305 305 306 307 306 305 304 304 305 305 305 304 305 305 304 295 294 292 292 285 295 296 296 300 301 295 299 301 293 294 290 290 288 284 288 289 288 287 286 284 285 289 293 292
304 304 305 305 304 305 306 306 305 304 304 304 304 304 304 304 303 294 291 293 296 295 286 291 295 294 296 297 292 293 296 294 290 288 289 285 288 293 290 289 287 287 285 286 286 291 293
303 304 304 303 303 303 303 304 304 304 304 304 305 304 304 305 293 292 291 296 295 294 281 284 291 295 297 297 290 298 298 294 291 288 291 289 293 291 290 289 289 284 291 290 289 288 282
302 303 302 301 301 301 301 302 303 303 303 304 304 303 304 302 291 288 293 295 295 293 269 286 293 301 297 292 294 293 298 294 288 292 292 288 292 291 289 290 292 288 293 292 291 287 286
300 301 301 301 300 301 302 303 302 303 303 303 303 303 303 295 292 292 293 293 293 277 270 283 293 291 291 294 293 292 293 295 296 294 293 291 295 294 292 294 294 294 292 291 290 287 281
300 300 301 301 300 300 301 301 302 302 302 302 302 302 299 297 288 292 292 290 275 272 284 283 284 287 287 288 291 290 288 286 285 282 283 287 290 293 295 289 293 292 289 280 280 280 279
300 300 301 300 299 299 300 300 301 301 301 302 302 301 296 296 292 292 289 281 271 278 281 286 284 285 284 288 289 289 285 283 286 286 282 281 278 290 294 291 288 289 288 280 276 278 280
298 298 299 300 299 299 300 300 300 301 301 301 300 289 288 291 292 291 283 271 274 279 283 281 282 283 283 286 285 285 284 283 285 287 282 279 280 291 293 293 293 290 287 291 285 286 283
298 299 299 299 298 298 299 300 300 300 300 301 287 285 285 292 292 289 277 276 278 284 284 284 278 284 280 282 282 282 283 287 286 288 289 285 280 288 291 294 293 293 295 286 286 278 277
298 300 298 297 298 298 298 299 299 300 300 299 285 280 287 292 291 282 269 276 280 285 286 282 280 279 280 280 283 282 286 290 292 289 288 287 284 284 291 288 287 290 289 289 289 287 279
297 299 297 297 297 297 299 299 299 299 299 292 282 272 288 291 278 281 273 281 286 284 286 284 284 282 281 284 282 283 284 289 295 293 288 290 287 281 284 291 294 294 289 289 285 282 285
297 298 297 297 298 299 299 298 299 299 298 286 280 279 288 289 270 275 281 282 284 282 283 283 283 284 285 283 280 284 286 292 293 291 290 289 285 279 281 286 292 289 291 291 291 289 283
296 297 297 298 298 298 298 299 298 299 299 288 283 271 278 285 282 279 275 278 279 285 284 285 284 285 283 282 285 283 284 289 292 294 297 292 285 281 277 280 287 284 287 289 289 284 285
298 297 297 298 298 298 298 298 298 298 299 290 285 277 279 270 279 280 280 280 277 278 284 284 282 283 282 279 282 281 285 287 291 295 293 288 282 284 284 286 286 286 285 286 285 288 285
297 296 297 298 298 298 298 298 298 298 298 287 281 278 280 279 281 278 280 278 278 281 282 280 282 283 283 281 283 281 286 285 285 290 289 288 282 283 281 284 283 281 282 284 285 287 289
297 297 297 298 298 298 298 298 298 298 295 287 286 290 282 280 279 273 271 278 279 281 281 284 283 281 281 284 287 288 291 291 289 287 285 286 283 280 277 281 281 276 282 283 285 288 290
297 297 297 297 298 298 298 298 299 299 295 286 284 284 278 274 278 278 279 280 278 280 278 283 285 282 287 293 293 290 291 290 289 288 288 284 283 281 277 279 270 280 286 287 290 292 293
296 297 297 298 298 298 298 298 299 299 299 292 287 285 278 272 280 279 280 279 281 281 280 282 287 290 291 289 285 281 281 282 283 286 286 287 283 278 274 275 278 281 288 288 287 286 296
297 297 298 298 298 298 298 298 299 299 299 295 292 290 287 277 277 282 279 280 277 277 280 283 289 291 290 284 282 277 275 279 278 281 286 285 284 279 278 273 270 280 287 291 291 283 297
297 298 298 298 298 298 298 299 299 298 299 296 294 294 289 282 282 285 279 279 283 282 279 284 284 285 289 282 280 278 276 281 276 278 279 279 280 278 276 274 278 286 291 294 279 283 295
298 297 297 297 297 297 297 298 298 299 299 296 293 295 289 284 283 286 286 282 283 283 279 283 281 283 282 280 280 280 278 280 279 281 280 279 278 275 278 276 273 292 292 285 291 293 291
297 297 297 297 297 297 297 298 298 298 299 298 290 294 294 286 284 287 288 289 289 288 284 285 283 284 286 281 282 283 279 278 280 276 285 276 281 279 280 280 288 289 289 292 295 292 289

GFSGBSN_sfc_thetae_081.txt.gz
Theta_e
311 310 309 309 309 309 308 308 308 308 308 308 309 309 309 308 308 308 308 308 307 307 307 308 308 308 304 294 293 302 308 307 313 313 305 307 302 297 294 294 294 294 296 298 300 300 301
310 309 309 309 310 308 308 308 308 308 308 308 308 308 308 308 308 307 307 308 308 307 308 308 309 307 300 289 301 301 303 303 303 310 307 308 305 303 299 296 294 296 296 296 297 299 300
310 310 309 308 308 308 308 308 308 308 308 308 308 307 308 307 307 306 307 308 308 308 309 310 309 305 298 295 305 305 304 302 302 304 304 308 307 301 298 292 297 296 292 295 298 298 298
310 309 309 308 308 308 308 308 307 308 308 308 308 307 307 307 306 306 307 307 307 309 311 311 310 303 295 306 308 305 304 303 305 305 301 302 300 299 295 297 294 292 293 288 296 297 299
309 309 307 307 306 305 305 306 307 307 307 307 307 306 306 307 307 307 306 307 307 310 311 310 303 300 293 309 303 308 306 302 302 302 302 303 299 295 294 290 288 289 285 288 292 299 298
308 308 307 306 306 305 305 305 306 305 305 305 305 305 305 305 306 306 306 305 306 309 308 308 304 295 298 297 305 305 306 304 300 298 298 297 295 291 289 288 281 284 286 288 289 294 296
308 307 307 306 306 305 305 305 305 304 304 304 304 304 304 304 305 305 300 298 292 293 294 290 293 296 296 301 305 302 303 300 300 297 291 294 289 286 288 289 289 288 287 286 290 294 292
308 307 307 306 305 305 305 306 305 304 304 304 304 305 304 304 304 303 298 292 290 291 285 294 293 294 297 299 293 298 303 296 296 291 292 291 287 291 292 290 289 288 286 286 290 294 293
305 305 305 305 305 305 305 305 305 304 304 304 304 304 304 304 301 295 293 292 297 295 287 290 295 294 295 298 292 293 298 295 291 291 290 288 290 293 290 289 287 288 287 288 288 292 294
305 305 305 304 304 303 302 302 303 303 303 303 304 304 303 303 294 293 292 296 296 295 282 283 291 295 297 297 291 298 299 295 292 288 291 290 294 292 291 290 291 287 293 291 290 289 285
304 304 303 302 302 301 302 302 302 302 303 303 303 303 303 301 293 290 293 296 296 294 271 285 293 301 298 292 294 293 299 295 289 290 292 288 293 292 289 290 293 290 294 292 292 290 289
302 302 302 302 301 301 301 302 302 302 302 302 302 302 302 296 293 294 294 294 295 279 271 282 291 287 288 292 294 293 294 296 296 293 295 291 298 296 295 296 296 296 293 292 292 289 282
301 301 302 301 300 300 300 301 301 301 301 301 302 302 299 298 288 294 294 291 276 272 284 281 282 285 285 287 289 291 289 289 287 285 285 290 292 296 297 292 295 294 289 282 280 281 281
301 301 302 301 300 299 299 300 300 301 301 302 301 299 295 295 294 294 291 283 271 278 279 285 283 285 285 287 287 287 287 285 288 288 285 283 280 291 296 292 289 291 290 283 276 280 283
300 299 300 301 300 299 299 299 299 300 300 301 297 290 290 292 294 293 286 274 275 279 282 281 282 283 283 285 285 286 285 285 288 290 284 282 282 293 295 295 295 290 287 292 285 287 283
298 299 300 300 299 298 298 299 300 300 300 300 289 286 288 292 294 289 279 277 278 284 284 283 277 282 277 279 281 283 284 290 290 290 291 287 281 290 293 296 296 294 295 286 287 278 278
299 299 299 299 298 297 298 299 299 299 300 298 286 283 291 293 294 283 274 276 280 285 286 281 279 278 278 279 282 282 284 290 291 292 291 289 287 286 292 290 289 291 289 290 289 287 281
297 300 299 298 297 297 298 299 299 299 299 292 284 276 290 295 282 281 278 281 285 284 287 284 284 282 281 282 282 282 283 286 291 290 289 292 288 283 287 293 296 294 291 290 284 282 286
297 299 297 297 297 298 298 298 299 299 297 287 281 282 290 292 276 277 281 281 283 282 283 283 282 284 285 281 278 283 286 291 290 290 289 291 287 282 283 289 293 290 291 292 291 288 283
297 298 297 297 298 298 299 298 298 299 298 288 282 274 281 286 284 281 278 278 280 285 283 285 284 285 283 282 285 282 284 288 290 289 295 293 287 283 280 283 287 285 288 289 288 283 284
297 297 297 297 298 298 298 298 298 298 299 290 285 278 281 275 280 281 281 279 278 278 284 285 282 283 280 279 281 282 285 287 289 290 293 289 282 286 286 287 287 287 285 286 284 286 283
296 297 297 297 298 298 298 297 298 299 298 289 281 280 282 281 282 279 279 278 277 280 281 279 279 282 281 278 279 278 282 284 285 289 288 291 283 285 282 286 284 282 283 283 285 286 287
296 297 296 297 298 298 298 298 298 299 294 285 287 289 283 280 280 277 276 278 278 280 281 282 282 280 280 282 287 288 289 289 288 287 286 287 285 282 278 283 282 278 283 283 286 291 290
296 296 298 297 298 298 298 298 298 299 293 287 286 286 280 275 279 279 279 280 279 280 279 282 284 281 285 291 289 289 289 289 288 288 290 285 285 284 279 280 272 282 288 289 287 291 291
296 297 297 297 297 298 299 299 298 298 298 290 287 285 280 275 280 279 280 280 281 282 280 281 284 289 292 287 283 281 282 283 285 288 288 289 286 281 277 277 280 284 287 286 285 284 296
296 296 297 297 298 298 298 298 298 298 299 295 292 291 286 279 278 282 280 281 278 279 281 283 289 291 288 284 283 277 275 280 279 283 287 287 287 283 279 274 272 281 289 295 293 283 293
296 297 297 298 298 298 298 298 298 298 299 296 293 294 288 282 284 284 281 280 284 282 280 282 283 283 287 282 280 279 278 282 277 279 280 282 283 280 279 277 281 288 292 295 280 284 292
296 297 297 298 297 298 297 297 298 298 298 296 294 295 289 284 285 287 287 283 284 283 279 283 282 282 281 279 281 280 280 281 281 283 282 281 280 279 280 277 275 290 291 286 289 293 290
296 297 297 297 297 297 297 297 297 298 298 298 292 295 295 286 286 288 289 290 289 289 285 285 282 282 284 282 282 283 281 283 281 278 287 281 284 283 283 283 289 289 288 289 292 291 290

GFSGBSN_sfc_thetae_084.txt.gz
Theta_e
312 312 311 311 311 310 309 308 308 308 308 308 308 308 308 309 308 308 308 308 307 307 308 309 309 309 308 299 297 304 307 307 314 313 308 305 301 300 297 299 300 298 300 301 303 302 303
312 311 310 310 311 310 309 308 308 307 308 308 308 308 308 308 308 307 307 308 307 307 308 309 310 309 304 294 305 305 305 306 308 310 307 309 305 305 301 301 299 301 300 301 302 302 303
312 311 310 310 310 309 308 308 308 307 308 308 308 308 308 307 307 306 306 307 308 308 309 311 311 308 302 298 307 308 308 305 305 307 304 308 310 304 302 299 302 300 296 298 299 300 300
312 311 310 310 309 309 308 308 307 307 307 307 307 307 306 306 306 306 306 307 307 308 311 311 311 307 299 308 311 309 310 307 307 306 304 307 309 304 301 301 297 293 295 291 298 301 302
311 311 310 309 308 307 306 306 306 306 306 305 305 305 305 306 306 306 307 307 307 310 311 311 307 304 297 309 305 311 311 305 306 307 306 305 303 299 299 294 291 292 287 290 294 301 300
311 311 309 308 307 306 306 306 306 304 304 304 304 304 305 305 306 306 306 305 307 310 310 310 308 298 303 300 307 308 311 308 303 303 300 299 299 295 295 292 284 287 288 291 291 296 297
310 309 309 308 307 306 306 306 306 304 304 304 304 304 305 304 304 305 305 305 299 298 298 294 295 296 296 302 305 303 306 304 303 301 292 296 292 289 291 292 293 292 289 287 291 295 294
309 309 308 308 307 306 306 307 306 304 304 304 304 305 304 304 304 302 304 296 293 295 291 296 297 296 299 301 294 298 306 298 298 294 297 293 289 294 294 293 291 291 289 290 293 296 295
308 308 307 307 306 306 306 305 305 303 303 304 304 304 304 303 302 302 299 295 300 300 291 293 297 297 298 300 296 297 300 300 296 294 295 292 293 296 294 293 290 290 289 290 291 296 298
306 306 306 306 305 304 303 302 302 302 302 303 303 303 303 303 298 299 297 299 301 302 289 287 295 298 299 300 295 302 301 298 296 292 294 294 297 294 292 291 292 288 295 294 293 292 288
305 305 305 304 303 302 302 302 302 302 302 302 302 302 303 301 297 296 296 301 302 300 277 290 295 303 297 295 297 297 302 297 291 293 293 290 292 292 290 291 295 291 296 294 294 292 292
305 304 304 303 302 302 302 302 301 301 301 301 301 302 302 300 300 298 301 302 302 285 276 285 292 289 291 295 296 297 296 299 297 293 294 293 298 298 296 297 296 297 294 294 295 292 285
303 303 303 302 302 301 301 301 300 300 301 301 301 301 300 301 295 302 302 300 284 278 286 283 284 287 289 290 292 294 293 292 291 285 287 291 292 296 299 294 298 296 290 284 284 283 284
301 302 302 302 301 300 300 300 300 300 300 301 300 297 297 299 302 302 300 288 277 280 281 286 285 286 285 289 289 292 291 290 294 292 289 286 284 293 298 295 291 293 291 285 279 282 287
302 302 302 301 301 300 300 300 299 299 300 300 297 300 301 301 303 302 292 281 280 281 284 283 284 281 283 286 284 288 290 289 292 293 287 286 285 295 297 297 296 292 289 295 288 289 285
300 300 302 301 300 299 299 299 299 299 299 299 297 296 296 302 304 297 288 280 282 285 285 284 278 282 279 281 281 283 286 292 289 293 295 291 285 293 296 298 298 295 297 287 290 281 280
299 300 301 300 299 298 299 299 299 299 299 297 296 291 297 302 301 293 283 281 282 286 287 283 281 280 281 281 283 283 284 291 290 291 293 294 290 289 294 291 291 292 290 291 291 289 284
299 300 299 299 298 299 299 299 299 299 298 296 294 287 297 301 289 290 284 284 286 285 287 286 286 285 283 284 283 283 284 288 292 290 287 294 291 286 288 295 298 296 293 293 287 285 288
298 301 299 298 298 298 299 299 299 299 297 297 290 289 299 298 283 283 285 283 285 284 284 284 283 285 287 284 280 283 286 291 292 289 286 287 289 283 285 291 295 292 293 293 291 291 286
298 299 298 298 299 299 299 299 298 298 297 298 291 284 290 293 290 284 280 280 281 286 285 286 285 287 285 283 286 283 284 288 291 292 291 289 289 287 283 286 292 289 291 293 291 287 287
297 298 298 297 299 299 299 299 299 298 298 297 291 285 287 282 284 284 284 281 274 279 285 287 284 284 282 279 282 282 286 286 288 291 287 290 286 288 288 288 289 289 288 289 288 289 285
298 297 298 297 298 299 299 298 299 299 297 296 287 287 289 285 285 283 282 281 279 281 281 281 281 283 284 281 281 280 284 285 284 289 286 288 285 286 283 288 287 284 286 286 287 287 288
298 298 297 297 299 298 299 298 298 299 297 294 292 293 291 283 283 283 282 279 280 282 283 285 284 283 282 284 288 289 290 288 286 285 285 287 286 283 279 285 284 281 285 287 289 292 292
297 297 297 297 298 298 298 298 298 299 296 297 295 293 288 282 283 283 282 282 282 283 281 284 286 284 287 293 293 291 291 289 288 288 289 286 287 286 281 282 275 285 293 291 288 292 294
297 296 297 298 298 298 298 298 298 299 297 297 296 294 289 283 285 282 283 283 285 286 284 284 288 290 293 288 282 282 284 285 286 289 289 291 288 284 280 280 282 285 289 289 287 288 294
297 296 297 298 297 298 298 299 298 299 299 298 297 298 293 286 284 284 283 284 283 283 284 285 290 293 290 285 282 278 278 280 280 284 290 291 291 286 283 273 273 286 291 296 295 285 295
296 296 296 297 298 299 299 298 298 299 299 299 296 298 292 285 289 287 283 283 286 285 283 286 286 287 289 283 281 279 279 285 280 280 283 285 286 283 282 280 284 291 293 296 284 285 295
296 296 297 298 298 299 298 298 298 299 299 299 297 299 292 287 289 289 290 287 286 285 282 287 285 285 284 281 282 282 284 285 284 285 284 284 283 283 284 280 277 293 293 287 290 293 291
296 296 297 298 298 298 298 298 298 298 299 299 294 298 296 289 288 294 294 295 293 292 287 288 285 283 285 283 283 285 284 286 285 281 290 284 286 286 286 286 290 290 289 291 291 290 289

GFSGBSN_sfc_thetae_090.txt.gz
Theta_e
319 320 318 317 315 313 313 312 311 311 310 309 309 309 310 310 309 309 309 309 308 308 308 309 310 311 308 302 303 310 318 318 313 309 309 307 302 301 297 300 302 301 302 304 305 305 305
319 318 317 316 314 313 312 312 311 310 309 309 310 309 309 309 308 308 307 308 308 307 308 309 310 310 305 294 309 309 307 307 308 309 307 308 304 304 300 299 299 301 301 301 302 303 302
319 318 316 314 314 313 312 312 311 310 309 309 309 309 308 307 306 306 306 306 307 307 308 310 311 311 303 300 309 311 308 305 306 306 305 309 308 304 304 300 303 302 297 300 301 302 301
318 317 315 313 312 311 312 312 310 309 309 309 308 306 305 305 306 306 306 307 307 308 310 313 314 311 298 310 311 308 308 306 308 307 305 307 309 305 303 305 301 297 296 291 297 299 300
318 316 314 313 312 311 311 310 310 309 309 307 305 305 305 305 306 306 307 307 307 309 313 312 310 307 298 310 305 309 312 307 308 307 305 305 303 300 301 296 293 294 288 290 293 299 299
317 314 314 312 310 310 310 310 309 308 307 306 305 305 305 305 306 306 306 306 309 310 311 312 310 303 305 302 306 308 311 309 306 304 300 299 297 293 294 292 286 289 290 291 291 296 297
316 315 313 311 310 310 309 308 308 308 306 305 305 304 305 305 305 305 304 307 303 303 307 302 301 301 302 303 307 303 304 305 305 302 296 298 292 288 292 294 294 293 292 291 294 297 294
315 314 313 311 310 309 308 308 308 307 305 305 304 304 304 304 304 305 304 301 298 299 292 301 299 299 303 305 300 304 305 298 298 294 298 296 290 295 297 296 295 293 291 290 293 296 295
314 313 311 311 310 309 308 308 308 307 306 304 304 303 304 303 304 302 301 299 303 303 293 297 301 301 301 304 300 301 302 299 295 293 294 292 295 299 296 294 293 292 290 289 289 293 295
311 311 310 309 309 308 308 308 307 306 304 303 302 303 303 303 299 301 301 302 305 305 291 292 296 300 302 301 298 306 305 301 297 293 294 293 298 296 295 293 294 289 295 294 292 290 284
310 309 308 308 308 307 306 306 304 303 302 302 302 302 302 303 300 299 300 303 305 304 281 293 297 305 299 296 298 300 305 301 294 294 295 292 294 293 293 294 296 292 296 293 293 291 290
307 307 308 307 305 304 303 303 303 302 301 301 302 302 302 302 303 303 304 305 303 290 280 289 295 293 291 295 296 299 299 303 301 295 295 293 298 297 296 297 297 297 293 293 293 291 284
306 306 306 304 304 303 303 303 302 301 301 301 301 301 299 301 300 305 306 301 289 283 290 287 289 290 289 288 291 293 293 293 291 288 289 293 292 296 298 293 297 296 291 282 281 282 282
305 304 303 303 302 303 302 301 300 300 300 300 301 300 303 303 306 307 303 294 282 286 286 291 289 289 285 288 289 291 289 287 292 294 290 286 285 294 297 294 291 292 291 283 277 280 283
303 303 303 303 302 301 300 300 300 299 299 300 300 301 303 306 307 305 296 286 285 287 288 286 286 284 285 288 288 287 287 286 292 295 288 287 287 297 298 297 295 291 288 293 287 288 284
302 302 303 302 301 301 300 300 299 299 299 300 298 299 299 304 306 302 292 286 286 289 288 287 281 285 282 285 284 285 285 290 292 295 295 290 284 292 295 297 297 294 296 287 288 279 278
302 303 302 302 301 300 299 299 299 299 300 300 297 294 300 304 305 296 288 287 287 290 289 285 284 283 284 283 285 284 285 289 293 292 293 291 288 287 292 291 291 291 290 291 291 288 281
301 303 302 301 300 299 299 299 299 299 300 297 298 291 301 304 293 292 288 288 286 288 289 287 288 286 285 285 284 284 283 287 292 292 287 290 286 282 286 294 297 293 292 292 284 284 287
301 302 301 300 299 299 299 299 299 299 298 298 293 293 299 300 288 288 289 287 287 286 287 286 285 287 288 284 281 285 286 291 293 290 287 289 284 279 284 289 293 291 294 293 293 291 286
301 301 299 299 298 299 299 298 298 299 299 297 295 290 293 295 293 289 286 284 284 289 286 287 287 288 286 285 287 284 285 289 292 291 292 290 284 281 278 283 287 285 291 294 291 286 286
301 300 299 299 299 299 299 299 298 299 299 297 295 291 292 287 288 288 287 285 283 282 287 288 286 286 285 281 283 283 285 287 289 291 290 287 281 284 286 287 287 287 289 291 290 290 286
300 299 298 299 299 300 299 298 298 299 299 296 291 291 291 290 288 287 283 285 283 284 284 284 284 286 286 282 283 281 284 285 284 288 288 288 280 283 281 286 287 286 291 290 289 290 290
300 299 298 299 299 299 298 298 298 299 298 296 295 297 294 287 288 286 286 285 284 285 287 287 286 285 283 285 288 288 289 288 287 286 285 285 282 281 278 284 287 283 288 290 290 293 292
298 299 298 298 299 299 298 298 298 298 298 297 297 295 291 285 287 286 285 286 285 286 284 287 288 285 288 294 292 290 289 288 288 288 289 284 283 282 278 280 277 287 293 292 292 292 293
298 299 298 298 299 299 299 298 298 299 299 298 298 295 292 288 288 286 286 286 288 289 287 288 290 291 293 290 284 281 283 284 286 288 288 288 284 280 279 279 285 288 291 290 290 288 292
298 298 298 298 299 299 299 298 298 298 299 299 298 300 294 290 286 289 287 287 285 285 286 288 292 294 292 287 282 276 276 281 281 283 289 288 287 282 283 278 276 286 292 296 294 285 291
298 298 298 298 299 299 298 298 298 298 299 298 300 302 295 288 292 291 287 286 289 287 285 287 288 288 291 284 280 279 279 285 280 280 281 283 283 281 282 280 284 289 293 295 283 283 289
299 298 298 299 298 299 299 299 299 298 298 299 299 302 296 291 292 293 293 289 288 287 283 287 286 286 286 281 281 281 280 285 284 286 284 283 282 282 284 281 278 291 291 285 286 289 288
298 298 298 298 299 298 298 299 298 298 298 299 297 300 300 294 291 297 296 297 295 293 289 289 286 286 287 283 283 283 281 286 285 280 290 283 287 285 285 283 288 290 288 289 289 287 287

GFSGBSN_sfc_thetae_093.txt.gz
Theta_e
323 322 320 319 320 318 316 315 314 313 312 311 310 310 310 310 310 310 310 310 308 308 308 308 309 311 306 299 301 312 322 320 310 306 303 302 300 297 292 295 297 296 298 301 301 302 301
322 321 320 319 319 317 316 315 314 313 312 311 311 310 310 310 309 308 308 308 308 307 307 308 310 310 302 293 304 310 309 308 305 306 305 305 303 302 297 295 293 296 297 297 298 298 298
323 321 319 319 318 316 315 314 314 313 312 310 310 310 309 308 307 306 306 307 308 307 308 309 311 308 302 297 305 304 305 301 301 301 299 302 305 300 299 296 301 299 293 295 295 296 296
323 321 319 318 316 315 314 313 313 312 311 310 310 309 308 306 305 306 306 307 307 307 308 310 314 307 298 308 305 305 304 302 304 303 302 301 301 298 298 299 298 293 292 287 293 295 297
322 321 319 318 315 314 313 313 312 311 310 310 309 307 306 306 306 307 306 307 307 307 309 313 306 304 297 311 304 306 303 302 304 304 301 304 298 293 296 290 287 289 284 286 290 295 295
323 321 319 317 315 313 312 311 311 310 311 310 307 305 305 306 307 307 306 306 306 307 310 310 308 300 304 301 303 305 305 307 304 302 298 295 291 287 287 285 280 283 285 285 285 289 291
323 321 319 316 314 312 311 312 310 310 310 307 306 305 305 305 306 306 304 300 298 297 302 300 301 299 301 301 304 301 303 300 300 299 291 293 285 282 285 288 289 288 287 286 288 292 290
322 320 318 315 313 311 311 311 309 308 307 306 305 304 304 305 305 305 301 296 295 294 288 299 304 302 300 301 298 302 303 294 293 291 294 291 285 291 292 292 290 289 287 286 289 293 290
319 318 316 315 312 311 310 309 308 308 306 306 304 304 304 304 304 301 297 296 301 301 289 295 297 298 300 303 298 299 300 296 292 289 290 287 292 296 293 291 290 289 287 286 287 289 290
317 315 314 313 311 310 309 308 309 308 306 305 303 303 303 304 298 299 297 299 302 302 287 292 293 298 300 301 296 304 304 299 295 289 291 290 293 293 292 291 292 286 292 292 290 287 281
315 313 313 312 310 309 308 308 308 306 304 303 302 302 303 302 295 295 297 300 300 299 278 292 295 304 299 295 296 299 304 298 292 291 291 288 290 290 289 290 293 290 295 292 290 286 286
312 311 310 308 307 307 307 305 304 303 302 301 301 302 302 299 298 300 301 300 298 286 278 288 295 293 291 293 293 298 298 299 298 293 292 290 294 292 291 294 294 295 292 291 288 285 280
307 307 308 307 305 304 304 303 303 302 301 301 301 302 299 299 295 301 300 296 285 280 291 286 288 290 289 287 288 289 291 288 287 282 283 290 291 294 294 289 293 291 286 278 276 277 278
306 305 305 304 303 303 303 303 302 301 300 300 301 301 300 298 302 302 299 289 280 287 285 290 287 287 284 286 286 288 286 282 286 290 286 283 281 290 296 290 288 288 287 280 274 275 279
304 303 303 303 302 302 302 300 299 299 299 300 300 295 297 302 302 301 292 282 281 285 286 284 285 283 283 287 286 285 284 283 290 290 284 284 284 293 294 295 293 288 285 292 285 285 280
303 303 303 302 301 300 299 300 299 299 299 299 293 295 296 300 301 296 286 284 285 288 287 287 280 284 281 282 282 282 283 288 290 291 291 287 280 289 292 296 295 291 292 282 285 278 276
302 303 302 301 300 299 299 300 299 299 299 299 292 290 296 299 300 291 280 284 287 289 288 284 283 282 282 282 282 282 283 287 289 289 289 287 285 283 288 287 288 290 287 289 289 285 277
303 302 302 301 300 299 299 299 298 299 299 296 291 285 297 298 288 289 283 287 288 287 289 287 287 286 284 284 282 282 282 286 292 290 284 288 283 278 281 288 290 293 290 288 281 281 285
302 302 301 300 300 300 299 299 299 299 299 292 289 288 295 295 280 282 287 286 287 286 286 286 285 287 286 283 279 283 285 291 292 289 285 287 280 274 276 283 289 287 288 288 287 290 283
302 302 301 300 300 299 299 298 298 299 299 294 289 282 287 290 288 285 283 284 284 289 286 286 285 286 284 283 285 283 284 289 291 290 292 288 282 278 273 278 284 282 285 287 286 283 285
301 300 299 298 299 299 299 298 298 299 299 293 290 285 288 280 283 285 285 285 283 282 287 287 284 286 284 279 281 280 284 285 288 292 288 284 278 281 282 283 284 284 284 286 285 288 284
300 300 299 299 299 299 298 298 299 299 299 291 285 286 286 284 286 284 282 283 283 284 284 282 282 284 283 279 280 278 281 281 281 285 284 285 278 279 278 282 284 282 285 287 287 288 288
299 299 299 299 299 299 298 298 298 299 298 290 289 292 289 286 283 280 280 283 284 285 287 286 285 283 281 283 285 286 285 285 285 282 277 280 277 275 272 282 281 279 287 287 288 290 289
299 298 299 299 299 299 298 298 299 299 298 292 291 291 285 279 282 283 285 286 284 286 282 286 286 283 287 290 289 287 286 285 285 284 285 280 279 279 275 278 273 286 293 292 288 288 289
299 299 298 298 299 299 298 298 299 299 299 292 294 291 286 280 285 285 286 286 286 287 285 286 289 290 290 286 280 277 278 280 282 284 283 285 280 277 276 276 283 285 288 288 287 284 288
298 299 298 298 300 299 298 298 298 299 300 295 294 295 289 282 282 288 284 286 280 279 281 285 291 291 288 278 275 274 273 278 279 283 286 286 285 279 279 275 276 283 287 292 293 280 287
299 298 298 298 300 299 298 298 298 299 299 295 294 296 290 280 288 288 283 281 285 282 278 282 284 284 287 275 271 273 276 283 278 279 280 280 281 277 277 276 281 285 288 292 279 280 286
299 299 298 299 299 299 299 299 299 299 299 296 293 296 290 282 287 291 291 285 284 283 276 282 280 282 280 276 279 275 274 281 283 284 283 280 280 281 281 279 275 286 287 282 285 287 286
299 299 299 299 299 299 299 298 298 298 298 298 291 296 297 285 285 291 292 293 290 289 285 284 282 280 283 277 280 281 278 281 283 279 288 281 285 282 283 281 285 286 285 288 288 286 285

GFSGBSN_sfc_thetae_096.txt.gz
Theta_e
325 325 323 322 321 321 320 319 317 316 314 314 313 312 311 311 311 311 311 310 309 309 308 308 308 310 305 298 298 307 321 319 312 306 301 300 297 295 290 291 292 293 296 298 299 300 299
325 324 323 322 321 320 320 319 317 315 314 314 312 312 311 311 311 310 309 309 308 307 307 308 309 309 300 289 301 306 313 311 307 301 302 302 302 301 297 295 290 294 295 294 295 296 296
326 324 323 321 320 319 319 317 316 315 314 313 312 312 311 310 310 308 307 308 308 308 307 308 309 307 300 295 302 302 306 301 303 303 300 300 301 296 296 294 298 297 292 293 293 293 293
325 325 324 321 320 318 318 316 315 314 314 313 311 311 311 309 307 306 306 307 307 307 307 309 311 306 296 307 306 305 303 301 301 300 299 300 298 295 295 297 295 291 290 285 292 294 295
324 324 324 322 319 318 317 316 314 314 312 312 311 311 309 307 307 307 307 307 306 306 307 310 305 303 296 312 305 308 305 300 301 301 300 303 298 292 292 288 285 287 283 285 288 293 292
322 323 324 322 319 318 317 315 314 313 312 311 310 309 307 307 307 307 307 305 306 305 305 309 307 299 301 300 302 304 303 305 302 301 297 294 289 285 285 283 279 282 283 283 284 288 289
321 322 324 322 320 319 317 315 312 312 311 311 310 307 306 306 306 306 303 297 298 296 298 297 297 297 301 301 301 300 302 299 297 296 289 291 284 281 283 285 287 287 285 284 286 289 288
319 321 323 322 320 318 316 314 312 311 311 309 308 306 305 305 305 304 300 293 294 293 286 298 302 302 305 304 296 300 302 293 291 286 292 288 283 288 290 289 287 286 284 284 288 290 289
319 320 321 321 319 316 315 313 312 310 309 307 306 305 304 303 304 299 296 295 300 298 286 292 295 297 300 300 296 298 298 294 289 287 289 286 290 295 291 289 288 287 285 285 286 288 287
319 319 319 320 317 315 313 313 310 309 308 307 306 304 303 303 297 296 296 299 301 299 282 289 293 296 299 301 296 302 302 297 292 288 288 287 291 290 289 289 290 285 290 290 289 285 281
318 317 317 316 314 312 311 310 308 308 307 306 304 303 302 302 293 295 298 298 298 297 274 291 293 303 300 295 294 298 303 298 291 290 290 287 288 288 287 288 290 288 292 291 289 284 282
317 316 316 313 311 310 309 308 308 307 305 303 302 301 301 298 296 298 298 299 298 283 274 289 295 293 291 293 292 297 297 298 296 291 290 289 292 290 288 291 291 292 290 288 287 284 279
313 313 311 310 309 308 307 306 305 303 302 301 301 300 299 299 294 300 299 296 284 280 291 285 287 290 288 287 287 287 288 287 284 280 280 286 287 290 293 288 290 288 284 278 276 275 277
304 306 307 306 305 304 304 302 302 301 301 300 299 299 298 297 298 300 298 288 280 285 284 288 286 286 283 285 285 286 284 280 288 288 284 282 280 288 292 289 286 285 287 280 274 275 277
305 305 304 304 304 303 303 302 301 300 299 299 299 294 293 299 299 299 291 282 281 284 286 284 285 281 283 285 285 284 283 285 288 287 282 281 282 289 291 291 292 287 282 288 283 284 280
302 302 302 302 302 302 301 301 300 299 299 298 292 293 295 301 299 296 287 284 283 287 287 286 280 283 279 281 281 282 282 288 287 288 288 285 279 287 289 289 290 291 292 281 281 276 274
303 303 302 301 300 300 300 299 299 299 299 299 291 289 295 299 299 290 280 283 285 288 288 284 282 281 281 281 282 281 282 286 288 288 289 285 282 282 285 283 282 283 284 287 287 284 277
302 301 301 300 300 298 301 300 298 298 299 296 290 284 296 298 288 287 283 287 289 287 289 287 286 285 283 283 281 281 281 286 291 289 283 286 281 278 279 285 287 284 284 288 282 281 283
301 301 300 300 299 299 299 298 299 299 298 292 288 287 294 296 280 280 286 286 287 286 286 285 284 286 285 281 278 282 284 291 290 287 283 285 278 274 275 279 286 283 285 287 286 285 281
302 301 300 300 300 299 299 299 299 299 299 293 288 281 286 288 288 284 283 284 283 287 285 286 285 285 282 282 284 281 282 288 289 290 292 287 281 277 273 276 281 279 282 285 284 279 281
301 300 300 300 300 299 298 299 298 299 299 293 288 283 287 279 282 284 285 284 282 282 286 286 283 283 281 279 279 279 282 283 285 291 286 283 276 279 281 281 281 280 280 281 281 284 281
300 299 299 299 299 299 298 299 299 299 299 291 283 283 286 283 286 282 283 282 282 283 283 281 280 283 281 278 279 277 280 279 279 283 282 285 273 278 277 280 280 280 282 283 284 287 287
300 299 300 300 300 299 298 298 299 299 297 289 289 291 286 283 282 281 280 283 283 284 285 285 284 281 280 282 284 284 284 284 283 281 276 279 276 275 271 279 279 274 280 283 287 287 288
299 299 299 299 299 298 298 299 299 299 297 291 290 289 283 278 281 282 285 285 284 284 281 285 285 281 286 289 287 285 284 283 283 282 283 278 274 275 273 277 270 284 292 289 285 286 287
299 299 299 299 299 298 299 299 299 300 301 293 292 289 284 278 284 284 285 284 284 284 283 285 287 289 288 285 279 277 277 279 282 282 281 282 278 274 273 274 278 282 286 285 285 281 285
299 298 298 299 299 299 298 299 299 300 301 294 292 292 288 281 282 288 283 283 279 278 279 283 288 289 286 276 274 273 272 277 277 282 284 282 282 277 277 273 272 281 284 288 290 278 284
299 299 298 300 299 299 299 299 299 300 301 295 292 293 288 280 286 286 281 280 283 279 276 280 282 282 284 271 271 273 275 281 276 278 278 278 279 275 276 275 280 283 285 289 279 278 283
299 299 299 300 299 299 299 299 299 299 300 295 291 293 287 279 284 290 289 283 282 281 275 280 278 279 278 274 274 274 270 279 278 285 282 280 278 278 278 276 274 285 285 281 284 285 283
299 299 299 299 299 299 299 298 298 299 299 298 289 294 293 284 285 289 290 291 289 288 283 282 280 280 283 276 280 280 278 279 281 276 286 279 282 279 281 277 283 285 284 287 287 284 283

GFSGBSN_sfc_thetae_099.txt.gz
Theta_e
327 326 325 324 323 322 322 321 319 318 317 316 315 315 313 312 312 311 312 311 309 308 308 308 308 310 304 295 295 301 320 319 312 304 300 298 293 290 287 288 289 289 292 295 297 297 296
323 326 325 324 323 322 322 321 319 318 316 316 315 314 313 311 312 311 311 310 308 307 307 307 308 309 300 286 297 303 309 310 304 301 300 299 298 299 296 294 290 292 292 292 293 293 294
321 322 324 324 323 322 322 320 319 318 316 315 314 313 313 311 311 311 309 307 307 307 307 307 308 306 298 294 300 301 308 304 303 303 299 302 302 296 294 291 296 295 291 292 293 293 292
319 320 321 323 323 321 320 319 319 318 316 315 314 313 312 311 311 309 307 307 307 307 307 307 309 306 294 305 304 303 303 302 302 301 302 299 298 294 292 294 293 289 289 284 291 292 293
317 319 320 320 322 322 320 319 318 318 316 314 313 312 311 310 308 307 307 306 306 306 307 307 305 301 293 309 305 308 303 300 300 299 298 301 296 290 291 287 284 285 282 284 287 292 291
317 317 319 319 320 321 321 319 318 316 315 313 312 312 311 308 306 307 307 306 305 304 305 308 306 295 298 298 302 302 304 302 299 299 296 293 288 285 283 283 278 281 282 280 282 287 286
317 318 318 319 320 321 322 320 318 315 314 313 312 311 309 306 306 306 301 296 295 294 296 295 296 295 297 304 300 297 299 299 297 294 288 289 283 281 282 284 286 285 283 282 283 288 285
318 318 318 320 320 322 321 320 317 314 313 312 311 310 307 306 305 304 298 292 295 294 286 297 300 298 301 302 298 297 300 293 290 285 289 287 282 287 288 287 285 284 282 281 285 288 286
318 318 318 319 320 322 321 320 316 313 312 311 311 308 306 306 303 299 295 296 301 296 284 288 295 298 300 303 297 295 298 293 288 285 285 284 289 293 289 287 285 285 282 283 283 287 287
317 317 317 318 320 320 319 318 314 312 311 310 308 307 306 304 294 296 294 300 301 296 277 284 290 293 298 298 293 300 299 294 289 285 286 285 290 288 286 286 288 283 289 288 287 283 279
312 316 317 317 318 318 317 315 313 311 310 308 307 305 304 301 295 294 297 297 301 296 272 289 290 300 299 294 293 295 301 296 289 289 288 285 288 287 285 287 289 286 290 288 287 283 281
313 316 316 317 317 315 313 312 310 309 308 306 305 303 302 299 296 297 299 300 297 283 275 287 293 292 291 293 292 295 295 296 295 290 289 288 291 290 289 291 289 291 287 287 284 282 277
309 315 316 316 315 313 311 309 308 307 306 305 303 302 299 299 294 299 298 294 284 278 289 285 289 292 288 286 286 288 287 287 284 280 280 286 286 288 292 287 290 287 282 276 275 274 276
305 307 309 311 310 309 308 307 306 303 302 302 301 300 298 298 297 298 296 288 279 284 283 287 286 286 283 283 284 285 283 283 288 287 283 280 278 286 289 288 285 285 283 276 274 275 276
306 305 304 304 304 304 303 303 302 301 300 300 299 294 293 297 297 296 290 282 282 283 285 284 285 281 282 285 284 284 283 285 285 286 281 280 281 288 289 288 285 284 281 287 281 281 278
305 305 305 304 303 303 302 302 301 300 300 299 292 292 294 300 299 295 288 284 283 287 287 286 280 283 279 281 281 281 282 286 285 287 287 284 277 285 287 287 287 286 288 279 282 274 274
302 302 302 302 302 302 302 301 300 300 299 299 293 289 295 299 299 291 281 283 284 288 288 284 282 280 281 280 280 280 281 285 286 286 287 283 281 280 283 281 279 280 279 283 284 282 278
303 302 302 301 301 301 300 300 299 299 299 296 290 284 295 299 288 287 282 286 289 286 289 287 286 284 282 281 279 279 280 284 289 287 281 285 281 276 278 284 285 282 283 284 271 275 279
301 301 300 300 300 301 300 299 299 300 299 292 288 286 294 296 281 281 285 285 287 286 285 284 284 285 284 281 277 281 283 290 289 286 282 283 277 273 275 278 282 281 282 284 284 283 277
301 301 299 299 299 298 299 299 299 299 300 293 288 280 285 289 288 284 283 283 283 287 285 285 284 285 282 281 282 280 281 286 288 288 292 287 280 277 272 276 279 277 279 281 280 273 276
301 300 300 299 299 299 299 298 299 299 299 293 288 283 287 281 282 284 284 285 282 281 285 285 282 282 280 278 278 278 280 281 284 289 285 282 276 279 280 280 281 279 278 279 278 279 275
300 300 300 300 299 299 298 299 299 299 299 291 285 284 284 283 285 283 283 282 281 282 282 280 280 282 280 277 278 277 279 279 279 284 281 282 272 278 277 279 279 277 279 280 281 282 282
299 299 300 299 299 299 299 298 299 299 298 288 289 289 285 283 282 281 279 282 282 283 284 284 282 280 279 280 282 283 283 283 282 280 277 278 276 274 270 278 277 273 278 280 281 286 286
300 300 300 299 299 298 298 298 299 300 296 291 289 288 283 278 281 281 284 284 283 283 281 285 285 281 284 287 286 284 282 282 282 281 282 278 274 273 271 274 267 280 286 286 284 284 287
300 299 299 299 298 299 299 299 301 302 299 292 291 288 284 277 283 283 284 283 283 284 282 283 285 287 287 284 278 277 277 279 280 280 280 281 277 268 268 271 277 280 283 283 282 279 283
299 299 299 299 299 298 299 299 301 302 300 292 291 292 287 282 281 287 282 282 278 277 279 282 287 287 284 275 274 273 272 276 272 280 282 281 280 272 272 271 271 278 283 288 287 276 282
299 299 299 299 298 298 299 299 300 302 301 294 291 291 288 281 286 285 281 280 281 279 275 279 281 282 283 270 270 270 274 280 276 277 276 276 276 274 274 272 278 281 284 287 279 277 281
299 299 300 299 298 298 299 298 300 301 300 294 291 292 288 282 285 288 287 282 281 280 274 280 277 278 276 272 275 274 274 279 278 281 281 279 277 275 276 274 273 283 284 281 282 283 281
299 299 299 299 299 299 298 298 300 300 300 296 289 293 291 285 284 287 288 289 287 285 282 281 278 281 282 276 279 280 277 279 278 275 284 276 280 278 278 276 283 284 282 285 285 283 282

GFSGBSN_sfc_thetae_102.txt.gz
Theta_e
320 321 322 325 325 324 324 323 321 320 319 319 318 317 317 315 314 313 313 312 310 309 308 307 308 309 302 291 293 299 319 322 314 303 298 296 292 289 286 288 289 289 291 293 295 295 294
317 318 319 320 323 324 324 323 322 320 319 318 317 316 316 315 314 313 312 311 309 307 307 307 307 308 297 284 295 303 303 308 304 300 298 298 295 294 293 293 290 292 291 292 292 292 292
315 316 317 318 319 320 323 322 321 320 319 318 317 316 315 314 313 312 311 310 307 307 307 307 307 305 297 290 298 299 302 304 303 300 298 300 301 293 292 289 294 294 289 291 292 292 292
316 315 316 316 317 318 318 321 321 320 319 318 317 315 314 313 312 312 310 307 307 307 307 307 309 304 292 304 302 302 301 301 301 300 301 300 298 293 290 292 291 288 287 283 290 290 292
314 315 315 316 316 316 317 319 320 320 320 318 317 314 313 311 311 309 306 306 306 306 306 307 304 299 290 305 301 306 303 299 297 299 298 301 295 290 289 285 282 283 280 282 286 291 290
315 316 316 316 316 316 317 317 319 320 319 317 316 314 312 311 309 306 306 305 304 304 304 306 305 291 295 293 302 301 302 300 297 297 294 291 288 284 283 282 276 279 280 279 281 286 287
313 314 315 316 317 318 317 318 319 319 318 317 315 313 312 310 307 305 301 297 297 295 295 292 293 290 294 302 304 295 300 298 296 293 287 287 283 281 284 283 284 284 282 281 282 286 284
311 312 315 317 319 319 318 318 318 318 317 316 314 313 311 308 306 305 300 292 296 295 286 296 297 297 299 301 295 300 298 293 289 286 289 286 281 286 286 285 284 283 281 280 283 286 284
310 310 312 314 318 318 318 318 318 318 317 315 313 311 309 307 305 301 295 293 301 297 285 287 294 295 297 300 295 296 296 291 287 285 285 283 287 291 287 285 284 282 280 281 282 285 285
311 309 311 313 316 317 317 318 318 318 315 313 311 310 307 305 297 295 290 296 297 296 279 281 287 293 298 300 294 301 297 293 287 285 284 283 288 288 286 285 285 281 287 286 285 282 277
309 310 311 313 315 316 316 317 318 316 314 311 310 308 305 302 295 294 297 301 301 297 271 285 289 297 298 292 291 293 298 293 287 286 286 283 286 285 284 286 287 284 289 287 285 281 279
307 310 313 314 315 315 315 316 316 314 312 310 308 306 303 299 296 298 299 302 299 283 272 285 290 289 290 292 290 294 294 295 293 288 287 286 289 289 287 289 288 289 286 285 284 282 276
306 308 311 315 315 315 315 315 313 311 309 308 306 304 299 299 292 299 299 295 280 274 287 286 287 290 289 288 288 289 288 286 284 280 279 285 285 288 290 287 289 286 282 277 274 274 275
305 305 306 311 315 314 314 311 309 308 307 306 303 301 299 298 298 299 296 288 274 281 282 286 285 286 282 283 284 284 285 283 287 286 283 279 277 285 289 286 282 283 282 277 273 274 275
305 305 304 304 306 308 309 308 307 305 304 302 299 294 294 295 296 297 291 278 276 282 284 283 285 281 281 284 284 284 284 284 285 286 281 281 281 288 288 287 284 282 281 285 280 280 277
305 305 304 304 302 302 302 302 302 301 300 298 291 291 292 299 298 296 286 281 284 286 286 286 281 283 279 281 281 281 282 285 285 287 287 284 276 284 286 285 285 283 284 276 278 272 273
303 304 304 304 304 303 302 302 301 300 299 299 293 286 295 299 299 291 280 284 285 288 288 285 282 281 282 281 281 280 282 285 286 286 286 282 279 279 281 280 277 279 277 280 282 278 273
302 302 302 303 303 302 302 301 300 299 300 297 291 283 296 298 286 287 283 287 289 286 289 287 287 284 282 282 280 280 281 284 288 286 280 283 280 275 277 282 284 281 281 282 269 271 276
302 301 301 302 301 302 301 301 300 300 299 292 287 287 295 294 281 282 286 285 286 285 285 285 284 285 285 281 278 282 284 288 288 285 282 283 277 273 274 278 281 279 280 282 281 280 275
301 301 300 300 301 300 300 300 300 300 300 292 285 280 286 290 289 285 283 283 282 287 285 285 284 285 282 281 282 280 281 284 286 287 291 286 279 276 271 275 279 277 279 280 277 267 273
301 299 299 299 298 299 299 299 299 300 300 292 286 280 285 281 283 283 284 284 281 281 284 285 282 282 281 278 278 277 279 280 282 288 284 281 276 278 279 279 280 279 278 278 276 277 273
301 300 298 298 298 299 299 299 299 300 299 291 285 284 285 283 285 283 282 282 281 282 282 280 280 281 280 278 278 276 279 279 278 283 280 281 272 277 276 279 279 276 277 278 278 278 278
300 300 300 299 298 298 299 298 299 299 298 288 288 289 285 282 281 280 280 282 282 283 284 284 282 280 279 280 281 281 282 282 281 279 277 278 275 273 268 276 276 271 276 278 280 283 280
299 300 299 299 299 298 298 298 299 300 299 291 289 287 283 279 280 281 284 284 282 283 281 284 283 281 283 286 284 283 281 281 280 280 280 277 273 273 271 274 265 274 285 284 282 282 284
298 299 299 298 298 298 298 299 301 300 298 291 290 287 284 278 282 283 283 282 283 283 282 283 284 285 285 283 278 276 276 278 279 279 279 280 277 268 267 267 273 278 281 281 280 278 282
299 299 299 298 298 298 299 300 302 301 299 291 289 290 287 282 281 286 282 282 278 277 279 282 285 286 283 275 274 273 271 275 273 279 281 280 281 271 268 267 268 276 282 285 286 276 281
299 299 299 298 298 298 299 300 301 301 299 293 290 291 288 281 285 285 280 280 281 278 276 279 281 281 282 270 268 268 273 280 275 277 275 276 276 272 272 271 275 280 281 286 277 274 280
299 299 299 298 298 298 299 300 301 301 299 293 290 291 288 282 284 287 286 281 281 279 274 279 277 277 276 271 274 272 275 278 277 280 278 277 274 273 275 272 271 282 282 278 280 281 280
299 299 299 299 299 298 299 300 301 300 299 295 288 292 291 285 284 287 288 287 285 284 281 281 277 279 277 276 278 280 276 278 278 274 282 275 279 277 278 276 281 282 281 284 284 281 280

GFSGBSN_sfc_thetae_105.txt.gz
Theta_e
316 316 317 318 319 320 323 325 323 322 321 320 320 319 319 319 317 316 314 313 311 310 308 308 308 309 304 291 292 302 319 322 315 311 302 298 296 293 290 290 292 292 295 297 298 298 298
316 316 317 316 317 318 320 320 323 322 320 320 319 319 318 318 317 315 314 312 310 308 307 307 307 308 300 285 299 305 305 312 309 304 301 299 296 296 294 295 293 295 294 295 296 296 296
314 315 315 315 315 315 317 317 318 320 321 320 319 318 317 317 316 314 313 312 308 307 307 307 307 305 298 290 301 302 303 307 305 303 300 301 302 299 297 292 296 296 292 295 296 297 296
312 312 314 314 314 315 315 315 316 318 320 321 320 318 316 316 314 313 311 309 306 306 307 307 307 304 292 303 306 304 303 302 303 304 302 303 303 299 294 296 293 291 291 288 294 295 296
311 313 314 315 315 315 314 315 315 316 318 320 319 318 316 314 312 311 309 306 306 306 306 306 303 300 291 305 298 304 303 298 300 301 301 302 299 295 294 289 287 288 285 287 290 295 294
312 312 312 312 312 312 313 314 315 315 316 317 318 318 315 313 311 310 307 304 303 305 305 305 304 293 296 294 301 305 305 303 298 297 296 295 294 290 289 287 282 283 285 287 287 292 292
312 311 311 312 313 313 315 316 317 316 316 316 318 317 314 312 310 306 301 299 297 295 298 293 294 291 293 302 305 299 303 301 299 297 290 292 288 285 288 288 288 288 286 285 288 291 288
312 312 312 313 313 312 313 314 315 316 316 316 317 316 314 311 308 305 298 291 297 296 289 296 296 296 299 302 296 299 302 297 294 290 292 289 285 290 291 289 287 286 284 285 288 290 288
312 312 311 311 312 312 312 314 314 317 315 316 316 315 312 309 306 300 296 293 299 301 288 290 294 294 295 298 292 296 297 295 292 289 289 288 290 292 289 287 286 286 285 286 286 290 291
311 310 309 309 311 312 312 313 315 316 315 315 316 313 309 306 299 297 294 298 299 298 281 286 287 293 297 298 291 298 299 295 290 288 287 288 292 290 288 288 289 284 289 288 287 286 282
309 309 308 309 311 311 313 313 315 316 316 315 313 309 306 307 295 293 297 298 296 297 274 288 288 299 299 293 293 294 299 295 289 288 288 286 287 286 286 287 289 287 290 288 288 286 285
308 307 307 308 310 311 313 314 315 315 315 314 311 307 305 299 299 300 302 305 299 281 274 284 291 289 291 294 293 295 295 298 295 289 290 289 293 291 290 291 291 291 289 288 287 286 280
308 305 306 307 309 311 314 314 314 315 314 312 308 305 302 301 294 301 301 296 279 276 287 286 287 290 289 288 290 291 290 289 287 284 284 287 287 291 292 289 290 289 286 280 278 279 278
307 305 304 305 307 311 314 314 313 313 311 308 305 302 300 301 301 302 296 285 275 281 282 288 288 289 286 285 285 285 288 286 289 288 284 280 279 287 290 287 284 285 286 281 274 276 279
306 306 304 303 305 311 314 314 312 310 307 305 301 296 296 297 301 300 290 279 281 282 285 284 285 283 282 284 285 287 286 285 286 287 283 281 281 288 288 288 287 285 284 287 281 283 279
305 306 304 303 302 304 307 308 307 306 303 302 293 291 293 298 298 296 286 281 283 286 286 286 282 284 280 282 282 284 285 287 285 288 289 285 279 285 287 287 287 285 286 279 283 274 273
304 304 305 304 303 302 301 301 301 301 300 300 292 287 292 300 298 289 281 282 286 288 288 285 283 282 282 281 282 281 283 285 287 287 288 285 282 281 284 282 280 281 280 282 284 282 275
303 303 303 304 304 303 303 302 302 302 301 297 289 281 295 299 286 287 283 286 289 286 289 287 287 285 284 285 281 281 282 285 289 288 283 285 282 277 278 284 286 284 283 283 277 274 279
303 303 302 303 303 303 302 302 301 301 300 295 286 285 296 295 281 282 287 286 287 285 285 285 285 286 285 282 279 283 285 288 289 287 285 286 280 274 276 281 283 282 283 284 283 281 276
303 302 302 302 302 302 302 301 301 300 300 295 288 282 288 291 290 285 284 283 282 287 285 286 284 285 284 282 283 281 283 284 287 289 291 288 281 277 273 277 281 278 280 282 280 275 276
302 301 301 299 301 301 301 301 300 301 300 294 287 283 287 281 284 285 286 285 282 281 285 285 282 283 282 279 279 279 281 282 285 290 286 285 278 280 280 281 281 280 280 280 279 279 275
301 300 300 299 299 299 299 300 300 300 299 291 285 285 286 285 287 284 284 282 281 281 283 281 281 281 282 279 280 278 280 281 280 286 284 284 278 279 277 280 280 277 279 279 279 279 279
300 299 299 299 299 298 299 300 300 300 298 290 289 290 288 285 283 282 282 283 282 284 285 284 283 282 281 281 284 284 285 285 284 283 281 281 279 276 271 277 276 272 277 279 280 283 281
300 299 299 298 298 298 298 299 299 300 299 292 291 288 285 280 282 282 284 284 283 283 282 284 285 283 285 288 287 286 284 283 283 283 285 280 278 277 273 275 266 277 286 284 282 281 282
300 300 300 298 297 298 298 299 301 300 301 293 292 289 285 280 284 283 284 283 284 284 283 283 284 287 288 285 280 277 278 279 280 281 281 283 280 275 271 271 275 277 280 281 280 279 282
300 299 298 298 298 298 300 301 301 300 301 293 291 291 289 284 282 285 283 283 280 280 281 283 286 288 285 280 278 274 273 275 275 278 282 281 282 277 273 269 267 276 281 284 285 277 281
299 298 298 298 298 299 300 301 301 301 301 294 291 292 289 283 286 286 282 282 282 280 279 282 283 284 284 278 275 275 275 280 276 277 276 277 277 273 273 272 275 280 282 286 276 275 280
298 299 298 297 298 299 300 300 301 300 299 294 291 292 290 285 286 288 287 283 282 282 279 282 281 281 280 276 276 276 276 279 278 280 277 277 275 274 275 272 271 281 282 277 279 281 280
297 298 298 298 298 299 300 301 300 299 298 295 290 292 292 287 286 289 290 290 289 286 283 282 280 280 281 280 280 281 278 279 278 275 282 276 279 278 278 277 281 282 281 283 283 280 280

GFSGBSN_sfc_thetae_108.txt.gz
Theta_e
316 316 316 316 316 316 317 318 320 320 322 322 321 321 321 321 320 318 316 314 313 311 309 308 308 309 306 298 301 312 323 319 315 311 306 303 301 300 296 297 298 296 298 299 301 300 300
316 316 316 314 315 315 315 317 317 318 319 321 320 320 320 320 320 318 315 314 312 309 307 307 308 308 302 294 305 306 306 312 308 308 304 304 301 303 298 296 296 298 299 299 301 301 301
314 314 314 314 315 315 315 316 316 316 317 318 320 320 319 319 319 317 315 313 310 307 307 307 307 306 300 299 306 307 306 308 308 308 303 305 304 300 301 298 301 300 295 298 299 300 299
312 312 312 314 314 314 315 315 315 316 316 316 318 319 318 318 317 316 313 311 308 306 307 307 307 306 297 306 309 306 306 305 308 309 306 307 307 305 301 301 298 295 297 292 298 299 300
311 311 311 314 312 311 312 312 313 314 315 316 316 316 318 316 315 313 312 308 307 305 305 306 304 302 298 307 302 305 307 301 303 307 307 304 304 300 299 295 294 295 291 293 295 300 299
310 310 311 313 313 313 313 313 313 313 314 315 315 315 316 316 314 311 309 306 303 304 305 305 304 297 303 302 303 307 310 303 299 303 301 300 299 296 296 293 288 292 292 293 292 297 297
309 310 311 313 313 314 313 314 313 312 312 314 316 315 316 316 312 308 304 302 298 298 299 300 300 301 298 303 308 306 308 305 300 297 291 297 292 290 293 295 295 293 291 290 294 297 294
310 311 312 311 312 312 312 313 311 311 312 313 315 315 315 315 311 307 303 300 301 299 295 301 301 301 305 304 299 304 307 300 298 292 294 293 289 294 296 295 293 291 290 290 294 296 294
311 310 310 310 309 311 311 311 311 311 312 312 314 315 316 313 308 303 300 298 304 302 292 299 301 301 302 302 298 301 303 301 297 294 294 291 294 297 294 293 291 292 290 290 290 294 296
310 310 310 309 309 309 310 311 311 312 312 312 314 314 313 308 302 299 296 300 301 300 284 295 295 298 301 301 296 305 306 301 297 294 295 293 298 294 293 291 293 288 294 292 291 290 286
309 309 309 308 308 309 309 310 311 312 312 313 314 314 308 308 299 297 303 303 301 298 277 293 293 301 300 296 297 299 305 301 295 294 295 292 291 291 291 291 294 290 294 292 292 290 290
308 308 309 307 308 308 309 310 311 312 313 314 314 310 307 301 302 303 301 302 301 285 279 290 293 292 293 295 295 298 297 301 300 294 293 293 296 294 293 294 294 295 292 292 292 290 283
307 308 308 306 306 307 308 309 311 313 314 314 310 308 308 303 300 303 302 297 283 280 291 288 289 291 292 290 292 294 292 292 290 286 286 290 291 294 295 292 294 292 290 283 282 282 281
307 307 308 305 305 307 308 310 312 313 313 313 308 307 304 303 304 304 299 289 280 288 289 291 291 292 289 290 291 292 290 287 292 291 287 285 283 291 293 291 290 290 290 283 277 279 283
306 306 307 305 304 306 309 311 313 312 312 308 303 300 299 302 303 303 293 283 286 289 291 288 289 288 288 288 289 291 290 288 291 293 286 285 284 290 290 290 289 288 286 290 285 286 282
305 306 306 304 302 303 306 311 312 311 306 304 298 295 295 302 303 298 289 287 290 292 290 289 285 289 286 287 286 288 289 291 289 291 295 288 281 288 289 289 289 288 290 283 285 276 275
305 305 306 305 303 301 302 306 309 306 304 303 295 288 292 300 300 290 285 286 289 290 290 287 287 286 287 285 287 286 287 288 292 288 292 290 286 283 286 285 285 284 283 284 286 284 278
304 305 305 305 304 303 302 302 303 303 301 297 290 283 295 300 286 288 285 289 290 287 290 289 289 288 287 287 285 284 285 288 291 291 286 288 286 281 282 287 288 287 284 284 280 278 282
304 304 304 305 305 304 303 302 303 302 300 295 286 285 294 295 284 285 289 288 289 288 289 289 288 289 288 287 283 285 286 289 291 289 288 288 284 278 278 283 286 284 286 286 285 284 280
300 304 304 304 304 304 304 303 303 301 300 299 289 283 286 288 289 288 285 285 285 289 288 288 289 290 289 286 287 284 285 286 290 291 291 290 284 281 277 280 284 281 283 285 283 279 280
297 302 303 303 303 303 303 303 302 302 300 299 293 289 291 283 286 288 288 287 285 285 288 289 286 288 287 283 284 284 286 285 289 291 290 288 280 282 283 283 283 282 282 283 282 282 279
298 299 302 301 301 302 302 302 301 302 299 296 290 289 291 289 289 287 287 287 285 285 286 285 285 286 287 284 285 283 286 286 284 288 287 287 281 281 279 283 282 280 282 283 283 282 282
302 302 301 301 300 300 300 301 301 301 298 295 296 294 291 287 288 286 287 287 287 287 287 288 288 286 285 285 288 289 289 289 287 286 285 285 282 279 275 279 279 276 280 281 282 284 283
301 301 300 299 300 300 300 300 300 300 299 298 295 294 290 285 288 287 288 288 287 287 285 287 288 286 288 292 291 289 288 287 286 286 288 283 282 280 276 276 270 281 287 286 284 286 285
301 300 299 299 298 299 298 298 298 299 299 297 297 295 292 286 289 287 288 288 289 289 286 287 288 290 292 288 283 280 281 282 283 284 285 286 282 278 275 275 278 280 282 281 281 281 284
300 299 299 298 298 297 297 298 299 299 299 299 298 298 296 290 287 290 288 289 285 284 285 286 290 292 291 288 283 277 276 279 278 280 286 285 285 280 277 272 271 279 284 286 285 277 283
299 299 298 297 298 299 300 301 301 301 301 299 297 298 297 290 290 291 287 286 289 287 285 286 287 287 290 285 282 280 279 283 278 278 278 279 280 277 277 275 279 282 284 286 276 276 281
298 298 298 297 297 299 300 301 301 301 301 299 297 297 297 291 289 291 290 287 287 288 284 287 286 286 287 283 284 282 281 282 281 281 280 279 278 277 278 275 273 283 284 279 281 282 282
297 296 298 298 299 300 300 301 300 301 300 298 294 297 299 295 289 295 294 294 292 291 290 289 287 286 290 288 287 285 282 284 281 279 284 279 282 282 280 279 283 284 282 284 285 282 282

GFSGBSN_sfc_thetae_111.txt.gz
Theta_e
315 316 316 316 315 315 316 317 317 318 318 320 321 322 322 322 322 320 317 315 315 313 311 309 309 309 309 308 309 319 322 318 314 312 308 307 305 304 301 304 304 301 303 304 305 304 303
315 315 315 314 313 314 315 315 316 316 317 317 318 320 321 321 321 320 318 315 314 313 309 308 308 307 307 303 315 311 311 315 312 311 309 308 306 307 303 302 302 304 303 303 304 304 304
314 313 313 314 314 315 314 315 316 316 316 316 316 317 319 320 320 319 317 314 313 310 307 307 308 306 303 306 317 314 310 309 312 310 307 309 308 304 304 301 305 303 300 302 304 304 303
312 312 312 313 314 314 313 313 314 314 314 315 316 316 316 318 318 318 316 313 311 308 306 307 307 305 300 316 316 312 312 309 311 312 309 311 309 305 304 306 303 298 299 295 303 305 304
310 310 311 312 313 314 313 313 314 314 314 314 315 315 315 315 316 316 314 311 308 307 305 306 303 304 303 311 307 311 312 307 308 309 310 307 307 303 304 299 297 299 293 297 301 305 302
309 310 310 312 312 313 314 314 313 313 314 313 313 314 315 314 315 313 310 309 306 304 304 304 303 299 306 308 313 308 311 308 304 304 304 303 301 298 299 297 290 295 296 299 297 302 302
309 309 310 312 313 313 312 312 312 312 312 312 312 313 315 315 315 310 306 304 300 300 300 303 306 306 308 310 309 308 310 305 303 300 296 301 295 293 297 299 299 297 296 296 298 302 299
309 309 310 311 311 311 311 311 311 311 311 312 312 312 313 315 313 310 312 303 307 308 302 307 308 309 311 313 305 309 312 303 301 295 299 297 293 298 300 300 297 296 294 294 297 299 298
310 310 309 310 309 310 309 310 310 310 310 311 311 312 313 314 312 308 308 308 309 310 298 303 307 306 307 309 304 305 310 305 301 298 298 295 296 300 297 296 294 294 293 293 293 297 299
308 310 310 309 309 310 310 310 310 310 310 310 311 312 312 313 305 305 303 305 306 309 288 296 301 304 307 307 301 308 309 306 301 296 299 296 301 297 297 295 296 291 297 295 294 292 288
308 309 309 310 310 309 309 309 309 310 310 311 311 311 312 310 305 301 304 303 304 304 280 297 300 305 303 300 302 302 309 306 299 298 298 295 297 296 294 294 297 293 297 294 294 292 291
308 308 309 309 309 309 308 308 308 309 309 310 311 312 311 309 307 307 305 304 305 288 281 293 297 295 296 299 299 301 300 305 305 299 299 298 301 299 296 297 297 297 294 293 293 290 284
307 308 308 308 309 308 307 308 308 308 309 310 312 313 309 307 299 310 303 300 286 284 295 292 294 296 295 295 296 296 295 295 293 289 290 294 294 298 297 292 294 293 290 283 281 282 282
307 307 307 308 308 308 306 307 307 308 310 311 313 310 310 310 306 304 301 292 282 291 292 296 296 295 292 295 294 294 294 291 295 295 290 286 284 292 296 293 290 290 288 282 276 279 283
305 306 307 307 308 307 305 306 307 308 310 312 310 305 302 304 303 303 297 285 288 292 296 294 294 291 292 294 292 293 293 293 295 296 287 286 286 295 294 294 292 290 287 292 286 288 284
304 305 306 306 307 305 303 305 306 309 312 308 301 298 296 304 304 300 292 288 292 299 298 296 290 293 290 293 290 291 291 295 293 295 297 292 285 292 292 293 293 290 292 285 286 278 277
303 304 305 305 306 305 302 304 307 311 308 307 300 290 294 304 303 293 285 290 294 299 296 293 292 291 292 291 292 290 290 293 295 294 297 294 290 288 290 288 287 287 285 286 286 285 278
302 303 304 305 306 305 302 303 309 308 305 299 294 286 296 302 286 287 287 292 296 295 294 293 293 293 291 292 289 289 288 291 296 297 290 292 289 283 286 291 291 290 287 287 282 280 284
302 303 304 304 305 305 303 302 303 302 301 297 288 286 293 296 284 286 291 291 293 292 292 292 290 291 292 291 286 288 289 292 294 294 291 291 285 281 282 286 288 286 287 287 287 286 281
301 301 302 303 305 305 304 303 302 302 302 298 289 283 286 288 291 290 289 290 289 295 294 294 292 293 291 290 291 288 288 290 292 292 291 293 287 284 280 282 286 283 285 287 286 282 282
300 301 301 302 304 305 305 304 304 302 300 299 293 289 292 284 287 289 291 289 287 286 291 292 290 290 289 287 288 286 289 288 291 291 291 290 283 285 286 286 285 284 284 285 284 285 281
299 300 300 299 304 304 305 305 304 302 300 295 289 292 292 290 291 289 289 287 288 287 289 287 288 291 292 288 289 287 289 288 288 292 290 290 283 284 282 285 285 282 284 284 284 285 285
299 300 299 298 302 303 304 304 303 302 300 293 298 300 294 289 289 287 287 289 290 291 290 293 291 290 289 289 291 293 294 292 291 289 288 287 284 281 277 282 281 278 282 283 285 286 286
300 300 300 299 302 302 303 302 302 301 300 299 298 298 292 288 289 289 290 292 291 291 288 291 292 290 292 295 294 292 291 290 289 289 291 286 284 283 278 278 271 283 289 288 285 286 288
298 300 301 301 302 301 301 301 301 301 301 297 300 297 295 288 290 290 291 291 292 291 290 290 291 294 296 292 285 282 282 283 284 286 287 288 285 280 276 277 280 282 284 283 281 282 285
298 299 301 300 300 300 300 300 301 300 300 298 302 301 297 292 289 293 290 292 289 289 289 289 293 296 293 288 284 278 277 281 280 282 288 287 287 282 279 274 273 281 286 288 286 278 285
299 300 300 299 299 299 298 298 299 298 299 299 300 302 298 293 293 294 291 290 293 291 288 289 289 289 292 287 283 281 280 285 280 280 280 281 282 278 278 277 281 283 286 287 276 278 284
300 300 298 298 297 298 298 299 299 299 300 301 300 301 300 295 293 295 295 292 292 292 287 289 287 288 288 284 285 284 284 284 284 284 282 281 280 280 281 278 276 285 285 280 282 284 283
299 298 298 297 299 299 298 300 300 300 301 301 297 301 302 296 292 298 297 298 296 295 293 291 291 290 292 289 289 287 284 286 284 279 287 281 284 283 281 280 284 285 283 285 286 284 283

GFSGBSN_sfc_thetae_114.txt.gz
Theta_e
315 315 316 315 315 315 315 315 317 317 317 317 317 318 320 322 323 322 319 317 316 315 313 311 310 310 308 310 310 318 322 318 313 310 308 308 306 305 301 304 305 303 304 306 306 306 305
314 315 315 313 313 313 314 315 316 316 316 317 317 317 317 319 321 321 320 317 315 315 312 308 308 308 305 302 320 318 313 314 310 310 309 309 306 307 304 303 301 304 304 304 305 304 304
313 313 313 313 313 313 314 314 314 315 314 315 316 316 316 317 318 319 320 317 314 313 309 307 308 304 303 305 320 321 314 311 313 312 309 310 310 305 304 301 306 304 299 301 302 304 303
311 311 312 313 313 313 314 313 313 314 314 315 315 315 315 315 315 316 318 315 314 311 308 307 307 303 301 318 320 317 319 317 313 312 311 311 311 306 303 305 302 298 299 295 301 304 305
310 310 310 311 312 312 313 314 314 314 315 315 314 314 314 314 314 314 316 314 311 308 306 306 303 304 301 317 312 316 315 310 312 311 310 311 308 303 303 297 295 297 292 295 298 305 304
310 310 310 312 312 313 314 314 314 314 313 313 313 313 313 313 314 314 312 310 308 305 304 305 304 300 306 306 313 313 311 310 307 306 304 303 301 297 298 295 289 293 293 296 296 302 303
310 310 310 310 312 312 313 313 313 312 312 312 312 312 313 313 314 310 307 305 301 301 301 303 303 303 307 313 312 309 311 307 305 302 295 300 295 292 296 298 298 297 295 294 297 301 299
311 310 310 309 310 311 311 311 311 311 311 311 311 312 312 313 314 310 311 303 307 310 300 305 307 307 309 310 304 308 313 303 302 295 299 296 293 299 300 299 297 296 294 294 297 300 298
310 310 310 309 309 310 310 310 310 310 311 311 311 311 312 312 312 308 308 307 315 310 299 302 305 305 306 309 303 304 308 306 301 297 297 294 297 301 298 296 294 294 292 293 293 296 298
310 310 309 308 309 310 311 311 310 310 310 310 310 310 311 311 307 308 305 313 308 313 292 294 299 304 306 306 301 309 310 305 301 297 298 296 299 297 296 295 296 290 297 296 294 292 287
308 309 309 309 310 310 310 310 309 309 309 309 309 309 310 311 309 304 307 305 309 308 279 295 298 308 305 303 303 302 310 305 297 297 298 295 296 295 295 296 298 294 298 295 294 290 290
308 308 309 309 309 309 309 309 309 308 308 308 309 309 310 309 309 309 305 306 307 288 280 292 299 298 298 300 301 302 302 304 304 298 298 297 302 299 297 300 299 297 293 294 294 290 282
307 308 308 308 308 308 309 309 309 308 308 308 308 310 309 312 304 307 305 303 287 282 295 291 293 297 295 295 297 298 297 295 292 289 291 295 295 299 300 295 296 294 289 281 280 280 280
306 307 307 308 308 308 308 309 308 307 307 307 308 308 311 311 310 306 304 293 282 289 291 297 295 296 293 296 296 296 294 291 296 294 290 287 286 294 298 295 291 291 289 281 275 277 281
305 305 306 307 307 307 308 308 307 306 306 307 308 309 308 307 307 305 297 284 286 291 294 293 294 291 291 294 294 294 293 292 295 296 288 287 287 296 296 298 295 290 286 292 284 285 282
304 304 305 306 306 306 307 307 306 306 306 307 303 299 297 306 305 302 292 287 292 296 297 296 290 293 289 291 292 293 292 295 294 297 298 293 285 293 295 294 294 290 292 284 285 277 276
303 303 304 305 305 305 306 306 305 305 306 308 301 292 297 304 303 294 286 290 294 299 299 296 293 292 293 291 293 292 291 294 296 296 296 294 290 288 292 288 287 288 286 287 287 283 278
302 303 303 304 304 305 305 306 304 306 309 303 296 287 298 302 287 287 287 292 296 297 300 298 297 295 293 293 291 291 291 293 297 296 290 292 290 284 286 292 293 291 289 288 281 280 283
302 302 303 303 304 304 305 305 304 302 302 298 287 286 296 297 284 286 291 292 295 295 296 296 293 294 295 292 288 291 291 294 295 295 292 292 286 281 283 288 290 286 288 288 288 287 281
301 301 301 302 303 304 305 304 304 303 301 298 290 283 286 288 291 290 288 289 290 297 296 295 293 295 293 291 293 289 289 291 294 294 294 295 288 284 280 282 286 284 286 287 286 281 281
300 300 300 301 301 303 303 305 304 304 302 299 292 287 292 282 284 289 291 291 290 290 293 295 291 293 291 287 289 288 291 290 291 292 291 290 283 286 286 287 286 285 284 285 284 285 281
299 300 300 300 301 302 302 303 304 304 301 295 287 290 292 291 290 288 290 290 290 291 292 290 290 292 291 289 290 288 290 290 288 291 290 291 283 284 282 285 285 282 284 284 284 284 284
299 299 299 299 300 301 302 303 304 303 301 292 295 298 294 290 288 287 288 291 291 292 292 293 292 291 290 292 295 294 296 295 293 290 289 288 285 281 277 283 282 278 282 283 284 286 285
298 298 299 299 300 301 301 302 304 303 301 298 298 298 291 287 288 289 290 291 291 291 289 292 294 292 293 296 295 294 293 291 291 290 292 286 285 283 279 279 271 282 289 288 285 286 288
297 297 299 300 301 300 302 299 304 302 301 297 299 296 293 289 289 288 289 290 292 293 291 291 292 295 297 293 286 282 282 283 285 288 288 289 285 280 276 276 280 282 284 283 280 281 288
298 300 300 301 301 301 300 302 303 302 301 298 297 301 296 291 289 293 291 293 289 289 289 290 294 297 295 292 285 278 276 280 279 281 287 287 286 282 279 274 272 281 285 288 287 277 285
298 299 299 301 301 301 301 302 302 301 301 298 299 303 295 291 295 296 291 291 294 291 288 289 290 290 293 287 282 280 279 285 279 279 279 281 282 278 279 277 280 284 286 288 276 277 283
299 299 298 300 300 300 300 300 301 300 300 298 301 301 297 294 294 297 297 295 294 293 287 290 287 288 287 284 284 284 284 284 284 285 283 281 279 279 280 277 275 285 285 280 281 284 284
298 300 299 299 299 299 299 299 299 299 299 300 297 302 302 296 293 298 298 298 297 297 294 292 291 290 292 288 289 288 285 287 285 279 287 281 285 282 280 279 283 284 283 285 286 284 283

GFSGBSN_sfc_thetae_117.txt.gz
Theta_e
314 315 315 316 314 314 314 315 316 316 316 317 317 317 317 317 319 320 320 319 318 317 316 314 312 311 304 304 307 316 322 320 314 309 305 304 302 300 297 299 299 297 299 301 302 302 300
314 315 315 314 313 313 314 315 315 315 316 315 315 316 317 317 317 318 319 319 318 316 314 311 310 310 301 297 315 319 314 311 308 306 305 305 303 304 299 298 297 300 300 300 301 301 302
312 313 313 313 313 313 313 315 314 314 314 314 315 315 315 316 316 316 316 318 317 315 313 309 309 305 299 301 316 316 316 313 310 310 306 309 307 302 301 297 301 300 294 297 297 298 298
312 312 312 313 313 313 313 314 314 313 314 315 315 315 314 314 314 314 314 316 316 314 311 308 308 302 295 313 313 311 312 312 315 309 307 307 308 303 300 301 299 294 294 289 296 299 301
311 311 311 312 312 313 313 313 314 314 315 314 314 314 313 313 313 313 314 315 313 311 308 308 301 298 296 314 310 313 314 311 311 314 307 310 304 300 298 293 289 291 285 289 293 300 300
311 311 311 311 312 312 313 313 314 314 313 313 313 313 312 312 312 312 311 311 310 307 306 306 303 296 300 302 310 312 314 311 307 306 303 300 296 291 290 288 283 286 287 289 290 294 297
311 311 311 311 311 311 312 313 313 312 312 312 312 312 312 312 312 310 307 305 299 295 300 297 298 297 303 309 310 309 308 306 304 301 293 296 289 285 289 292 294 293 291 290 293 297 295
312 312 311 311 310 310 310 311 311 311 311 311 311 311 311 312 312 310 309 303 303 305 296 301 303 303 304 307 301 305 309 300 297 291 294 291 287 294 297 296 295 293 290 289 293 296 295
311 310 311 311 310 310 310 311 311 310 310 310 311 311 311 311 311 308 306 306 312 307 294 299 303 302 303 307 301 301 305 302 297 294 294 289 292 297 295 294 293 292 290 290 289 293 294
310 310 310 310 309 310 311 311 311 311 310 310 310 309 309 310 305 306 303 310 310 307 286 292 297 301 304 305 298 306 307 301 298 294 296 294 298 296 294 292 293 288 295 295 293 289 283
310 310 310 310 310 309 310 310 310 310 310 309 309 309 309 310 306 302 304 310 307 305 273 293 297 307 306 299 300 301 306 302 295 295 295 292 294 294 293 294 295 291 297 292 291 289 288
309 309 309 309 309 309 309 309 309 310 310 309 308 309 309 306 305 308 310 306 306 286 276 291 298 297 297 299 300 301 300 303 302 296 296 294 299 297 295 298 297 298 293 290 288 286 280
307 308 309 309 309 309 309 309 309 309 309 309 308 308 307 307 302 307 305 303 286 278 292 288 291 296 295 294 295 296 295 293 288 284 285 291 293 297 299 294 295 293 286 279 276 277 277
306 306 307 307 308 308 308 308 308 309 309 308 307 307 305 307 310 305 304 292 280 286 287 294 293 293 290 293 293 294 292 289 293 291 286 284 281 291 296 293 290 290 286 279 275 275 278
305 306 306 306 307 307 307 308 307 308 308 307 306 300 305 309 309 305 297 283 282 287 291 290 291 288 288 292 293 291 290 290 292 292 287 284 285 294 295 295 293 289 284 290 283 283 279
304 304 305 305 305 306 306 307 307 307 307 306 296 298 299 304 306 303 291 285 288 293 293 293 287 290 287 289 289 289 289 293 292 294 294 290 284 292 294 292 291 290 291 283 282 276 275
303 303 304 304 305 305 305 306 306 306 306 306 297 293 298 304 304 296 285 287 291 296 296 293 290 289 291 289 291 289 290 294 296 293 293 291 286 286 291 287 284 286 284 285 286 282 276
302 302 303 304 304 304 305 305 306 306 305 303 296 286 298 304 288 287 286 290 295 294 297 294 295 293 291 291 290 289 289 292 295 293 288 289 287 281 286 292 292 289 287 287 278 277 279
301 302 302 303 303 303 304 304 305 305 303 297 289 287 296 296 284 284 290 291 294 293 294 294 294 295 295 289 285 289 290 294 295 293 289 290 282 278 281 287 290 287 287 288 286 285 279
300 301 301 301 302 303 303 304 304 305 302 297 288 282 286 289 292 288 287 288 289 295 294 296 295 294 291 288 291 287 289 292 294 292 295 293 285 282 279 282 286 282 285 286 284 277 279
299 300 300 301 301 301 302 303 303 305 303 298 290 285 286 280 284 288 290 289 288 288 295 295 292 290 289 286 287 287 290 288 291 293 291 287 280 285 286 287 287 285 284 284 283 283 279
299 299 300 299 300 300 301 302 302 304 303 295 286 287 291 286 288 286 288 288 287 289 292 290 288 291 291 288 289 287 290 288 287 289 287 288 281 281 280 284 284 282 283 283 284 284 283
298 298 299 299 299 300 300 301 302 303 302 293 294 296 292 288 287 284 284 288 289 292 294 294 292 291 290 291 294 293 291 293 291 287 284 285 281 279 275 281 280 275 280 283 283 286 285
298 298 299 299 299 300 300 301 302 302 302 296 296 294 289 284 287 285 287 289 290 292 289 292 294 289 293 297 295 293 290 289 290 290 290 283 282 280 277 277 270 281 287 285 284 284 286
297 298 298 299 299 300 300 301 301 302 300 297 298 295 290 284 287 288 289 290 291 294 291 291 293 296 297 292 284 280 279 281 284 287 286 288 282 277 273 273 278 281 281 278 276 278 283
298 298 298 298 299 299 300 300 301 301 299 299 296 297 293 288 286 291 290 291 286 286 288 289 295 298 294 286 281 276 275 278 274 280 287 286 284 277 275 271 264 278 284 288 285 272 282
298 297 297 298 298 300 300 300 301 300 301 298 296 298 295 288 291 292 288 288 293 289 284 287 288 287 290 281 279 276 276 283 276 277 277 278 278 275 274 271 276 283 284 287 272 271 282
298 299 297 299 299 300 301 300 300 302 302 297 296 300 295 289 290 297 297 292 293 290 284 286 284 285 283 280 279 278 276 280 280 281 280 278 276 273 272 270 271 283 283 278 280 283 281
298 298 298 296 300 301 300 301 302 302 302 299 294 299 300 292 291 297 296 298 297 295 289 287 286 285 286 281 282 281 277 279 279 275 286 275 277 279 276 274 282 284 282 285 285 282 282

GFSGBSN_sfc_thetae_120.txt.gz
Theta_e
316 315 316 316 316 314 314 315 316 316 316 316 316 316 316 316 317 317 317 318 319 319 318 316 314 312 304 302 305 314 323 320 310 307 303 302 300 298 295 297 297 295 296 298 300 300 299
315 315 316 316 314 312 312 314 314 314 314 314 314 315 315 315 316 316 316 316 317 318 317 315 311 310 300 295 311 315 316 310 306 304 302 303 301 302 298 297 295 298 298 297 298 298 299
313 313 313 313 313 312 312 314 314 313 313 314 315 314 314 314 314 314 315 315 316 317 316 313 309 305 298 299 311 311 311 310 311 307 304 307 306 301 299 297 301 298 293 295 295 296 296
312 312 312 313 313 313 313 313 314 313 314 315 315 314 313 313 313 313 313 314 314 316 315 311 308 302 296 310 309 308 308 308 312 313 308 307 306 302 299 300 297 293 292 286 295 297 298
311 312 311 312 312 312 312 313 313 314 314 314 313 313 312 312 312 312 314 314 315 315 311 309 301 298 294 310 304 312 311 308 311 312 307 309 305 299 298 291 287 289 284 286 290 297 295
311 311 311 312 311 311 312 312 313 313 313 312 312 312 312 312 312 312 312 312 311 309 307 307 303 295 299 301 308 312 312 311 309 306 303 301 295 291 290 288 280 284 285 284 286 291 294
312 311 311 312 312 310 310 311 313 312 311 311 311 312 311 311 312 311 306 302 296 295 300 295 295 297 300 306 308 307 310 308 304 300 292 295 288 284 289 289 291 290 288 288 290 294 292
314 312 313 312 311 310 309 310 311 311 311 311 311 311 311 311 311 311 308 298 301 304 294 300 302 300 303 304 299 303 306 299 296 290 293 290 285 291 293 292 291 290 288 288 292 295 293
311 311 312 312 311 310 310 310 311 310 310 310 310 310 310 310 310 309 305 302 308 305 292 297 301 300 302 304 298 299 303 299 295 291 290 287 290 295 293 291 290 290 289 289 289 292 291
311 311 311 311 311 311 310 311 311 311 310 309 309 309 309 309 302 302 301 307 307 306 287 289 296 299 303 304 298 305 305 300 296 292 293 291 296 294 293 291 292 287 292 292 291 286 281
310 310 310 311 310 310 309 310 310 311 311 310 309 308 308 310 302 301 301 305 305 302 268 290 296 307 304 299 299 299 305 300 293 293 293 290 291 291 291 292 295 291 296 293 290 285 283
310 310 310 310 310 309 310 310 309 309 310 310 309 308 308 303 303 303 307 306 303 278 271 288 297 296 296 297 298 299 299 302 300 294 294 293 298 295 294 296 296 297 293 289 286 284 278
308 309 309 309 309 309 309 309 309 309 309 309 309 309 305 304 298 305 304 303 284 274 289 287 290 295 295 293 294 296 294 292 289 285 286 291 292 294 296 291 294 292 287 280 276 276 276
308 307 307 307 308 308 309 308 308 308 308 309 308 307 304 303 304 304 303 292 276 283 285 292 291 290 289 292 292 294 290 287 291 289 284 282 280 289 294 291 289 290 288 280 274 275 276
307 307 307 307 307 307 307 308 307 307 307 308 307 298 298 303 305 303 296 282 279 284 289 289 289 286 285 289 290 290 290 289 291 291 285 282 283 292 292 293 293 288 282 288 283 281 278
306 306 306 306 306 307 307 307 307 307 307 306 297 292 293 306 307 300 290 285 285 291 292 291 285 289 285 287 287 287 287 292 291 294 294 288 282 290 292 291 290 289 290 280 282 276 274
305 305 305 305 306 305 305 306 306 306 306 306 297 288 293 302 304 294 284 284 288 293 294 291 288 287 288 288 289 288 289 293 293 292 293 290 286 285 290 286 283 284 282 283 286 283 275
303 303 304 304 304 305 305 305 305 305 305 301 294 285 294 304 289 289 286 288 293 292 294 291 291 290 288 290 288 288 289 292 295 293 288 291 285 280 284 291 290 287 284 286 279 277 279
302 303 303 303 303 304 304 305 305 305 305 295 286 285 297 297 283 284 289 289 291 290 292 292 291 293 292 289 284 288 291 294 295 293 290 290 283 278 280 284 288 286 287 288 287 284 279
301 302 302 302 302 303 303 303 304 304 305 296 288 282 286 290 292 287 285 286 288 293 292 293 292 294 291 288 290 287 287 291 293 292 297 293 285 281 278 281 285 281 285 287 285 280 279
300 300 301 301 302 302 302 302 303 303 304 295 289 285 285 281 284 287 289 287 286 286 293 294 290 290 289 284 285 285 287 287 290 294 290 287 280 283 285 287 287 285 285 285 283 283 279
299 299 300 300 300 301 301 301 302 302 303 293 286 286 290 284 286 286 287 286 286 288 289 289 288 290 291 287 287 286 287 285 285 290 286 287 280 280 279 284 284 283 284 283 282 283 283
298 298 299 299 300 300 300 301 301 301 301 292 291 295 291 287 286 284 284 286 287 290 291 292 291 290 288 290 293 293 294 292 292 287 284 283 281 278 275 281 279 276 279 281 282 285 284
298 298 298 299 299 300 300 300 301 301 300 294 295 293 287 282 285 285 286 287 287 288 288 293 294 291 293 295 295 294 292 290 292 291 290 283 281 280 277 277 270 280 286 285 282 282 284
297 297 298 298 299 299 300 300 300 301 302 294 296 293 288 283 287 287 287 287 288 289 289 291 293 296 296 292 284 281 281 282 284 288 287 288 281 276 273 273 277 281 281 277 277 278 281
297 297 298 298 299 299 299 300 300 301 301 297 295 297 292 287 283 290 288 288 285 284 288 290 296 297 294 285 282 277 275 279 277 281 287 285 284 276 274 271 263 272 283 286 282 271 281
297 298 298 298 298 299 299 300 300 300 300 298 295 297 293 286 290 290 287 286 292 289 286 287 289 290 291 281 279 277 277 283 276 276 277 278 277 275 272 270 275 281 282 286 272 272 280
297 298 297 298 298 298 299 299 299 300 300 296 293 299 293 288 290 293 294 288 292 289 284 287 285 285 284 281 280 279 278 280 279 280 279 277 276 272 271 267 269 281 282 278 278 279 280
298 298 297 296 297 298 299 299 300 300 301 299 293 299 299 291 290 296 296 298 297 293 289 286 286 285 286 283 282 282 279 276 279 276 284 275 277 274 276 272 278 281 278 283 285 282 281